Wetterdaten: aktuell Mittwoch, 25.04.2018 13:52
Datum Zeit Temp. A. 5 cm /Boden 10 cm im Bod 20 cm iBoden 50 cm iBoden Feuchte A. Bod.Feucht 1 Luftdruck Regen Wind Richtung Richtung Sonnenschein ET Solar Taupunkt Windchill Windben
25.04.2018 13:52 8,1 C 11,1 C 10,6 C 10,6 C 10,0 C 93 % 17 cb 1006,2 hPa 0,0 l/m 14,5 km/h (3 Bft) W 279 0 min 0,000 mm 76 W/m 7,0 C 3,1 C 22,5 km/h (4 Bft)
25.04.2018 13:51 8,1 C 11,1 C 10,6 C 10,6 C 10,0 C 93 % 17 cb 1006,1 hPa 0,0 l/m 16,7 km/h (3 Bft) W-NW 295 0 min 0,000 mm 68 W/m 7,0 C 2,1 C 24,1 km/h (4 Bft)
25.04.2018 13:50 8,1 C 11,1 C 10,6 C 10,6 C 10,0 C 93 % 17 cb 1006,2 hPa 0,0 l/m 9,3 km/h (2 Bft) NW 305 0 min 0,000 mm 64 W/m 7,0 C 5,9 C 14,5 km/h (3 Bft)
25.04.2018 13:49 8,1 C 11,1 C 10,6 C 10,6 C 10,0 C 93 % 17 cb 1006,1 hPa 0,0 l/m 14,4 km/h (3 Bft) W-NW 284 0 min 0,000 mm 72 W/m 7,0 C 3,1 C 20,9 km/h (4 Bft)
25.04.2018 13:48 8,1 C 11,1 C 10,6 C 10,6 C 10,0 C 93 % 17 cb 1006,0 hPa 0,0 l/m 15,8 km/h (3 Bft) NW 305 0 min 0,000 mm 76 W/m 7,0 C 2,5 C 22,5 km/h (4 Bft)
25.04.2018 13:47 8,1 C 11,1 C 10,6 C 10,6 C 10,0 C 93 % 17 cb 1006,1 hPa 0,0 l/m 17,9 km/h (3 Bft) W-NW 284 0 min 0,000 mm 75 W/m 7,0 C 1,6 C 29,0 km/h (5 Bft)
25.04.2018 13:46 8,1 C 11,1 C 10,6 C 10,6 C 10,0 C 93 % 17 cb 1006,0 hPa 0,0 l/m 16,3 km/h (3 Bft) W-SW 242 0 min 0,000 mm 65 W/m 7,0 C 2,3 C 24,1 km/h (4 Bft)
25.04.2018 13:45 8,1 C 11,1 C 10,6 C 10,6 C 10,0 C 93 % 17 cb 1006,0 hPa 0,0 l/m 14,4 km/h (3 Bft) W-NW 292 0 min 0,000 mm 70 W/m 7,0 C 3,1 C 22,5 km/h (4 Bft)
25.04.2018 13:44 8,1 C 11,1 C 10,6 C 10,6 C 10,0 C 93 % 17 cb 1006,0 hPa 0,0 l/m 9,8 km/h (2 Bft) NW 306 0 min 0,000 mm 76 W/m 7,0 C 5,6 C 16,1 km/h (3 Bft)
25.04.2018 13:43 8,1 C 11,1 C 10,6 C 10,6 C 10,0 C 93 % 17 cb 1005,9 hPa 0,0 l/m 11,8 km/h (2 Bft) W-NW 285 0 min 0,000 mm 83 W/m 7,0 C 4,4 C 17,7 km/h (3 Bft)
25.04.2018 13:42 8,1 C 11,1 C 10,6 C 10,6 C 10,0 C 93 % 17 cb 1005,9 hPa 0,0 l/m 14,9 km/h (3 Bft) W 281 0 min 0,000 mm 78 W/m 7,0 C 2,9 C 22,5 km/h (4 Bft)
25.04.2018 13:41 8,2 C 11,1 C 10,6 C 10,6 C 10,0 C 92 % 17 cb 1005,9 hPa 0,0 l/m 17,9 km/h (3 Bft) W-NW 300 0 min 0,000 mm 81 W/m 7,0 C 1,7 C 27,4 km/h (5 Bft)
25.04.2018 13:40 8,2 C 11,1 C 10,6 C 10,6 C 10,0 C 92 % 17 cb 1005,9 hPa 0,0 l/m 14,9 km/h (3 Bft) W-NW 300 0 min 0,000 mm 83 W/m 7,0 C 3,0 C 24,1 km/h (4 Bft)
25.04.2018 13:39 8,2 C 11,1 C 10,6 C 10,6 C 10,0 C 92 % 17 cb 1005,8 hPa 0,0 l/m 8,7 km/h (2 Bft) W 265 0 min 0,000 mm 78 W/m 7,0 C 6,5 C 14,5 km/h (3 Bft)
25.04.2018 13:38 8,2 C 11,1 C 10,6 C 10,6 C 10,0 C 92 % 17 cb 1005,8 hPa 0,0 l/m 9,2 km/h (2 Bft) W-NW 302 0 min 0,000 mm 83 W/m 7,0 C 6,1 C 16,1 km/h (3 Bft)
25.04.2018 13:37 8,2 C 11,1 C 10,6 C 10,6 C 10,0 C 92 % 17 cb 1005,7 hPa 0,0 l/m 12,2 km/h (2 Bft) NW 319 0 min 0,000 mm 92 W/m 7,0 C 4,3 C 20,9 km/h (4 Bft)
25.04.2018 13:36 8,2 C 11,1 C 10,6 C 10,6 C 10,0 C 92 % 17 cb 1005,7 hPa 0,0 l/m 17,2 km/h (3 Bft) N-NW 329 0 min 0,000 mm 107 W/m 7,0 C 2,0 C 27,4 km/h (5 Bft)
25.04.2018 13:35 8,2 C 11,1 C 10,6 C 10,6 C 10,0 C 92 % 17 cb 1005,6 hPa 0,0 l/m 17,9 km/h (3 Bft) N-NW 338 0 min 0,000 mm 119 W/m 7,0 C 1,7 C 27,4 km/h (5 Bft)
25.04.2018 13:34 8,2 C 11,1 C 10,6 C 10,6 C 10,0 C 92 % 17 cb 1005,6 hPa 0,0 l/m 13,2 km/h (3 Bft) NW 311 0 min 0,000 mm 133 W/m 7,0 C 3,8 C 20,9 km/h (4 Bft)
25.04.2018 13:33 8,2 C 11,1 C 10,6 C 10,6 C 10,0 C 92 % 17 cb 1005,5 hPa 0,0 l/m 11,4 km/h (2 Bft) W-NW 288 0 min 0,000 mm 152 W/m 7,0 C 4,8 C 20,9 km/h (4 Bft)
25.04.2018 13:32 8,3 C 11,1 C 10,6 C 10,6 C 10,0 C 92 % 17 cb 1005,4 hPa 0,0 l/m 16,2 km/h (3 Bft) W-NW 284 0 min 0,000 mm 145 W/m 7,1 C 2,6 C 22,5 km/h (4 Bft)
25.04.2018 13:31 8,3 C 11,1 C 10,6 C 10,6 C 10,0 C 91 % 17 cb 1005,4 hPa 0,0 l/m 13,4 km/h (3 Bft) W-NW 302 0 min 0,000 mm 154 W/m 6,9 C 3,8 C 24,1 km/h (4 Bft)
25.04.2018 13:30 8,3 C 11,1 C 10,6 C 10,6 C 10,0 C 91 % 17 cb 1005,3 hPa 0,0 l/m 18,4 km/h (3 Bft) N 5 0 min 0,000 mm 149 W/m 6,9 C 1,7 C 33,8 km/h (5 Bft)
25.04.2018 13:29 8,3 C 11,1 C 10,6 C 10,6 C 10,0 C 91 % 17 cb 1005,3 hPa 0,0 l/m 18,7 km/h (3 Bft) NW 313 0 min 0,000 mm 136 W/m 6,9 C 1,6 C 30,6 km/h (5 Bft)
25.04.2018 13:28 8,3 C 11,1 C 10,6 C 10,6 C 10,0 C 91 % 17 cb 1005,2 hPa 0,0 l/m 12,2 km/h (2 Bft) W-NW 296 0 min 0,000 mm 132 W/m 6,9 C 4,4 C 24,1 km/h (4 Bft)
25.04.2018 13:27 8,3 C 11,1 C 10,6 C 10,6 C 10,0 C 90 % 17 cb 1005,1 hPa 0,0 l/m 13,9 km/h (3 Bft) NW 304 0 min 0,000 mm 128 W/m 6,8 C 3,6 C 22,5 km/h (4 Bft)
25.04.2018 13:26 8,4 C 11,1 C 10,6 C 10,6 C 10,0 C 90 % 17 cb 1005,1 hPa 0,0 l/m 19,0 km/h (3 Bft) W-NW 286 0 min 0,000 mm 146 W/m 6,9 C 1,6 C 24,1 km/h (4 Bft)
25.04.2018 13:25 8,4 C 11,1 C 10,6 C 10,6 C 10,0 C 90 % 17 cb 1005,0 hPa 0,0 l/m 12,6 km/h (3 Bft) N-NW 327 0 min 0,000 mm 143 W/m 6,9 C 4,4 C 25,7 km/h (4 Bft)
25.04.2018 13:24 8,4 C 11,1 C 10,6 C 10,6 C 10,0 C 89 % 17 cb 1005,0 hPa 0,0 l/m 18,0 km/h (3 Bft) W 274 0 min 0,000 mm 131 W/m 6,7 C 2,0 C 30,6 km/h (5 Bft)
25.04.2018 13:23 8,4 C 11,1 C 10,6 C 10,6 C 10,0 C 89 % 17 cb 1004,9 hPa 0,0 l/m 19,3 km/h (3 Bft) W 267 0 min 0,000 mm 131 W/m 6,7 C 1,5 C 29,0 km/h (5 Bft)
25.04.2018 13:22 8,5 C 11,1 C 10,6 C 10,6 C 10,0 C 89 % 17 cb 1004,8 hPa 0,0 l/m 18,7 km/h (3 Bft) NW 317 0 min 0,000 mm 116 W/m 6,8 C 1,8 C 29,0 km/h (5 Bft)
25.04.2018 13:21 8,6 C 11,1 C 10,6 C 10,6 C 10,0 C 89 % 17 cb 1004,8 hPa 0,0 l/m 21,5 km/h (4 Bft) W-SW 258 0 min 0,000 mm 113 W/m 6,9 C 1,0 C 30,6 km/h (5 Bft)
25.04.2018 13:20 8,6 C 11,1 C 10,6 C 10,6 C 10,0 C 89 % 17 cb 1004,7 hPa 0,0 l/m 12,5 km/h (2 Bft) W-NW 295 0 min 0,000 mm 112 W/m 6,9 C 4,6 C 27,4 km/h (5 Bft)
25.04.2018 13:19 8,6 C 11,1 C 10,6 C 10,6 C 10,0 C 89 % 17 cb 1004,7 hPa 0,0 l/m 10,1 km/h (2 Bft) W-NW 288 0 min 0,000 mm 117 W/m 6,9 C 6,0 C 16,1 km/h (3 Bft)
25.04.2018 13:18 8,7 C 11,1 C 10,6 C 10,6 C 10,0 C 89 % 17 cb 1004,7 hPa 0,0 l/m 16,5 km/h (3 Bft) W 273 0 min 0,000 mm 125 W/m 7,0 C 2,9 C 25,7 km/h (4 Bft)
25.04.2018 13:17 8,7 C 11,1 C 10,6 C 10,6 C 10,0 C 89 % 17 cb 1004,6 hPa 0,0 l/m 15,4 km/h (3 Bft) W-NW 300 0 min 0,000 mm 133 W/m 7,0 C 3,4 C 29,0 km/h (5 Bft)
25.04.2018 13:16 8,7 C 11,1 C 10,6 C 10,6 C 10,0 C 89 % 17 cb 1004,6 hPa 0,0 l/m 16,5 km/h (3 Bft) W-NW 284 0 min 0,000 mm 122 W/m 7,0 C 2,9 C 30,6 km/h (5 Bft)
25.04.2018 13:15 8,7 C 11,1 C 10,6 C 10,6 C 10,0 C 89 % 17 cb 1004,6 hPa 0,0 l/m 11,7 km/h (2 Bft) W 276 0 min 0,000 mm 122 W/m 7,0 C 5,2 C 20,9 km/h (4 Bft)
25.04.2018 13:14 8,7 C 11,1 C 10,6 C 10,6 C 10,0 C 89 % 17 cb 1004,5 hPa 0,0 l/m 17,4 km/h (3 Bft) W 277 0 min 0,000 mm 133 W/m 7,0 C 2,6 C 25,7 km/h (4 Bft)
25.04.2018 13:13 8,8 C 11,1 C 10,6 C 10,6 C 10,0 C 88 % 17 cb 1004,4 hPa 0,0 l/m 16,7 km/h (3 Bft) NW 315 0 min 0,000 mm 146 W/m 6,9 C 3,0 C 27,4 km/h (5 Bft)
25.04.2018 13:12 8,9 C 11,1 C 10,6 C 10,6 C 10,0 C 89 % 17 cb 1004,3 hPa 0,0 l/m 18,4 km/h (3 Bft) W-NW 297 0 min 0,000 mm 171 W/m 7,2 C 2,4 C 27,4 km/h (5 Bft)
25.04.2018 13:11 9,0 C 11,1 C 10,6 C 10,6 C 10,0 C 89 % 17 cb 1004,5 hPa 0,0 l/m 27,9 km/h (5 Bft) N-NO 29 0 min 0,000 mm 184 W/m 7,3 C -0,3 C 41,8 km/h (6 Bft)
25.04.2018 13:10 9,2 C 11,1 C 10,6 C 10,6 C 10,0 C 88 % 17 cb 1004,2 hPa 0,0 l/m 25,7 km/h (4 Bft) N-NW 327 0 min 0,000 mm 219 W/m 7,3 C 0,6 C 38,6 km/h (6 Bft)
25.04.2018 13:09 9,3 C 11,1 C 10,6 C 10,6 C 10,0 C 88 % 17 cb 1004,1 hPa 0,0 l/m 24,9 km/h (4 Bft) NW 308 0 min 0,000 mm 234 W/m 7,4 C 0,9 C 45,1 km/h (6 Bft)
25.04.2018 13:08 9,4 C 11,1 C 10,6 C 10,6 C 10,0 C 88 % 17 cb 1004,1 hPa 0,0 l/m 24,3 km/h (4 Bft) NW 318 0 min 0,000 mm 244 W/m 7,5 C 1,2 C 35,4 km/h (5 Bft)
25.04.2018 13:07 9,7 C 11,1 C 10,6 C 10,6 C 10,0 C 89 % 17 cb 1004,0 hPa 0,0 l/m 20,9 km/h (4 Bft) N-NW 348 0 min 0,000 mm 213 W/m 8,0 C 2,6 C 33,8 km/h (5 Bft)
25.04.2018 13:06 9,8 C 11,1 C 10,6 C 10,6 C 10,0 C 89 % 17 cb 1004,0 hPa 0,0 l/m 23,4 km/h (4 Bft) N-NW 331 0 min 0,000 mm 192 W/m 8,1 C 2,0 C 35,4 km/h (5 Bft)
25.04.2018 13:05 10,1 C 11,1 C 10,6 C 10,6 C 10,0 C 90 % 17 cb 1003,9 hPa 0,0 l/m 24,0 km/h (4 Bft) N-NO 13 0 min 0,000 mm 198 W/m 8,5 C 2,2 C 43,5 km/h (6 Bft)
25.04.2018 13:04 10,2 C 11,1 C 10,6 C 10,6 C 10,0 C 90 % 17 cb 1003,7 hPa 0,0 l/m 19,9 km/h (4 Bft) N-NO 31 0 min 0,000 mm 204 W/m 8,6 C 3,6 C 30,6 km/h (5 Bft)
25.04.2018 13:03 10,2 C 11,1 C 10,6 C 10,6 C 10,0 C 90 % 17 cb 1003,6 hPa 0,0 l/m 16,0 km/h (3 Bft) W-SW 238 0 min 0,000 mm 153 W/m 8,6 C 5,0 C 32,2 km/h (5 Bft)
25.04.2018 13:02 10,2 C 11,1 C 10,6 C 10,6 C 10,0 C 90 % 17 cb 1003,6 hPa 0,0 l/m 13,0 km/h (3 Bft) W-NW 292 0 min 0,000 mm 106 W/m 8,6 C 6,3 C 19,3 km/h (3 Bft)
25.04.2018 13:01 10,2 C 11,1 C 10,6 C 10,6 C 10,0 C 90 % 17 cb 1003,5 hPa 0,0 l/m 13,9 km/h (3 Bft) W-SW 253 0 min 0,077 mm 120 W/m 8,6 C 5,8 C 20,9 km/h (4 Bft)
25.04.2018 13:00 10,1 C 11,1 C 10,6 C 10,6 C 10,0 C 90 % 17 cb 1003,4 hPa 0,0 l/m 14,6 km/h (3 Bft) W-NW 302 0 min 0,000 mm 120 W/m 8,5 C 5,4 C 20,9 km/h (4 Bft)
25.04.2018 12:59 10,2 C 11,1 C 10,6 C 10,6 C 10,0 C 90 % 17 cb 1003,5 hPa 0,0 l/m 18,9 km/h (3 Bft) W 265 0 min 0,000 mm 120 W/m 8,6 C 3,9 C 25,7 km/h (4 Bft)
25.04.2018 12:58 10,1 C 11,1 C 10,6 C 10,6 C 10,0 C 90 % 17 cb 1003,3 hPa 0,0 l/m 12,8 km/h (3 Bft) W 261 0 min 0,000 mm 139 W/m 8,5 C 6,2 C 19,3 km/h (3 Bft)
25.04.2018 12:57 10,1 C 11,1 C 10,6 C 10,6 C 10,0 C 90 % 17 cb 1003,3 hPa 0,0 l/m 16,9 km/h (3 Bft) NW 306 0 min 0,000 mm 155 W/m 8,5 C 4,5 C 24,1 km/h (4 Bft)
25.04.2018 12:56 10,1 C 11,1 C 10,6 C 10,6 C 10,0 C 90 % 17 cb 1003,3 hPa 0,0 l/m 12,1 km/h (2 Bft) NW 304 0 min 0,000 mm 142 W/m 8,5 C 6,6 C 20,9 km/h (4 Bft)
25.04.2018 12:55 10,1 C 11,1 C 10,6 C 10,6 C 10,0 C 90 % 17 cb 1003,2 hPa 0,0 l/m 15,1 km/h (3 Bft) NW 317 0 min 0,000 mm 130 W/m 8,5 C 5,2 C 20,9 km/h (4 Bft)
25.04.2018 12:54 10,0 C 11,1 C 10,6 C 10,6 C 10,0 C 90 % 17 cb 1003,1 hPa 0,0 l/m 14,8 km/h (3 Bft) W-SW 246 0 min 0,000 mm 144 W/m 8,4 C 5,2 C 27,4 km/h (5 Bft)
25.04.2018 12:53 10,0 C 11,1 C 10,6 C 10,6 C 10,0 C 90 % 17 cb 1003,2 hPa 0,0 l/m 14,8 km/h (3 Bft) W-NW 288 0 min 0,000 mm 165 W/m 8,4 C 5,2 C 29,0 km/h (5 Bft)
25.04.2018 12:52 10,0 C 11,1 C 10,6 C 10,6 C 10,0 C 90 % 17 cb 1003,1 hPa 0,0 l/m 14,6 km/h (3 Bft) NW 306 0 min 0,000 mm 142 W/m 8,4 C 5,3 C 25,7 km/h (4 Bft)
25.04.2018 12:51 10,0 C 11,1 C 10,6 C 10,6 C 10,0 C 90 % 17 cb 1003,1 hPa 0,0 l/m 14,8 km/h (3 Bft) W 276 0 min 0,000 mm 107 W/m 8,4 C 5,2 C 24,1 km/h (4 Bft)
25.04.2018 12:50 10,0 C 11,1 C 10,6 C 10,6 C 10,0 C 90 % 17 cb 1003,1 hPa 0,0 l/m 15,3 km/h (3 Bft) W 267 0 min 0,000 mm 82 W/m 8,4 C 5,0 C 25,7 km/h (4 Bft)
25.04.2018 12:49 10,1 C 11,1 C 10,6 C 10,6 C 10,0 C 90 % 17 cb 1003,0 hPa 0,0 l/m 13,8 km/h (3 Bft) W-SW 248 0 min 0,000 mm 69 W/m 8,5 C 5,8 C 29,0 km/h (5 Bft)
25.04.2018 12:48 10,1 C 11,1 C 10,6 C 10,6 C 10,0 C 90 % 17 cb 1003,0 hPa 0,0 l/m 11,7 km/h (2 Bft) W-NW 284 0 min 0,000 mm 56 W/m 8,5 C 6,8 C 20,9 km/h (4 Bft)
25.04.2018 12:47 10,1 C 11,1 C 10,6 C 10,6 C 10,0 C 90 % 17 cb 1003,0 hPa 0,0 l/m 18,5 km/h (3 Bft) SW 229 0 min 0,000 mm 53 W/m 8,5 C 3,9 C 30,6 km/h (5 Bft)
25.04.2018 12:46 10,1 C 11,1 C 10,6 C 10,6 C 10,0 C 90 % 17 cb 1003,0 hPa 0,0 l/m 15,2 km/h (3 Bft) W-SW 240 0 min 0,000 mm 54 W/m 8,5 C 5,2 C 25,7 km/h (4 Bft)
25.04.2018 12:45 10,1 C 11,1 C 10,6 C 10,6 C 10,0 C 91 % 17 cb 1002,9 hPa 0,0 l/m 12,9 km/h (3 Bft) W-SW 248 0 min 0,000 mm 63 W/m 8,7 C 6,2 C 22,5 km/h (4 Bft)
25.04.2018 12:44 10,2 C 11,1 C 10,6 C 10,6 C 10,0 C 91 % 17 cb 1002,9 hPa 0,0 l/m 12,1 km/h (2 Bft) W-NW 290 0 min 0,000 mm 66 W/m 8,8 C 6,7 C 24,1 km/h (4 Bft)
25.04.2018 12:43 10,2 C 11,1 C 10,6 C 10,6 C 10,0 C 91 % 17 cb 1002,9 hPa 0,0 l/m 17,3 km/h (3 Bft) W 259 0 min 0,000 mm 63 W/m 8,8 C 4,5 C 27,4 km/h (5 Bft)
25.04.2018 12:42 10,2 C 11,1 C 10,6 C 10,6 C 10,0 C 91 % 17 cb 1002,9 hPa 0,0 l/m 14,4 km/h (3 Bft) N-NW 329 0 min 0,000 mm 70 W/m 8,8 C 5,6 C 22,5 km/h (4 Bft)
25.04.2018 12:41 10,2 C 11,1 C 10,6 C 10,6 C 10,0 C 91 % 17 cb 1002,8 hPa 0,0 l/m 8,4 km/h (2 Bft) SW 214 0 min 0,000 mm 83 W/m 8,8 C 8,8 C 12,9 km/h (3 Bft)
25.04.2018 12:40 10,2 C 11,1 C 10,6 C 10,6 C 10,0 C 91 % 17 cb 1002,7 hPa 0,0 l/m 11,1 km/h (2 Bft) W-NW 285 0 min 0,000 mm 74 W/m 8,8 C 7,2 C 17,7 km/h (3 Bft)
25.04.2018 12:39 10,2 C 11,1 C 10,6 C 10,6 C 10,0 C 91 % 17 cb 1002,8 hPa 0,0 l/m 9,7 km/h (2 Bft) W-SW 237 0 min 0,000 mm 90 W/m 8,8 C 8,0 C 17,7 km/h (3 Bft)
25.04.2018 12:38 10,2 C 11,1 C 10,6 C 10,6 C 10,0 C 91 % 17 cb 1002,8 hPa 0,0 l/m 11,4 km/h (2 Bft) W 281 0 min 0,000 mm 94 W/m 8,8 C 7,1 C 20,9 km/h (4 Bft)
25.04.2018 12:37 10,2 C 11,1 C 10,6 C 10,6 C 10,0 C 91 % 17 cb 1002,7 hPa 0,0 l/m 12,5 km/h (2 Bft) NW 305 0 min 0,000 mm 102 W/m 8,8 C 6,5 C 19,3 km/h (3 Bft)
25.04.2018 12:36 10,2 C 11,1 C 10,6 C 10,6 C 10,0 C 91 % 17 cb 1002,7 hPa 0,0 l/m 9,7 km/h (2 Bft) W 271 0 min 0,000 mm 122 W/m 8,8 C 8,0 C 19,3 km/h (3 Bft)
25.04.2018 12:35 10,2 C 11,1 C 10,6 C 10,6 C 10,0 C 91 % 17 cb 1002,6 hPa 0,0 l/m 15,5 km/h (3 Bft) W 274 0 min 0,000 mm 127 W/m 8,8 C 5,2 C 24,1 km/h (4 Bft)
25.04.2018 12:34 10,2 C 11,1 C 10,6 C 10,6 C 10,0 C 91 % 17 cb 1002,6 hPa 0,0 l/m 11,4 km/h (2 Bft) SW 233 0 min 0,000 mm 138 W/m 8,8 C 7,1 C 20,9 km/h (4 Bft)
25.04.2018 12:33 10,2 C 11,1 C 10,6 C 10,6 C 10,0 C 91 % 17 cb 1002,6 hPa 0,0 l/m 11,1 km/h (2 Bft) NW 306 0 min 0,000 mm 170 W/m 8,8 C 7,2 C 17,7 km/h (3 Bft)
25.04.2018 12:32 10,1 C 11,1 C 10,6 C 10,6 C 10,0 C 90 % 17 cb 1002,5 hPa 0,0 l/m 12,2 km/h (2 Bft) SW 221 0 min 0,000 mm 189 W/m 8,5 C 6,5 C 20,9 km/h (4 Bft)
25.04.2018 12:31 10,1 C 11,1 C 10,6 C 10,6 C 10,0 C 90 % 17 cb 1002,5 hPa 0,0 l/m 18,4 km/h (3 Bft) W 267 0 min 0,000 mm 207 W/m 8,5 C 4,0 C 32,2 km/h (5 Bft)
25.04.2018 12:30 10,1 C 11,1 C 10,6 C 10,6 C 10,0 C 90 % 17 cb 1002,5 hPa 0,0 l/m 15,2 km/h (3 Bft) W 263 0 min 0,000 mm 180 W/m 8,5 C 5,2 C 25,7 km/h (4 Bft)
25.04.2018 12:29 10,1 C 11,1 C 10,6 C 10,6 C 10,0 C 90 % 17 cb 1002,5 hPa 0,0 l/m 15,1 km/h (3 Bft) SW 215 0 min 0,000 mm 194 W/m 8,5 C 5,2 C 25,7 km/h (4 Bft)
25.04.2018 12:28 10,1 C 11,1 C 10,6 C 10,6 C 10,0 C 90 % 17 cb 1002,4 hPa 0,0 l/m 18,2 km/h (3 Bft) O-NO 77 0 min 0,000 mm 200 W/m 8,5 C 4,0 C 37,0 km/h (5 Bft)
25.04.2018 12:27 10,1 C 11,1 C 10,6 C 10,6 C 10,0 C 90 % 17 cb 1002,4 hPa 0,0 l/m 18,8 km/h (3 Bft) W 269 0 min 0,000 mm 123 W/m 8,5 C 3,8 C 25,7 km/h (4 Bft)
25.04.2018 12:26 10,1 C 11,1 C 10,6 C 10,6 C 10,0 C 90 % 17 cb 1002,4 hPa 0,0 l/m 22,0 km/h (4 Bft) SW 221 0 min 0,000 mm 87 W/m 8,5 C 2,8 C 30,6 km/h (5 Bft)
25.04.2018 12:25 10,1 C 11,1 C 10,6 C 10,6 C 10,0 C 90 % 17 cb 1002,5 hPa 0,0 l/m 19,7 km/h (3 Bft) W 268 0 min 0,000 mm 83 W/m 8,5 C 3,5 C 25,7 km/h (4 Bft)
25.04.2018 12:24 10,2 C 11,1 C 10,6 C 10,6 C 10,0 C 90 % 17 cb 1002,4 hPa 0,0 l/m 18,0 km/h (3 Bft) W 270 0 min 0,000 mm 85 W/m 8,6 C 4,2 C 24,1 km/h (4 Bft)
25.04.2018 12:23 10,2 C 11,1 C 10,6 C 10,6 C 10,0 C 90 % 17 cb 1002,5 hPa 0,0 l/m 11,1 km/h (2 Bft) SW 220 0 min 0,000 mm 93 W/m 8,6 C 7,2 C 14,5 km/h (3 Bft)
25.04.2018 12:22 10,2 C 11,1 C 10,6 C 10,6 C 10,0 C 89 % 17 cb 1002,4 hPa 0,0 l/m 9,5 km/h (2 Bft) S-SW 213 0 min 0,000 mm 86 W/m 8,5 C 8,1 C 19,3 km/h (3 Bft)
25.04.2018 12:21 10,2 C 11,1 C 10,6 C 10,6 C 10,0 C 89 % 17 cb 1002,3 hPa 0,0 l/m 13,5 km/h (3 Bft) S-SO 164 0 min 0,000 mm 88 W/m 8,5 C 6,0 C 27,4 km/h (5 Bft)
25.04.2018 12:20 10,2 C 11,1 C 10,6 C 10,6 C 10,0 C 89 % 17 cb 1002,4 hPa 0,0 l/m 12,0 km/h (2 Bft) W-NW 286 0 min 0,000 mm 94 W/m 8,5 C 6,7 C 20,9 km/h (4 Bft)
25.04.2018 12:19 10,3 C 11,1 C 10,6 C 10,6 C 10,0 C 89 % 17 cb 1002,4 hPa 0,0 l/m 16,0 km/h (3 Bft) S-SW 203 0 min 0,000 mm 96 W/m 8,6 C 5,1 C 22,5 km/h (4 Bft)
25.04.2018 12:18 10,3 C 11,1 C 10,6 C 10,6 C 10,0 C 89 % 17 cb 1002,4 hPa 0,0 l/m 19,1 km/h (3 Bft) W-SW 238 0 min 0,000 mm 97 W/m 8,6 C 4,0 C 29,0 km/h (5 Bft)
25.04.2018 12:17 10,3 C 11,1 C 10,6 C 10,6 C 10,0 C 89 % 17 cb 1002,4 hPa 0,0 l/m 12,8 km/h (3 Bft) SW 228 0 min 0,000 mm 98 W/m 8,6 C 6,5 C 20,9 km/h (4 Bft)
25.04.2018 12:16 10,3 C 11,1 C 10,6 C 10,6 C 10,0 C 89 % 17 cb 1002,4 hPa 0,0 l/m 7,8 km/h (2 Bft) W-SW 240 0 min 0,000 mm 101 W/m 8,6 C 9,3 C 16,1 km/h (3 Bft)
25.04.2018 12:15 10,3 C 11,1 C 10,6 C 10,6 C 10,0 C 89 % 17 cb 1002,4 hPa 0,0 l/m 10,9 km/h (2 Bft) SW 225 0 min 0,000 mm 108 W/m 8,6 C 7,4 C 20,9 km/h (4 Bft)
25.04.2018 12:14 10,3 C 11,1 C 10,6 C 10,6 C 10,0 C 89 % 17 cb 1002,4 hPa 0,0 l/m 10,9 km/h (2 Bft) S 174 0 min 0,000 mm 125 W/m 8,6 C 7,4 C 19,3 km/h (3 Bft)
25.04.2018 12:13 10,3 C 11,1 C 10,6 C 10,6 C 10,0 C 88 % 17 cb 1002,3 hPa 0,0 l/m 13,0 km/h (3 Bft) W-SW 246 0 min 0,000 mm 131 W/m 8,4 C 6,4 C 24,1 km/h (4 Bft)
25.04.2018 12:12 10,3 C 11,1 C 10,6 C 10,6 C 10,0 C 88 % 17 cb 1002,3 hPa 0,0 l/m 9,7 km/h (2 Bft) N 5 0 min 0,000 mm 128 W/m 8,4 C 8,1 C 16,1 km/h (3 Bft)
25.04.2018 12:11 10,3 C 11,1 C 10,6 C 10,6 C 10,0 C 88 % 17 cb 1002,3 hPa 0,0 l/m 17,8 km/h (3 Bft) SW 236 0 min 0,000 mm 136 W/m 8,4 C 4,4 C 38,6 km/h (6 Bft)
25.04.2018 12:10 10,3 C 11,1 C 10,6 C 10,6 C 10,0 C 88 % 17 cb 1002,2 hPa 0,0 l/m 14,0 km/h (3 Bft) W-NW 288 0 min 0,000 mm 153 W/m 8,4 C 5,9 C 22,5 km/h (4 Bft)
25.04.2018 12:09 10,4 C 11,1 C 10,6 C 10,6 C 10,0 C 88 % 17 cb 1002,2 hPa 0,0 l/m 16,8 km/h (3 Bft) W 273 0 min 0,000 mm 157 W/m 8,5 C 4,9 C 32,2 km/h (5 Bft)
25.04.2018 12:08 10,4 C 11,1 C 10,6 C 10,6 C 10,0 C 88 % 17 cb 1002,2 hPa 0,0 l/m 18,0 km/h (3 Bft) SW 233 0 min 0,000 mm 174 W/m 8,5 C 4,5 C 30,6 km/h (5 Bft)
25.04.2018 12:07 10,4 C 11,1 C 10,6 C 10,6 C 10,0 C 88 % 17 cb 1002,1 hPa 0,0 l/m 13,5 km/h (3 Bft) W 259 0 min 0,000 mm 178 W/m 8,5 C 6,3 C 20,9 km/h (4 Bft)
25.04.2018 12:06 10,4 C 11,1 C 10,6 C 10,6 C 10,0 C 88 % 17 cb 1002,1 hPa 0,0 l/m 16,9 km/h (3 Bft) SW 221 0 min 0,000 mm 156 W/m 8,5 C 4,9 C 43,5 km/h (6 Bft)
25.04.2018 12:05 10,4 C 11,1 C 10,6 C 10,6 C 10,0 C 87 % 17 cb 1002,1 hPa 0,0 l/m 15,1 km/h (3 Bft) SW 215 0 min 0,000 mm 139 W/m 8,3 C 5,6 C 24,1 km/h (4 Bft)
25.04.2018 12:04 10,4 C 11,1 C 10,6 C 10,6 C 10,0 C 87 % 17 cb 1002,0 hPa 0,0 l/m 19,2 km/h (3 Bft) SW 221 0 min 0,000 mm 156 W/m 8,3 C 4,1 C 25,7 km/h (4 Bft)
25.04.2018 12:03 10,4 C 11,1 C 10,6 C 10,6 C 10,0 C 87 % 17 cb 1002,0 hPa 0,0 l/m 19,4 km/h (3 Bft) S-SW 210 0 min 0,000 mm 208 W/m 8,3 C 4,0 C 35,4 km/h (5 Bft)
25.04.2018 12:02 10,4 C 11,1 C 10,6 C 10,6 C 10,0 C 87 % 17 cb 1002,0 hPa 0,0 l/m 10,8 km/h (2 Bft) SW 223 0 min 0,000 mm 225 W/m 8,3 C 7,6 C 19,3 km/h (3 Bft)
25.04.2018 12:01 10,4 C 11,1 C 10,6 C 10,6 C 10,0 C 86 % 17 cb 1002,0 hPa 0,0 l/m 11,7 km/h (2 Bft) W 267 0 min 0,076 mm 207 W/m 8,2 C 7,1 C 16,1 km/h (3 Bft)
25.04.2018 12:00 10,5 C 11,1 C 10,6 C 10,6 C 10,0 C 86 % 17 cb 1002,0 hPa 0,0 l/m 18,4 km/h (3 Bft) W 278 0 min 0,000 mm 129 W/m 8,3 C 4,5 C 30,6 km/h (5 Bft)
25.04.2018 11:59 10,6 C 11,1 C 10,6 C 10,6 C 10,0 C 86 % 17 cb 1001,9 hPa 0,0 l/m 24,8 km/h (4 Bft) W-SW 238 0 min 0,000 mm 97 W/m 8,4 C 2,7 C 33,8 km/h (5 Bft)
25.04.2018 11:58 10,6 C 11,1 C 10,6 C 10,6 C 10,0 C 86 % 17 cb 1002,1 hPa 0,0 l/m 18,1 km/h (3 Bft) W-SW 238 0 min 0,000 mm 100 W/m 8,4 C 4,7 C 29,0 km/h (5 Bft)
25.04.2018 11:57 10,7 C 11,1 C 10,6 C 10,6 C 10,0 C 86 % 17 cb 1001,9 hPa 0,0 l/m 28,7 km/h (5 Bft) N-NW 335 0 min 0,000 mm 104 W/m 8,5 C 1,9 C 53,1 km/h (7 Bft)
25.04.2018 11:56 10,7 C 11,1 C 10,6 C 10,6 C 10,0 C 86 % 17 cb 1001,9 hPa 0,0 l/m 12,5 km/h (2 Bft) S-SW 198 0 min 0,000 mm 92 W/m 8,5 C 7,1 C 20,9 km/h (4 Bft)
25.04.2018 11:55 10,7 C 11,1 C 10,6 C 10,6 C 10,0 C 86 % 17 cb 1002,0 hPa 0,0 l/m 20,6 km/h (4 Bft) SW 224 0 min 0,000 mm 108 W/m 8,5 C 4,0 C 35,4 km/h (5 Bft)
25.04.2018 11:54 10,8 C 11,1 C 10,6 C 10,6 C 10,0 C 85 % 17 cb 1001,8 hPa 0,0 l/m 18,5 km/h (3 Bft) SW 236 0 min 0,000 mm 141 W/m 8,4 C 4,8 C 30,6 km/h (5 Bft)
25.04.2018 11:53 10,8 C 11,1 C 10,6 C 10,6 C 10,0 C 85 % 17 cb 1001,9 hPa 0,0 l/m 14,5 km/h (3 Bft) W-SW 237 0 min 0,000 mm 115 W/m 8,4 C 6,3 C 29,0 km/h (5 Bft)
25.04.2018 11:52 10,8 C 11,1 C 10,6 C 10,6 C 10,0 C 85 % 17 cb 1001,9 hPa 0,0 l/m 20,8 km/h (4 Bft) SW 236 0 min 0,000 mm 108 W/m 8,4 C 4,1 C 33,8 km/h (5 Bft)
25.04.2018 11:51 10,9 C 11,1 C 10,6 C 10,6 C 10,0 C 85 % 17 cb 1001,9 hPa 0,0 l/m 20,2 km/h (4 Bft) W-SW 256 0 min 0,000 mm 92 W/m 8,5 C 4,4 C 33,8 km/h (5 Bft)
25.04.2018 11:50 10,9 C 11,1 C 10,6 C 10,6 C 10,0 C 85 % 17 cb 1001,7 hPa 0,0 l/m 15,6 km/h (3 Bft) W 275 0 min 0,000 mm 72 W/m 8,5 C 6,0 C 25,7 km/h (4 Bft)
25.04.2018 11:49 10,9 C 11,1 C 10,6 C 10,6 C 10,0 C 85 % 17 cb 1001,7 hPa 0,0 l/m 16,6 km/h (3 Bft) W 269 0 min 0,000 mm 63 W/m 8,5 C 5,6 C 24,1 km/h (4 Bft)
25.04.2018 11:48 11,0 C 11,1 C 10,6 C 10,6 C 10,0 C 85 % 17 cb 1001,7 hPa 0,0 l/m 16,7 km/h (3 Bft) W 269 0 min 0,000 mm 64 W/m 8,6 C 5,7 C 27,4 km/h (5 Bft)
25.04.2018 11:47 11,1 C 11,1 C 10,6 C 10,6 C 10,0 C 84 % 17 cb 1001,6 hPa 0,0 l/m 23,2 km/h (4 Bft) W-SW 241 0 min 0,000 mm 55 W/m 8,5 C 3,8 C 35,4 km/h (5 Bft)
25.04.2018 11:46 11,1 C 11,1 C 10,6 C 10,6 C 10,0 C 84 % 17 cb 1001,6 hPa 0,0 l/m 23,9 km/h (4 Bft) SW 232 0 min 0,000 mm 51 W/m 8,5 C 3,6 C 37,0 km/h (5 Bft)
25.04.2018 11:45 11,1 C 11,1 C 10,6 C 10,6 C 10,0 C 84 % 17 cb 1001,7 hPa 0,0 l/m 11,7 km/h (2 Bft) W 276 0 min 0,000 mm 51 W/m 8,5 C 7,9 C 19,3 km/h (3 Bft)
25.04.2018 11:44 11,2 C 11,1 C 10,6 C 10,6 C 10,0 C 84 % 17 cb 1001,7 hPa 0,0 l/m 16,2 km/h (3 Bft) SW 220 0 min 0,000 mm 50 W/m 8,6 C 6,1 C 24,1 km/h (4 Bft)
25.04.2018 11:43 11,2 C 11,1 C 10,6 C 10,6 C 10,0 C 84 % 17 cb 1001,7 hPa 0,0 l/m 16,4 km/h (3 Bft) S 176 0 min 0,000 mm 53 W/m 8,6 C 6,1 C 32,2 km/h (5 Bft)
25.04.2018 11:42 11,3 C 11,1 C 10,6 C 10,6 C 10,0 C 84 % 17 cb 1001,6 hPa 0,0 l/m 21,6 km/h (4 Bft) W-SW 239 0 min 0,000 mm 60 W/m 8,7 C 4,5 C 29,0 km/h (5 Bft)
25.04.2018 11:41 11,3 C 11,1 C 10,6 C 10,6 C 10,0 C 84 % 17 cb 1001,7 hPa 0,0 l/m 19,7 km/h (3 Bft) SW 222 0 min 0,000 mm 60 W/m 8,7 C 5,1 C 30,6 km/h (5 Bft)
25.04.2018 11:40 11,3 C 11,1 C 10,6 C 10,6 C 10,0 C 84 % 17 cb 1001,6 hPa 0,0 l/m 12,2 km/h (2 Bft) W 259 0 min 0,000 mm 64 W/m 8,7 C 7,9 C 17,7 km/h (3 Bft)
25.04.2018 11:39 11,4 C 11,1 C 10,6 C 10,6 C 10,0 C 84 % 17 cb 1001,5 hPa 0,0 l/m 19,5 km/h (3 Bft) SW 229 0 min 0,000 mm 71 W/m 8,8 C 5,3 C 30,6 km/h (5 Bft)
25.04.2018 11:38 11,4 C 11,1 C 10,6 C 10,6 C 10,0 C 84 % 17 cb 1001,6 hPa 0,0 l/m 18,2 km/h (3 Bft) W 269 0 min 0,000 mm 75 W/m 8,8 C 5,7 C 25,7 km/h (4 Bft)
25.04.2018 11:37 11,4 C 11,1 C 10,6 C 10,6 C 10,0 C 84 % 17 cb 1001,5 hPa 0,0 l/m 11,3 km/h (2 Bft) SW 232 0 min 0,000 mm 86 W/m 8,8 C 8,5 C 24,1 km/h (4 Bft)
25.04.2018 11:36 11,5 C 11,1 C 10,6 C 10,6 C 10,0 C 84 % 17 cb 1001,6 hPa 0,0 l/m 20,0 km/h (4 Bft) S-SW 211 0 min 0,000 mm 102 W/m 8,9 C 5,2 C 29,0 km/h (5 Bft)
25.04.2018 11:35 11,6 C 11,1 C 10,6 C 10,6 C 10,0 C 84 % 17 cb 1001,6 hPa 0,0 l/m 14,6 km/h (3 Bft) SW 230 0 min 0,000 mm 105 W/m 9,0 C 7,2 C 29,0 km/h (5 Bft)
25.04.2018 11:34 11,6 C 11,1 C 10,6 C 10,6 C 10,0 C 84 % 17 cb 1001,5 hPa 0,0 l/m 14,8 km/h (3 Bft) W-SW 242 0 min 0,000 mm 128 W/m 9,0 C 7,2 C 25,7 km/h (4 Bft)
25.04.2018 11:33 11,6 C 11,1 C 10,6 C 10,6 C 10,0 C 84 % 17 cb 1001,5 hPa 0,0 l/m 11,9 km/h (2 Bft) SW 228 0 min 0,000 mm 140 W/m 9,0 C 8,4 C 20,9 km/h (4 Bft)
25.04.2018 11:32 11,6 C 11,1 C 10,6 C 10,6 C 10,0 C 84 % 17 cb 1001,5 hPa 0,0 l/m 16,7 km/h (3 Bft) W-NW 303 0 min 0,000 mm 165 W/m 9,0 C 6,4 C 30,6 km/h (5 Bft)
25.04.2018 11:31 11,6 C 11,1 C 10,6 C 10,6 C 10,0 C 84 % 17 cb 1001,4 hPa 0,0 l/m 19,2 km/h (3 Bft) W-SW 242 0 min 0,000 mm 169 W/m 9,0 C 5,6 C 30,6 km/h (5 Bft)
25.04.2018 11:30 11,6 C 11,1 C 10,6 C 10,6 C 10,0 C 84 % 17 cb 1001,4 hPa 0,0 l/m 15,8 km/h (3 Bft) W 270 0 min 0,000 mm 167 W/m 9,0 C 6,8 C 29,0 km/h (5 Bft)
25.04.2018 11:29 11,7 C 11,1 C 10,6 C 10,6 C 10,0 C 84 % 17 cb 1001,3 hPa 0,0 l/m 18,9 km/h (3 Bft) W 276 0 min 0,000 mm 191 W/m 9,1 C 5,8 C 30,6 km/h (5 Bft)
25.04.2018 11:28 11,7 C 11,1 C 10,6 C 10,6 C 10,0 C 84 % 17 cb 1001,5 hPa 0,0 l/m 17,6 km/h (3 Bft) W 280 0 min 0,000 mm 218 W/m 9,1 C 6,2 C 29,0 km/h (5 Bft)
25.04.2018 11:27 11,7 C 11,1 C 10,6 C 10,6 C 10,0 C 85 % 17 cb 1001,3 hPa 0,0 l/m 14,1 km/h (3 Bft) W 277 0 min 0,000 mm 233 W/m 9,3 C 7,6 C 22,5 km/h (4 Bft)
25.04.2018 11:26 11,7 C 11,1 C 10,6 C 10,6 C 10,0 C 85 % 17 cb 1001,3 hPa 0,0 l/m 12,9 km/h (3 Bft) S-SW 211 0 min 0,000 mm 230 W/m 9,3 C 8,1 C 25,7 km/h (4 Bft)
25.04.2018 11:25 11,7 C 11,1 C 10,6 C 10,6 C 10,0 C 85 % 17 cb 1001,2 hPa 0,0 l/m 19,1 km/h (3 Bft) S 189 0 min 0,000 mm 232 W/m 9,3 C 5,8 C 27,4 km/h (5 Bft)
25.04.2018 11:24 11,7 C 11,1 C 10,6 C 10,6 C 10,0 C 84 % 17 cb 1001,2 hPa 0,0 l/m 15,1 km/h (3 Bft) W 261 0 min 0,000 mm 211 W/m 9,1 C 7,2 C 24,1 km/h (4 Bft)
25.04.2018 11:23 11,7 C 11,1 C 10,6 C 10,6 C 10,0 C 84 % 17 cb 1001,2 hPa 0,0 l/m 12,8 km/h (3 Bft) SW 224 0 min 0,000 mm 204 W/m 9,1 C 8,1 C 20,9 km/h (4 Bft)
25.04.2018 11:22 11,7 C 11,1 C 10,6 C 10,6 C 10,0 C 84 % 17 cb 1001,2 hPa 0,0 l/m 18,4 km/h (3 Bft) W-SW 249 0 min 0,000 mm 165 W/m 9,1 C 6,0 C 27,4 km/h (5 Bft)
25.04.2018 11:21 11,8 C 11,1 C 10,6 C 10,6 C 10,0 C 84 % 17 cb 1001,2 hPa 0,0 l/m 22,1 km/h (4 Bft) SW 236 0 min 0,000 mm 112 W/m 9,2 C 5,0 C 40,2 km/h (6 Bft)
25.04.2018 11:20 11,8 C 11,1 C 10,6 C 10,6 C 10,0 C 84 % 17 cb 1001,2 hPa 0,0 l/m 13,0 km/h (3 Bft) W 273 0 min 0,000 mm 90 W/m 9,2 C 8,1 C 25,7 km/h (4 Bft)
25.04.2018 11:19 11,9 C 11,1 C 10,6 C 10,6 C 10,0 C 84 % 17 cb 1001,1 hPa 0,0 l/m 26,0 km/h (4 Bft) SW 226 0 min 0,000 mm 60 W/m 9,3 C 4,2 C 40,2 km/h (6 Bft)
25.04.2018 11:18 12,0 C 11,1 C 10,6 C 10,6 C 10,0 C 84 % 17 cb 1001,2 hPa 0,0 l/m 17,3 km/h (3 Bft) SW 230 0 min 0,000 mm 40 W/m 9,4 C 6,7 C 27,4 km/h (5 Bft)
25.04.2018 11:17 12,0 C 11,1 C 10,6 C 10,6 C 10,0 C 84 % 17 cb 1001,0 hPa 0,0 l/m 27,4 km/h (5 Bft) W 263 0 min 0,000 mm 42 W/m 9,4 C 4,0 C 41,8 km/h (6 Bft)
25.04.2018 11:16 12,1 C 11,1 C 10,6 C 10,6 C 10,0 C 84 % 17 cb 1000,9 hPa 0,0 l/m 26,5 km/h (4 Bft) SW 229 0 min 0,000 mm 44 W/m 9,5 C 4,3 C 40,2 km/h (6 Bft)
25.04.2018 11:15 12,1 C 11,1 C 10,6 C 10,6 C 10,0 C 84 % 17 cb 1000,8 hPa 0,0 l/m 20,5 km/h (4 Bft) SW 226 0 min 0,000 mm 47 W/m 9,5 C 5,9 C 38,6 km/h (6 Bft)
25.04.2018 11:14 12,1 C 11,1 C 10,6 C 10,6 C 10,0 C 84 % 17 cb 1000,8 hPa 0,0 l/m 17,9 km/h (3 Bft) W 260 0 min 0,000 mm 47 W/m 9,5 C 6,7 C 27,4 km/h (5 Bft)
25.04.2018 11:13 12,1 C 11,1 C 10,6 C 10,6 C 10,0 C 84 % 17 cb 1000,8 hPa 0,0 l/m 19,9 km/h (4 Bft) W-NW 289 0 min 0,000 mm 46 W/m 9,5 C 6,0 C 41,8 km/h (6 Bft)
25.04.2018 11:12 12,1 C 11,1 C 10,6 C 10,6 C 10,0 C 84 % 17 cb 1000,7 hPa 0,0 l/m 19,6 km/h (3 Bft) W 261 0 min 0,000 mm 47 W/m 9,5 C 6,1 C 30,6 km/h (5 Bft)
25.04.2018 11:11 12,1 C 11,1 C 10,6 C 10,6 C 10,0 C 84 % 17 cb 1000,8 hPa 0,0 l/m 10,5 km/h (2 Bft) W-SW 258 0 min 0,000 mm 48 W/m 9,5 C 9,7 C 19,3 km/h (3 Bft)
25.04.2018 11:10 12,1 C 11,1 C 10,6 C 10,6 C 10,0 C 84 % 17 cb 1000,8 hPa 0,0 l/m 11,8 km/h (2 Bft) SW 221 0 min 0,000 mm 51 W/m 9,5 C 9,0 C 24,1 km/h (4 Bft)
25.04.2018 11:09 12,1 C 11,1 C 10,6 C 10,6 C 10,0 C 84 % 17 cb 1000,8 hPa 0,0 l/m 12,3 km/h (2 Bft) SW 221 0 min 0,000 mm 54 W/m 9,5 C 8,8 C 25,7 km/h (4 Bft)
25.04.2018 11:08 12,1 C 11,1 C 10,6 C 10,6 C 10,0 C 84 % 17 cb 1000,7 hPa 0,0 l/m 20,5 km/h (4 Bft) W-SW 242 0 min 0,000 mm 66 W/m 9,5 C 5,9 C 30,6 km/h (5 Bft)
25.04.2018 11:07 12,1 C 11,1 C 10,6 C 10,6 C 10,0 C 84 % 17 cb 1000,7 hPa 0,0 l/m 20,0 km/h (4 Bft) SW 222 0 min 0,000 mm 69 W/m 9,5 C 6,0 C 40,2 km/h (6 Bft)
25.04.2018 11:06 12,1 C 11,1 C 10,6 C 10,6 C 10,0 C 85 % 17 cb 1000,7 hPa 0,0 l/m 21,1 km/h (4 Bft) SW 223 0 min 0,000 mm 69 W/m 9,7 C 5,7 C 37,0 km/h (5 Bft)
25.04.2018 11:05 12,1 C 11,1 C 10,6 C 10,6 C 10,0 C 85 % 17 cb 1000,7 hPa 0,0 l/m 13,4 km/h (3 Bft) NO 39 0 min 0,000 mm 71 W/m 9,7 C 8,3 C 19,3 km/h (3 Bft)
25.04.2018 11:04 12,1 C 11,1 C 10,6 C 10,6 C 10,0 C 85 % 17 cb 1000,7 hPa 0,0 l/m 7,9 km/h (2 Bft) W-SW 242 0 min 0,000 mm 82 W/m 9,7 C 11,1 C 14,5 km/h (3 Bft)
25.04.2018 11:03 12,1 C 11,1 C 10,6 C 10,6 C 10,0 C 86 % 17 cb 1000,7 hPa 0,0 l/m 10,1 km/h (2 Bft) S 191 0 min 0,000 mm 83 W/m 9,8 C 9,9 C 16,1 km/h (3 Bft)
25.04.2018 11:02 12,1 C 11,1 C 10,6 C 10,6 C 10,0 C 85 % 17 cb 1000,8 hPa 0,0 l/m 11,3 km/h (2 Bft) SW 225 0 min 0,000 mm 91 W/m 9,7 C 9,3 C 20,9 km/h (4 Bft)
25.04.2018 11:01 12,1 C 11,1 C 10,6 C 10,6 C 10,0 C 85 % 17 cb 1000,8 hPa 0,0 l/m 8,2 km/h (2 Bft) W 263 0 min 0,000 mm 110 W/m 9,7 C 10,9 C 14,5 km/h (3 Bft)
25.04.2018 11:00 12,1 C 11,1 C 10,6 C 10,6 C 10,0 C 85 % 17 cb 1000,8 hPa 0,0 l/m 13,1 km/h (3 Bft) SW 221 0 min 0,076 mm 127 W/m 9,7 C 8,4 C 17,7 km/h (3 Bft)
25.04.2018 10:59 12,1 C 11,1 C 10,6 C 10,6 C 10,0 C 85 % 17 cb 1000,8 hPa 0,0 l/m 12,1 km/h (2 Bft) SW 215 0 min 0,000 mm 119 W/m 9,7 C 8,9 C 22,5 km/h (4 Bft)
25.04.2018 10:58 12,1 C 11,1 C 10,6 C 10,6 C 10,0 C 85 % 17 cb 1000,8 hPa 0,0 l/m 17,0 km/h (3 Bft) S-SW 200 0 min 0,000 mm 105 W/m 9,7 C 7,0 C 25,7 km/h (4 Bft)
25.04.2018 10:57 12,1 C 11,1 C 10,6 C 10,6 C 10,0 C 85 % 17 cb 1000,7 hPa 0,0 l/m 17,2 km/h (3 Bft) S-SW 206 0 min 0,000 mm 93 W/m 9,7 C 6,9 C 32,2 km/h (5 Bft)
25.04.2018 10:56 12,1 C 11,1 C 10,6 C 10,6 C 10,0 C 85 % 17 cb 1000,8 hPa 0,0 l/m 10,4 km/h (2 Bft) W 259 0 min 0,000 mm 104 W/m 9,7 C 9,7 C 20,9 km/h (4 Bft)
25.04.2018 10:55 12,1 C 11,1 C 10,6 C 10,6 C 10,0 C 85 % 17 cb 1000,7 hPa 0,0 l/m 15,5 km/h (3 Bft) W-SW 239 0 min 0,000 mm 142 W/m 9,7 C 7,5 C 33,8 km/h (5 Bft)
25.04.2018 10:54 12,1 C 11,1 C 10,6 C 10,6 C 10,0 C 85 % 17 cb 1000,7 hPa 0,0 l/m 19,1 km/h (3 Bft) W 260 0 min 0,000 mm 152 W/m 9,7 C 6,3 C 30,6 km/h (5 Bft)
25.04.2018 10:53 12,1 C 11,1 C 10,6 C 10,6 C 10,0 C 85 % 17 cb 1000,8 hPa 0,0 l/m 15,6 km/h (3 Bft) SW 216 0 min 0,000 mm 112 W/m 9,7 C 7,5 C 20,9 km/h (4 Bft)
25.04.2018 10:52 12,2 C 11,1 C 10,6 C 10,6 C 10,0 C 85 % 17 cb 1000,8 hPa 0,0 l/m 10,6 km/h (2 Bft) NW 305 0 min 0,000 mm 75 W/m 9,8 C 9,7 C 14,5 km/h (3 Bft)
25.04.2018 10:51 12,2 C 11,1 C 10,6 C 10,6 C 10,0 C 85 % 17 cb 1000,7 hPa 0,0 l/m 9,1 km/h (2 Bft) S-SW 193 0 min 0,000 mm 68 W/m 9,8 C 10,5 C 17,7 km/h (3 Bft)
25.04.2018 10:50 12,2 C 11,1 C 10,6 C 10,6 C 10,0 C 85 % 17 cb 1000,7 hPa 0,0 l/m 16,1 km/h (3 Bft) W-SW 244 0 min 0,000 mm 70 W/m 9,8 C 7,4 C 24,1 km/h (4 Bft)
25.04.2018 10:49 12,2 C 11,1 C 10,6 C 10,6 C 10,0 C 84 % 17 cb 1000,7 hPa 0,0 l/m 15,3 km/h (3 Bft) W-NW 291 0 min 0,000 mm 69 W/m 9,6 C 7,7 C 27,4 km/h (5 Bft)
25.04.2018 10:48 12,2 C 11,1 C 10,6 C 10,6 C 10,0 C 84 % 17 cb 1000,8 hPa 0,0 l/m 14,8 km/h (3 Bft) S 190 0 min 0,000 mm 69 W/m 9,6 C 7,9 C 24,1 km/h (4 Bft)
25.04.2018 10:47 12,2 C 11,1 C 10,6 C 10,6 C 10,0 C 84 % 17 cb 1000,7 hPa 0,0 l/m 14,6 km/h (3 Bft) W 263 0 min 0,000 mm 68 W/m 9,6 C 8,0 C 30,6 km/h (5 Bft)
25.04.2018 10:46 12,2 C 11,1 C 10,6 C 10,6 C 10,0 C 84 % 17 cb 1000,7 hPa 0,0 l/m 12,3 km/h (2 Bft) W-SW 249 0 min 0,000 mm 66 W/m 9,6 C 8,9 C 20,9 km/h (4 Bft)
25.04.2018 10:45 12,3 C 11,1 C 10,6 C 10,6 C 10,0 C 84 % 17 cb 1000,8 hPa 0,0 l/m 12,7 km/h (3 Bft) S-SW 193 0 min 0,000 mm 56 W/m 9,7 C 8,9 C 20,9 km/h (4 Bft)
25.04.2018 10:44 12,3 C 11,1 C 10,6 C 10,6 C 10,0 C 84 % 17 cb 1000,7 hPa 0,0 l/m 20,5 km/h (4 Bft) W-NW 297 0 min 0,000 mm 53 W/m 9,7 C 6,1 C 29,0 km/h (5 Bft)
25.04.2018 10:43 12,3 C 11,1 C 10,6 C 10,6 C 10,0 C 84 % 17 cb 1000,7 hPa 0,0 l/m 19,8 km/h (3 Bft) SW 234 0 min 0,000 mm 61 W/m 9,7 C 6,3 C 35,4 km/h (5 Bft)
25.04.2018 10:42 12,4 C 11,1 C 10,6 C 10,6 C 10,0 C 84 % 17 cb 1000,6 hPa 0,0 l/m 19,3 km/h (3 Bft) W-SW 248 0 min 0,000 mm 61 W/m 9,8 C 6,6 C 29,0 km/h (5 Bft)
25.04.2018 10:41 12,4 C 11,1 C 10,6 C 10,6 C 10,0 C 84 % 17 cb 1000,6 hPa 0,0 l/m 16,3 km/h (3 Bft) W-SW 250 0 min 0,000 mm 68 W/m 9,8 C 7,6 C 22,5 km/h (4 Bft)
25.04.2018 10:40 12,4 C 11,1 C 10,6 C 10,6 C 10,0 C 85 % 17 cb 1000,7 hPa 0,0 l/m 14,9 km/h (3 Bft) S-SW 208 0 min 0,000 mm 112 W/m 9,9 C 8,1 C 24,1 km/h (4 Bft)
25.04.2018 10:39 12,4 C 11,1 C 10,6 C 10,6 C 10,0 C 85 % 17 cb 1000,7 hPa 0,0 l/m 15,9 km/h (3 Bft) W 264 0 min 0,000 mm 130 W/m 9,9 C 7,7 C 27,4 km/h (5 Bft)
25.04.2018 10:38 12,5 C 11,1 C 10,6 C 10,6 C 10,0 C 85 % 17 cb 1000,6 hPa 0,0 l/m 12,0 km/h (2 Bft) W 265 0 min 0,000 mm 97 W/m 10,0 C 9,4 C 27,4 km/h (5 Bft)
25.04.2018 10:37 12,5 C 11,1 C 10,6 C 10,6 C 10,0 C 86 % 17 cb 1000,5 hPa 0,0 l/m 18,3 km/h (3 Bft) W-SW 240 0 min 0,000 mm 86 W/m 10,2 C 7,0 C 29,0 km/h (5 Bft)
25.04.2018 10:36 12,5 C 11,1 C 10,6 C 10,6 C 10,0 C 86 % 17 cb 1000,6 hPa 0,0 l/m 13,9 km/h (3 Bft) W 263 0 min 0,000 mm 105 W/m 10,2 C 8,6 C 24,1 km/h (4 Bft)
25.04.2018 10:35 12,6 C 11,1 C 10,6 C 10,6 C 10,0 C 87 % 17 cb 1000,6 hPa 0,0 l/m 24,8 km/h (4 Bft) W 271 0 min 0,000 mm 119 W/m 10,5 C 5,4 C 41,8 km/h (6 Bft)
25.04.2018 10:34 12,6 C 11,1 C 10,6 C 10,6 C 10,0 C 87 % 17 cb 1000,6 hPa 0,0 l/m 9,5 km/h (2 Bft) SW 216 0 min 0,000 mm 134 W/m 10,5 C 10,7 C 16,1 km/h (3 Bft)
25.04.2018 10:33 12,6 C 11,1 C 10,6 C 10,6 C 10,0 C 87 % 17 cb 1000,5 hPa 0,0 l/m 10,4 km/h (2 Bft) S-SW 209 0 min 0,000 mm 146 W/m 10,5 C 10,3 C 19,3 km/h (3 Bft)
25.04.2018 10:32 12,6 C 11,1 C 10,6 C 10,6 C 10,0 C 87 % 17 cb 1000,5 hPa 0,0 l/m 13,7 km/h (3 Bft) S-SW 203 0 min 0,000 mm 158 W/m 10,5 C 8,8 C 22,5 km/h (4 Bft)
25.04.2018 10:31 12,6 C 11,1 C 10,6 C 10,6 C 10,0 C 87 % 17 cb 1000,5 hPa 0,0 l/m 13,9 km/h (3 Bft) S 179 0 min 0,000 mm 174 W/m 10,5 C 8,7 C 24,1 km/h (4 Bft)
25.04.2018 10:30 12,6 C 11,1 C 10,6 C 10,6 C 10,0 C 88 % 17 cb 1000,6 hPa 0,0 l/m 14,3 km/h (3 Bft) SW 232 0 min 0,000 mm 192 W/m 10,7 C 8,6 C 29,0 km/h (5 Bft)
25.04.2018 10:29 12,5 C 11,1 C 10,6 C 10,6 C 10,0 C 88 % 17 cb 1000,5 hPa 0,0 l/m 15,2 km/h (3 Bft) W-SW 245 0 min 0,000 mm 245 W/m 10,6 C 8,1 C 20,9 km/h (4 Bft)
25.04.2018 10:28 12,4 C 11,1 C 10,6 C 10,6 C 10,0 C 89 % 17 cb 1000,6 hPa 0,0 l/m 13,3 km/h (3 Bft) W-NW 296 0 min 0,000 mm 256 W/m 10,6 C 8,7 C 29,0 km/h (5 Bft)
25.04.2018 10:27 12,4 C 11,1 C 10,6 C 10,6 C 10,0 C 89 % 17 cb 1000,5 hPa 0,0 l/m 17,2 km/h (3 Bft) NO 43 0 min 0,000 mm 246 W/m 10,6 C 7,3 C 32,2 km/h (5 Bft)
25.04.2018 10:26 12,4 C 11,1 C 10,6 C 10,6 C 10,0 C 89 % 17 cb 1000,5 hPa 0,0 l/m 9,9 km/h (2 Bft) SW 223 0 min 0,000 mm 256 W/m 10,6 C 10,3 C 14,5 km/h (3 Bft)
25.04.2018 10:25 12,4 C 11,1 C 10,6 C 10,6 C 10,0 C 89 % 17 cb 1000,5 hPa 0,0 l/m 10,9 km/h (2 Bft) SW 232 0 min 0,000 mm 210 W/m 10,6 C 9,8 C 17,7 km/h (3 Bft)
25.04.2018 10:24 12,3 C 11,1 C 10,6 C 10,6 C 10,0 C 88 % 17 cb 1000,5 hPa 0,0 l/m 10,4 km/h (2 Bft) W 262 0 min 0,000 mm 135 W/m 10,4 C 9,9 C 22,5 km/h (4 Bft)
25.04.2018 10:23 12,3 C 11,1 C 10,6 C 10,6 C 10,0 C 88 % 17 cb 1000,5 hPa 0,0 l/m 10,3 km/h (2 Bft) SW 232 0 min 0,000 mm 103 W/m 10,4 C 10,0 C 20,9 km/h (4 Bft)
25.04.2018 10:22 12,3 C 11,1 C 10,6 C 10,6 C 10,0 C 88 % 17 cb 1000,5 hPa 0,0 l/m 12,4 km/h (2 Bft) W-SW 242 0 min 0,000 mm 55 W/m 10,4 C 9,0 C 19,3 km/h (3 Bft)
25.04.2018 10:21 12,4 C 11,1 C 10,6 C 10,6 C 10,0 C 88 % 17 cb 1000,4 hPa 0,0 l/m 16,3 km/h (3 Bft) SW 230 0 min 0,000 mm 35 W/m 10,5 C 7,6 C 30,6 km/h (5 Bft)
25.04.2018 10:20 12,4 C 11,1 C 10,6 C 10,6 C 10,0 C 88 % 17 cb 1000,4 hPa 0,0 l/m 15,0 km/h (3 Bft) SW 224 0 min 0,000 mm 67 W/m 10,5 C 8,0 C 27,4 km/h (5 Bft)
25.04.2018 10:19 12,4 C 11,1 C 10,6 C 10,6 C 10,0 C 89 % 17 cb 1000,4 hPa 0,0 l/m 16,3 km/h (3 Bft) SW 225 0 min 0,000 mm 72 W/m 10,6 C 7,6 C 29,0 km/h (5 Bft)
25.04.2018 10:18 12,4 C 11,7 C 10,6 C 10,6 C 10,0 C 89 % 17 cb 1000,4 hPa 0,0 l/m 18,3 km/h (3 Bft) W-SW 251 0 min 0,000 mm 95 W/m 10,6 C 6,9 C 29,0 km/h (5 Bft)
25.04.2018 10:17 12,4 C 11,7 C 10,6 C 10,6 C 10,0 C 89 % 17 cb 1000,3 hPa 0,0 l/m 15,8 km/h (3 Bft) S-SW 196 0 min 0,000 mm 101 W/m 10,6 C 7,7 C 29,0 km/h (5 Bft)
25.04.2018 10:16 12,4 C 11,7 C 10,6 C 10,6 C 10,0 C 90 % 17 cb 1000,4 hPa 0,0 l/m 15,4 km/h (3 Bft) SW 234 0 min 0,000 mm 105 W/m 10,8 C 7,9 C 27,4 km/h (5 Bft)
25.04.2018 10:15 12,4 C 11,7 C 10,6 C 10,6 C 10,0 C 90 % 17 cb 1000,4 hPa 0,0 l/m 11,5 km/h (2 Bft) SW 219 0 min 0,000 mm 131 W/m 10,8 C 9,5 C 20,9 km/h (4 Bft)
25.04.2018 10:14 12,4 C 11,7 C 10,6 C 10,6 C 10,0 C 90 % 17 cb 1000,4 hPa 0,0 l/m 23,3 km/h (4 Bft) W-SW 246 0 min 0,000 mm 161 W/m 10,8 C 5,5 C 32,2 km/h (5 Bft)
25.04.2018 10:13 12,4 C 12,2 C 10,6 C 10,6 C 10,0 C 91 % 17 cb 1000,4 hPa 0,0 l/m 12,9 km/h (3 Bft) SW 230 0 min 0,000 mm 189 W/m 11,0 C 8,9 C 24,1 km/h (4 Bft)
25.04.2018 10:12 12,3 C 12,2 C 10,6 C 10,6 C 10,0 C 91 % 17 cb 1000,3 hPa 0,0 l/m 13,4 km/h (3 Bft) SW 225 0 min 0,000 mm 233 W/m 10,9 C 8,6 C 20,9 km/h (4 Bft)
25.04.2018 10:11 12,3 C 12,2 C 10,6 C 10,6 C 10,0 C 91 % 17 cb 1000,3 hPa 0,0 l/m 15,8 km/h (3 Bft) SW 215 0 min 0,000 mm 215 W/m 10,9 C 7,6 C 35,4 km/h (5 Bft)
25.04.2018 10:10 12,2 C 11,7 C 10,6 C 10,6 C 10,0 C 91 % 17 cb 1000,3 hPa 0,0 l/m 15,9 km/h (3 Bft) SW 230 0 min 0,000 mm 188 W/m 10,8 C 7,5 C 30,6 km/h (5 Bft)
25.04.2018 10:09 12,2 C 11,7 C 10,6 C 10,6 C 10,0 C 91 % 17 cb 1000,3 hPa 0,0 l/m 9,8 km/h (2 Bft) SW 234 0 min 0,000 mm 176 W/m 10,8 C 10,1 C 20,9 km/h (4 Bft)
25.04.2018 10:08 12,2 C 11,7 C 10,6 C 10,6 C 10,0 C 91 % 17 cb 1000,4 hPa 0,0 l/m 9,1 km/h (2 Bft) S-SO 157 0 min 0,000 mm 173 W/m 10,8 C 10,5 C 14,5 km/h (3 Bft)
25.04.2018 10:07 12,2 C 11,7 C 10,6 C 10,6 C 10,0 C 91 % 17 cb 1000,4 hPa 0,0 l/m 12,6 km/h (3 Bft) W-NW 300 0 min 0,000 mm 164 W/m 10,8 C 8,8 C 24,1 km/h (4 Bft)
25.04.2018 10:06 12,2 C 11,7 C 10,6 C 10,6 C 10,0 C 92 % 17 cb 1000,4 hPa 0,0 l/m 16,9 km/h (3 Bft) W 273 0 min 0,000 mm 155 W/m 10,9 C 7,1 C 25,7 km/h (4 Bft)
25.04.2018 10:05 12,2 C 11,1 C 11,1 C 11,1 C 10,6 C 92 % 16 cb 1000,4 hPa 0,0 l/m 16,8 km/h (3 Bft) SW 221 0 min 0,000 mm 138 W/m 10,9 C 7,1 C 32,2 km/h (5 Bft)
25.04.2018 10:04 12,2 C 11,1 C 11,1 C 11,1 C 10,6 C 92 % 16 cb 1000,5 hPa 0,0 l/m 20,8 km/h (4 Bft) W-SW 238 0 min 0,000 mm 115 W/m 10,9 C 5,9 C 35,4 km/h (5 Bft)
25.04.2018 10:03 12,2 C 11,1 C 11,1 C 11,1 C 10,6 C 92 % 16 cb 1000,5 hPa 0,0 l/m 13,1 km/h (3 Bft) W-SW 257 0 min 0,000 mm 120 W/m 10,9 C 8,6 C 22,5 km/h (4 Bft)
25.04.2018 10:02 12,1 C 11,1 C 11,1 C 11,1 C 10,6 C 92 % 16 cb 1000,5 hPa 0,0 l/m 13,9 km/h (3 Bft) S-SO 155 0 min 0,000 mm 151 W/m 10,8 C 8,1 C 22,5 km/h (4 Bft)
25.04.2018 10:01 12,1 C 11,1 C 11,1 C 11,1 C 10,6 C 92 % 16 cb 1000,5 hPa 0,0 l/m 15,1 km/h (3 Bft) S-SW 212 0 min 0,000 mm 169 W/m 10,8 C 7,6 C 27,4 km/h (5 Bft)
25.04.2018 10:00 12,1 C 11,1 C 11,1 C 11,1 C 10,6 C 92 % 16 cb 1000,4 hPa 0,0 l/m 17,2 km/h (3 Bft) S-SW 201 0 min 0,051 mm 153 W/m 10,8 C 6,9 C 30,6 km/h (5 Bft)
25.04.2018 09:59 12,1 C 11,1 C 11,1 C 11,1 C 10,6 C 93 % 16 cb 1000,5 hPa 0,0 l/m 11,9 km/h (2 Bft) S-SW 211 0 min 0,000 mm 128 W/m 11,0 C 9,0 C 25,7 km/h (4 Bft)
25.04.2018 09:58 12,1 C 11,1 C 11,1 C 11,1 C 10,6 C 93 % 16 cb 1000,5 hPa 0,0 l/m 17,8 km/h (3 Bft) NW 306 0 min 0,000 mm 120 W/m 11,0 C 6,7 C 27,4 km/h (5 Bft)
25.04.2018 09:57 12,1 C 11,1 C 11,1 C 11,1 C 10,6 C 93 % 16 cb 1000,5 hPa 0,0 l/m 16,4 km/h (3 Bft) W-SW 243 0 min 0,000 mm 244 W/m 11,0 C 7,2 C 30,6 km/h (5 Bft)
25.04.2018 09:56 12,1 C 11,1 C 11,1 C 11,1 C 10,6 C 93 % 16 cb 1000,5 hPa 0,0 l/m 11,4 km/h (2 Bft) S-SW 196 0 min 0,000 mm 250 W/m 11,0 C 9,2 C 20,9 km/h (4 Bft)
25.04.2018 09:55 12,0 C 11,1 C 11,1 C 11,1 C 10,6 C 93 % 16 cb 1000,5 hPa 0,0 l/m 14,9 km/h (3 Bft) SW 225 0 min 0,000 mm 187 W/m 10,9 C 7,6 C 29,0 km/h (5 Bft)
25.04.2018 09:54 11,9 C 11,1 C 11,1 C 11,1 C 10,6 C 94 % 16 cb 1000,5 hPa 0,0 l/m 16,6 km/h (3 Bft) W 274 0 min 0,000 mm 178 W/m 11,0 C 6,8 C 24,1 km/h (4 Bft)
25.04.2018 09:53 11,9 C 11,1 C 11,1 C 11,1 C 10,6 C 94 % 16 cb 1000,5 hPa 0,0 l/m 13,3 km/h (3 Bft) NW 318 0 min 0,000 mm 186 W/m 11,0 C 8,1 C 22,5 km/h (4 Bft)
25.04.2018 09:52 11,9 C 11,1 C 11,1 C 11,1 C 10,6 C 94 % 16 cb 1000,5 hPa 0,0 l/m 12,9 km/h (3 Bft) SW 227 0 min 0,000 mm 253 W/m 11,0 C 8,3 C 25,7 km/h (4 Bft)
25.04.2018 09:51 11,9 C 11,1 C 11,1 C 11,1 C 10,6 C 94 % 16 cb 1000,5 hPa 0,0 l/m 17,4 km/h (3 Bft) S-SW 194 0 min 0,000 mm 197 W/m 11,0 C 6,6 C 25,7 km/h (4 Bft)
25.04.2018 09:50 11,8 C 11,1 C 11,1 C 11,1 C 10,6 C 94 % 16 cb 1000,5 hPa 0,0 l/m 9,7 km/h (2 Bft) SW 216 0 min 0,000 mm 158 W/m 10,9 C 9,7 C 17,7 km/h (3 Bft)
25.04.2018 09:49 11,8 C 11,1 C 11,1 C 11,1 C 10,6 C 94 % 16 cb 1000,5 hPa 0,0 l/m 7,2 km/h (2 Bft) N-NW 345 0 min 0,000 mm 115 W/m 10,9 C 11,3 C 11,3 km/h (2 Bft)
25.04.2018 09:48 11,8 C 11,1 C 11,1 C 11,1 C 10,6 C 94 % 16 cb 1000,5 hPa 0,0 l/m 11,8 km/h (2 Bft) S-SW 207 0 min 0,000 mm 77 W/m 10,9 C 8,7 C 24,1 km/h (4 Bft)
25.04.2018 09:47 11,8 C 11,1 C 11,1 C 11,1 C 10,6 C 94 % 16 cb 1000,5 hPa 0,0 l/m 13,1 km/h (3 Bft) W-SW 247 0 min 0,000 mm 61 W/m 10,9 C 8,1 C 24,1 km/h (4 Bft)
25.04.2018 09:46 11,8 C 11,1 C 11,1 C 11,1 C 10,6 C 94 % 16 cb 1000,6 hPa 0,0 l/m 13,7 km/h (3 Bft) S-SO 147 0 min 0,000 mm 54 W/m 10,9 C 7,8 C 24,1 km/h (4 Bft)
25.04.2018 09:45 11,8 C 11,1 C 11,1 C 11,1 C 10,6 C 94 % 16 cb 1000,4 hPa 0,0 l/m 13,7 km/h (3 Bft) SW 228 0 min 0,000 mm 52 W/m 10,9 C 7,8 C 24,1 km/h (4 Bft)
25.04.2018 09:44 11,8 C 11,1 C 11,1 C 11,1 C 10,6 C 94 % 16 cb 1000,4 hPa 0,0 l/m 15,0 km/h (3 Bft) SW 221 0 min 0,000 mm 46 W/m 10,9 C 7,3 C 27,4 km/h (5 Bft)
25.04.2018 09:43 11,8 C 11,1 C 11,1 C 11,1 C 10,6 C 94 % 16 cb 1000,4 hPa 0,0 l/m 14,2 km/h (3 Bft) W-SW 253 0 min 0,000 mm 36 W/m 10,9 C 7,6 C 24,1 km/h (4 Bft)
25.04.2018 09:42 11,8 C 11,1 C 11,1 C 11,1 C 10,6 C 94 % 16 cb 1000,3 hPa 0,0 l/m 13,0 km/h (3 Bft) SW 228 0 min 0,000 mm 35 W/m 10,9 C 8,1 C 20,9 km/h (4 Bft)
25.04.2018 09:41 11,8 C 11,1 C 11,1 C 11,1 C 10,6 C 94 % 16 cb 1000,4 hPa 0,0 l/m 12,4 km/h (2 Bft) SW 227 0 min 0,000 mm 39 W/m 10,9 C 8,4 C 17,7 km/h (3 Bft)
25.04.2018 09:40 11,9 C 11,1 C 11,1 C 11,1 C 10,6 C 94 % 16 cb 1000,4 hPa 0,0 l/m 8,9 km/h (2 Bft) S-SW 195 0 min 0,000 mm 34 W/m 11,0 C 10,3 C 20,9 km/h (4 Bft)
25.04.2018 09:39 11,9 C 11,1 C 11,1 C 11,1 C 10,6 C 94 % 16 cb 1000,4 hPa 0,0 l/m 6,4 km/h (2 Bft) S-SW 198 0 min 0,000 mm 37 W/m 11,0 C 11,9 C 12,9 km/h (3 Bft)
25.04.2018 09:38 11,8 C 11,1 C 11,1 C 11,1 C 10,6 C 94 % 16 cb 1000,4 hPa 0,0 l/m 8,4 km/h (2 Bft) W-SW 237 0 min 0,000 mm 37 W/m 10,9 C 10,5 C 14,5 km/h (3 Bft)
25.04.2018 09:37 11,9 C 11,1 C 11,1 C 11,1 C 10,6 C 94 % 16 cb 1000,4 hPa 0,0 l/m 12,8 km/h (3 Bft) W 269 0 min 0,000 mm 38 W/m 11,0 C 8,3 C 19,3 km/h (3 Bft)
25.04.2018 09:36 11,9 C 11,1 C 11,1 C 11,1 C 10,6 C 94 % 16 cb 1000,4 hPa 0,0 l/m 13,0 km/h (3 Bft) W-SW 257 0 min 0,000 mm 33 W/m 11,0 C 8,3 C 25,7 km/h (4 Bft)
25.04.2018 09:35 11,9 C 11,1 C 11,1 C 11,1 C 10,6 C 94 % 16 cb 1000,4 hPa 0,0 l/m 12,9 km/h (3 Bft) W 277 0 min 0,000 mm 29 W/m 11,0 C 8,3 C 24,1 km/h (4 Bft)
25.04.2018 09:34 11,9 C 11,1 C 11,1 C 11,1 C 10,6 C 94 % 16 cb 1000,3 hPa 0,0 l/m 8,7 km/h (2 Bft) W-SW 238 0 min 0,000 mm 24 W/m 11,0 C 10,4 C 20,9 km/h (4 Bft)
25.04.2018 09:33 11,9 C 11,1 C 11,1 C 11,1 C 10,6 C 94 % 16 cb 1000,2 hPa 0,0 l/m 13,1 km/h (3 Bft) W 262 0 min 0,000 mm 23 W/m 11,0 C 8,2 C 19,3 km/h (3 Bft)
25.04.2018 09:32 11,9 C 11,1 C 11,1 C 11,1 C 10,6 C 94 % 16 cb 1000,3 hPa 0,0 l/m 14,3 km/h (3 Bft) SW 227 0 min 0,000 mm 26 W/m 11,0 C 7,7 C 24,1 km/h (4 Bft)
25.04.2018 09:31 11,9 C 11,1 C 11,1 C 11,1 C 10,6 C 94 % 16 cb 1000,3 hPa 0,0 l/m 21,0 km/h (4 Bft) SW 222 0 min 0,000 mm 26 W/m 11,0 C 5,5 C 29,0 km/h (5 Bft)
25.04.2018 09:30 11,9 C 11,1 C 11,1 C 11,1 C 10,6 C 94 % 16 cb 1000,2 hPa 0,0 l/m 14,6 km/h (3 Bft) S-SW 202 0 min 0,000 mm 26 W/m 11,0 C 7,6 C 20,9 km/h (4 Bft)
25.04.2018 09:29 11,9 C 11,1 C 11,1 C 11,1 C 10,6 C 94 % 16 cb 1000,3 hPa 0,0 l/m 9,3 km/h (2 Bft) NW 307 0 min 0,000 mm 27 W/m 11,0 C 10,1 C 17,7 km/h (3 Bft)
25.04.2018 09:28 11,9 C 11,1 C 11,1 C 11,1 C 10,6 C 95 % 16 cb 1000,3 hPa 0,0 l/m 12,7 km/h (3 Bft) SW 234 0 min 0,000 mm 34 W/m 11,1 C 8,4 C 24,1 km/h (4 Bft)
25.04.2018 09:27 11,9 C 11,1 C 11,1 C 11,1 C 10,6 C 95 % 16 cb 1000,2 hPa 0,0 l/m 13,7 km/h (3 Bft) S-SW 211 0 min 0,000 mm 54 W/m 11,1 C 8,0 C 27,4 km/h (5 Bft)
25.04.2018 09:26 11,9 C 11,1 C 11,1 C 11,1 C 10,6 C 95 % 16 cb 1000,3 hPa 0,0 l/m 11,6 km/h (2 Bft) NO 56 0 min 0,000 mm 63 W/m 11,1 C 8,9 C 22,5 km/h (4 Bft)
25.04.2018 09:25 11,9 C 11,1 C 11,1 C 11,1 C 10,6 C 95 % 16 cb 1000,4 hPa 0,0 l/m 18,5 km/h (3 Bft) SW 222 0 min 0,000 mm 55 W/m 11,1 C 6,2 C 33,8 km/h (5 Bft)
25.04.2018 09:24 11,9 C 11,1 C 11,1 C 11,1 C 10,6 C 95 % 16 cb 1000,3 hPa 0,0 l/m 12,1 km/h (2 Bft) SW 231 0 min 0,000 mm 44 W/m 11,1 C 8,7 C 22,5 km/h (4 Bft)
25.04.2018 09:23 11,9 C 11,1 C 11,1 C 11,1 C 10,6 C 95 % 16 cb 1000,3 hPa 0,0 l/m 10,7 km/h (2 Bft) SW 230 0 min 0,000 mm 62 W/m 11,1 C 9,3 C 19,3 km/h (3 Bft)
25.04.2018 09:22 11,9 C 11,1 C 11,1 C 11,1 C 10,6 C 95 % 16 cb 1000,3 hPa 0,0 l/m 10,2 km/h (2 Bft) SW 224 0 min 0,000 mm 76 W/m 11,1 C 9,6 C 17,7 km/h (3 Bft)
25.04.2018 09:21 12,0 C 11,1 C 11,1 C 11,1 C 10,6 C 95 % 16 cb 1000,3 hPa 0,0 l/m 14,7 km/h (3 Bft) SW 222 0 min 0,000 mm 72 W/m 11,2 C 7,7 C 22,5 km/h (4 Bft)
25.04.2018 09:20 11,9 C 11,1 C 11,1 C 11,1 C 10,6 C 95 % 16 cb 1000,3 hPa 0,0 l/m 10,4 km/h (2 Bft) SW 232 0 min 0,000 mm 85 W/m 11,1 C 9,5 C 16,1 km/h (3 Bft)
25.04.2018 09:19 12,0 C 11,1 C 11,1 C 11,1 C 10,6 C 95 % 16 cb 1000,3 hPa 0,0 l/m 15,1 km/h (3 Bft) W-SW 255 0 min 0,000 mm 89 W/m 11,2 C 7,5 C 25,7 km/h (4 Bft)
25.04.2018 09:18 12,0 C 11,1 C 11,1 C 11,1 C 10,6 C 95 % 16 cb 1000,4 hPa 0,0 l/m 14,6 km/h (3 Bft) SW 234 0 min 0,000 mm 90 W/m 11,2 C 7,7 C 22,5 km/h (4 Bft)
25.04.2018 09:17 12,0 C 11,1 C 11,1 C 11,1 C 10,6 C 95 % 16 cb 1000,3 hPa 0,0 l/m 14,6 km/h (3 Bft) SW 229 0 min 0,000 mm 99 W/m 11,2 C 7,7 C 22,5 km/h (4 Bft)
25.04.2018 09:16 11,9 C 11,1 C 11,1 C 11,1 C 10,6 C 95 % 16 cb 1000,3 hPa 0,0 l/m 15,0 km/h (3 Bft) W-SW 248 0 min 0,000 mm 106 W/m 11,1 C 7,4 C 27,4 km/h (5 Bft)
25.04.2018 09:15 11,9 C 11,1 C 11,1 C 11,1 C 10,6 C 95 % 16 cb 1000,4 hPa 0,0 l/m 10,9 km/h (2 Bft) SW 231 0 min 0,000 mm 111 W/m 11,1 C 9,2 C 32,2 km/h (5 Bft)
25.04.2018 09:14 11,9 C 11,1 C 11,1 C 11,1 C 10,6 C 96 % 16 cb 1000,3 hPa 0,0 l/m 5,9 km/h (2 Bft) SW 227 0 min 0,000 mm 120 W/m 11,3 C 11,9 C 8,0 km/h (2 Bft)
25.04.2018 09:13 11,9 C 11,1 C 11,1 C 11,1 C 10,6 C 96 % 16 cb 1000,4 hPa 0,0 l/m 8,1 km/h (2 Bft) SW 218 0 min 0,000 mm 129 W/m 11,3 C 10,8 C 14,5 km/h (3 Bft)
25.04.2018 09:12 11,9 C 11,1 C 11,1 C 11,1 C 10,6 C 96 % 16 cb 1000,4 hPa 0,0 l/m 12,9 km/h (3 Bft) S 180 0 min 0,000 mm 130 W/m 11,3 C 8,3 C 22,5 km/h (4 Bft)
25.04.2018 09:11 11,9 C 11,1 C 11,1 C 11,1 C 10,6 C 96 % 16 cb 1000,3 hPa 0,0 l/m 7,1 km/h (2 Bft) W-SW 258 0 min 0,000 mm 144 W/m 11,3 C 11,4 C 11,3 km/h (2 Bft)
25.04.2018 09:10 11,8 C 11,1 C 11,1 C 11,1 C 10,6 C 96 % 16 cb 1000,4 hPa 0,0 l/m 6,5 km/h (2 Bft) SO 136 0 min 0,000 mm 146 W/m 11,2 C 11,8 C 14,5 km/h (3 Bft)
25.04.2018 09:09 11,8 C 11,1 C 11,1 C 11,1 C 10,6 C 96 % 16 cb 1000,3 hPa 0,0 l/m 12,2 km/h (2 Bft) W-SW 257 0 min 0,000 mm 126 W/m 11,2 C 8,5 C 20,9 km/h (4 Bft)
25.04.2018 09:08 11,8 C 11,1 C 11,1 C 11,1 C 10,6 C 96 % 16 cb 1000,4 hPa 0,0 l/m 15,7 km/h (3 Bft) SW 217 0 min 0,000 mm 126 W/m 11,2 C 7,0 C 25,7 km/h (4 Bft)
25.04.2018 09:07 11,8 C 11,1 C 11,1 C 11,1 C 10,6 C 96 % 16 cb 1000,4 hPa 0,0 l/m 13,5 km/h (3 Bft) W-SW 256 0 min 0,000 mm 110 W/m 11,2 C 7,9 C 24,1 km/h (4 Bft)
25.04.2018 09:06 11,8 C 11,1 C 11,1 C 11,1 C 10,6 C 96 % 16 cb 1000,4 hPa 0,0 l/m 14,6 km/h (3 Bft) SW 215 0 min 0,000 mm 86 W/m 11,2 C 7,5 C 25,7 km/h (4 Bft)
25.04.2018 09:05 11,8 C 11,1 C 11,1 C 11,1 C 10,6 C 96 % 16 cb 1000,4 hPa 0,0 l/m 18,1 km/h (3 Bft) W-SW 255 0 min 0,000 mm 68 W/m 11,2 C 6,2 C 29,0 km/h (5 Bft)
25.04.2018 09:04 11,8 C 11,1 C 11,1 C 11,1 C 10,6 C 96 % 16 cb 1000,4 hPa 0,0 l/m 12,8 km/h (3 Bft) W-SW 241 0 min 0,000 mm 68 W/m 11,2 C 8,2 C 27,4 km/h (5 Bft)
25.04.2018 09:03 11,8 C 11,1 C 11,1 C 11,1 C 10,6 C 96 % 16 cb 1000,3 hPa 0,0 l/m 13,7 km/h (3 Bft) W 267 0 min 0,000 mm 80 W/m 11,2 C 7,8 C 19,3 km/h (3 Bft)
25.04.2018 09:02 11,8 C 11,1 C 11,1 C 11,1 C 10,6 C 96 % 16 cb 1000,4 hPa 0,0 l/m 14,1 km/h (3 Bft) W 262 0 min 0,000 mm 95 W/m 11,2 C 7,7 C 29,0 km/h (5 Bft)
25.04.2018 09:01 11,8 C 11,1 C 11,1 C 11,1 C 10,6 C 96 % 16 cb 1000,4 hPa 0,0 l/m 15,9 km/h (3 Bft) SW 236 0 min 0,000 mm 104 W/m 11,2 C 7,0 C 30,6 km/h (5 Bft)
25.04.2018 09:00 11,8 C 11,1 C 11,1 C 11,1 C 10,6 C 96 % 16 cb 1000,5 hPa 0,0 l/m 12,4 km/h (2 Bft) W-SW 243 0 min 0,051 mm 101 W/m 11,2 C 8,4 C 22,5 km/h (4 Bft)
25.04.2018 08:59 11,8 C 11,1 C 11,1 C 11,1 C 10,6 C 96 % 16 cb 1000,5 hPa 0,0 l/m 6,6 km/h (2 Bft) SW 219 0 min 0,000 mm 87 W/m 11,2 C 11,7 C 19,3 km/h (3 Bft)
25.04.2018 08:58 11,8 C 11,1 C 11,1 C 11,1 C 10,6 C 96 % 16 cb 1000,4 hPa 0,0 l/m 10,5 km/h (2 Bft) W 276 0 min 0,000 mm 69 W/m 11,2 C 9,3 C 16,1 km/h (3 Bft)
25.04.2018 08:57 11,8 C 11,1 C 11,1 C 11,1 C 10,6 C 96 % 16 cb 1000,2 hPa 0,0 l/m 14,7 km/h (3 Bft) W-SW 240 0 min 0,000 mm 101 W/m 11,2 C 7,4 C 29,0 km/h (5 Bft)
25.04.2018 08:56 11,8 C 11,1 C 11,1 C 11,1 C 10,6 C 96 % 16 cb 1000,4 hPa 0,0 l/m 17,3 km/h (3 Bft) W-NW 285 0 min 0,000 mm 130 W/m 11,2 C 6,5 C 27,4 km/h (5 Bft)
25.04.2018 08:55 11,8 C 11,1 C 11,1 C 11,1 C 10,6 C 96 % 16 cb 1000,4 hPa 0,0 l/m 13,3 km/h (3 Bft) W-SW 253 0 min 0,000 mm 134 W/m 11,2 C 8,0 C 27,4 km/h (5 Bft)
25.04.2018 08:54 11,8 C 11,1 C 11,1 C 11,1 C 10,6 C 96 % 16 cb 1000,4 hPa 0,0 l/m 16,6 km/h (3 Bft) W-SW 239 0 min 0,000 mm 136 W/m 11,2 C 6,7 C 25,7 km/h (4 Bft)
25.04.2018 08:53 11,8 C 11,1 C 11,1 C 11,1 C 10,6 C 96 % 16 cb 1000,4 hPa 0,0 l/m 12,5 km/h (2 Bft) SW 229 0 min 0,000 mm 109 W/m 11,2 C 8,4 C 17,7 km/h (3 Bft)
25.04.2018 08:52 11,8 C 11,1 C 11,1 C 11,1 C 10,6 C 96 % 16 cb 1000,3 hPa 0,0 l/m 12,7 km/h (3 Bft) SW 219 0 min 0,000 mm 102 W/m 11,2 C 8,3 C 17,7 km/h (3 Bft)
25.04.2018 08:51 11,7 C 11,1 C 11,1 C 11,1 C 10,6 C 96 % 16 cb 1000,4 hPa 0,0 l/m 4,7 km/h (1 Bft) SW 229 0 min 0,000 mm 110 W/m 11,1 C 11,7 C 9,7 km/h (2 Bft)
25.04.2018 08:50 11,7 C 11,1 C 11,1 C 11,1 C 10,6 C 96 % 16 cb 1000,4 hPa 0,0 l/m 9,7 km/h (2 Bft) SW 221 0 min 0,000 mm 117 W/m 11,1 C 9,6 C 14,5 km/h (3 Bft)
25.04.2018 08:49 11,7 C 11,1 C 11,1 C 11,1 C 10,6 C 96 % 16 cb 1000,3 hPa 0,0 l/m 6,2 km/h (2 Bft) SW 235 0 min 0,000 mm 135 W/m 11,1 C 11,7 C 14,5 km/h (3 Bft)
25.04.2018 08:48 11,7 C 11,1 C 11,1 C 11,1 C 10,6 C 96 % 16 cb 1000,3 hPa 0,0 l/m 5,0 km/h (1 Bft) W-SW 244 0 min 0,000 mm 140 W/m 11,1 C 11,7 C 8,0 km/h (2 Bft)
25.04.2018 08:47 11,7 C 11,1 C 11,1 C 11,1 C 10,6 C 96 % 16 cb 1000,3 hPa 0,0 l/m 5,6 km/h (2 Bft) W-SW 252 0 min 0,000 mm 107 W/m 11,1 C 11,7 C 16,1 km/h (3 Bft)
25.04.2018 08:46 11,6 C 11,1 C 11,1 C 11,1 C 10,6 C 96 % 16 cb 1000,3 hPa 0,0 l/m 10,9 km/h (2 Bft) S-SW 207 0 min 0,000 mm 79 W/m 11,0 C 8,9 C 16,1 km/h (3 Bft)
25.04.2018 08:45 11,6 C 11,1 C 11,1 C 11,1 C 10,6 C 96 % 16 cb 1000,4 hPa 0,0 l/m 4,6 km/h (1 Bft) SW 233 0 min 0,000 mm 70 W/m 11,0 C 11,6 C 8,0 km/h (2 Bft)
25.04.2018 08:44 11,6 C 11,1 C 11,1 C 11,1 C 10,6 C 96 % 16 cb 1000,5 hPa 0,0 l/m 7,8 km/h (2 Bft) W-SW 239 0 min 0,000 mm 69 W/m 11,0 C 10,7 C 16,1 km/h (3 Bft)
25.04.2018 08:43 11,6 C 11,1 C 11,1 C 11,1 C 10,6 C 96 % 16 cb 1000,6 hPa 0,0 l/m 7,4 km/h (2 Bft) SW 225 0 min 0,000 mm 62 W/m 11,0 C 10,9 C 16,1 km/h (3 Bft)
25.04.2018 08:42 11,7 C 11,1 C 11,1 C 11,1 C 10,6 C 96 % 16 cb 1000,6 hPa 0,0 l/m 12,3 km/h (2 Bft) W-NW 302 0 min 0,000 mm 72 W/m 11,1 C 8,3 C 24,1 km/h (4 Bft)
25.04.2018 08:41 11,7 C 11,1 C 11,1 C 11,1 C 10,6 C 96 % 16 cb 1000,6 hPa 0,0 l/m 13,9 km/h (3 Bft) SW 225 0 min 0,000 mm 74 W/m 11,1 C 7,6 C 27,4 km/h (5 Bft)
25.04.2018 08:40 11,7 C 11,1 C 11,1 C 11,1 C 10,6 C 96 % 16 cb 1000,6 hPa 0,0 l/m 6,9 km/h (2 Bft) W 263 0 min 0,000 mm 57 W/m 11,1 C 11,4 C 12,9 km/h (3 Bft)
25.04.2018 08:39 11,7 C 11,1 C 11,1 C 11,1 C 10,6 C 96 % 16 cb 1000,7 hPa 0,0 l/m 10,0 km/h (2 Bft) W-NW 294 0 min 0,000 mm 52 W/m 11,1 C 9,5 C 17,7 km/h (3 Bft)
25.04.2018 08:38 11,7 C 11,1 C 11,1 C 11,1 C 10,6 C 96 % 16 cb 1000,7 hPa 0,0 l/m 6,4 km/h (2 Bft) SW 229 0 min 0,000 mm 57 W/m 11,1 C 11,7 C 14,5 km/h (3 Bft)
25.04.2018 08:37 11,7 C 11,1 C 11,1 C 11,1 C 10,6 C 96 % 16 cb 1000,7 hPa 0,0 l/m 6,3 km/h (2 Bft) W-SW 238 0 min 0,000 mm 64 W/m 11,1 C 11,7 C 11,3 km/h (2 Bft)
25.04.2018 08:36 11,7 C 11,1 C 11,1 C 11,1 C 10,6 C 96 % 16 cb 1000,7 hPa 0,0 l/m 11,3 km/h (2 Bft) SW 232 0 min 0,000 mm 75 W/m 11,1 C 8,8 C 17,7 km/h (3 Bft)
25.04.2018 08:35 11,7 C 11,1 C 11,1 C 11,1 C 10,6 C 96 % 16 cb 1000,7 hPa 0,0 l/m 10,1 km/h (2 Bft) S 180 0 min 0,000 mm 73 W/m 11,1 C 9,4 C 16,1 km/h (3 Bft)
25.04.2018 08:34 11,7 C 11,1 C 11,1 C 11,1 C 10,6 C 96 % 16 cb 1000,7 hPa 0,0 l/m 11,5 km/h (2 Bft) S 185 0 min 0,000 mm 72 W/m 11,1 C 8,7 C 17,7 km/h (3 Bft)
25.04.2018 08:33 11,7 C 11,1 C 11,1 C 11,1 C 10,6 C 96 % 16 cb 1000,7 hPa 0,0 l/m 9,3 km/h (2 Bft) W-SW 254 0 min 0,000 mm 92 W/m 11,1 C 9,9 C 16,1 km/h (3 Bft)
25.04.2018 08:32 11,7 C 11,1 C 11,1 C 11,1 C 10,6 C 96 % 16 cb 1000,7 hPa 0,0 l/m 13,3 km/h (3 Bft) SW 234 0 min 0,000 mm 122 W/m 11,1 C 7,9 C 25,7 km/h (4 Bft)
25.04.2018 08:31 11,7 C 11,1 C 11,1 C 11,1 C 10,6 C 96 % 16 cb 1000,7 hPa 0,0 l/m 18,1 km/h (3 Bft) S-SW 213 0 min 0,000 mm 120 W/m 11,1 C 6,1 C 24,1 km/h (4 Bft)
25.04.2018 08:30 11,6 C 11,1 C 11,1 C 11,1 C 10,6 C 96 % 16 cb 1000,8 hPa 0,0 l/m 10,2 km/h (2 Bft) SW 234 0 min 0,000 mm 128 W/m 11,0 C 9,3 C 16,1 km/h (3 Bft)
25.04.2018 08:29 11,6 C 11,1 C 11,1 C 11,1 C 10,6 C 96 % 16 cb 1000,8 hPa 0,0 l/m 9,5 km/h (2 Bft) SW 228 0 min 0,000 mm 138 W/m 11,0 C 9,6 C 17,7 km/h (3 Bft)
25.04.2018 08:28 11,6 C 11,1 C 11,1 C 11,1 C 10,6 C 96 % 16 cb 1000,8 hPa 0,0 l/m 7,9 km/h (2 Bft) S-SW 212 0 min 0,000 mm 148 W/m 11,0 C 10,6 C 14,5 km/h (3 Bft)
25.04.2018 08:27 11,5 C 11,1 C 11,1 C 11,1 C 10,6 C 96 % 16 cb 1000,8 hPa 0,0 l/m 9,1 km/h (2 Bft) S 191 0 min 0,000 mm 174 W/m 10,9 C 9,8 C 14,5 km/h (3 Bft)
25.04.2018 08:26 11,4 C 11,1 C 11,1 C 11,1 C 10,6 C 96 % 16 cb 1000,8 hPa 0,0 l/m 6,8 km/h (2 Bft) W-SW 251 0 min 0,000 mm 185 W/m 10,8 C 11,1 C 11,3 km/h (2 Bft)
25.04.2018 08:25 11,4 C 11,1 C 11,1 C 11,1 C 10,6 C 96 % 16 cb 1000,8 hPa 0,0 l/m 10,7 km/h (2 Bft) NW 317 0 min 0,000 mm 167 W/m 10,8 C 8,8 C 17,7 km/h (3 Bft)
25.04.2018 08:24 11,4 C 11,1 C 11,1 C 11,1 C 10,6 C 96 % 16 cb 1000,9 hPa 0,0 l/m 4,5 km/h (1 Bft) W-SW 239 0 min 0,000 mm 120 W/m 10,8 C 11,4 C 8,0 km/h (2 Bft)
25.04.2018 08:23 11,4 C 11,1 C 11,1 C 11,1 C 10,6 C 96 % 16 cb 1000,9 hPa 0,0 l/m 5,6 km/h (2 Bft) S 184 0 min 0,000 mm 79 W/m 10,8 C 11,4 C 11,3 km/h (2 Bft)
25.04.2018 08:22 11,4 C 11,1 C 11,1 C 11,1 C 10,6 C 96 % 16 cb 1000,9 hPa 0,0 l/m 11,9 km/h (2 Bft) W-SW 239 0 min 0,000 mm 61 W/m 10,8 C 8,2 C 19,3 km/h (3 Bft)
25.04.2018 08:21 11,4 C 11,1 C 11,1 C 11,1 C 10,6 C 96 % 16 cb 1001,0 hPa 0,0 l/m 7,9 km/h (2 Bft) SW 225 0 min 0,000 mm 40 W/m 10,8 C 10,4 C 14,5 km/h (3 Bft)
25.04.2018 08:20 11,4 C 11,1 C 11,1 C 11,1 C 10,6 C 96 % 16 cb 1000,9 hPa 0,0 l/m 7,8 km/h (2 Bft) S-SW 213 0 min 0,000 mm 40 W/m 10,8 C 10,5 C 14,5 km/h (3 Bft)
25.04.2018 08:19 11,4 C 11,1 C 11,1 C 11,1 C 10,6 C 96 % 16 cb 1000,9 hPa 0,0 l/m 12,4 km/h (2 Bft) SW 232 0 min 0,000 mm 30 W/m 10,8 C 7,9 C 20,9 km/h (4 Bft)
25.04.2018 08:18 11,4 C 11,1 C 11,1 C 11,1 C 10,6 C 96 % 16 cb 1001,0 hPa 0,0 l/m 5,9 km/h (2 Bft) SW 222 0 min 0,000 mm 26 W/m 10,8 C 11,4 C 12,9 km/h (3 Bft)
25.04.2018 08:17 11,4 C 11,1 C 11,1 C 11,1 C 10,6 C 96 % 16 cb 1001,0 hPa 0,0 l/m 10,7 km/h (2 Bft) W-SW 241 0 min 0,000 mm 30 W/m 10,8 C 8,8 C 16,1 km/h (3 Bft)
25.04.2018 08:16 11,4 C 11,1 C 11,1 C 11,1 C 10,6 C 96 % 16 cb 1001,0 hPa 0,0 l/m 9,7 km/h (2 Bft) SW 219 0 min 0,000 mm 37 W/m 10,8 C 9,3 C 14,5 km/h (3 Bft)
25.04.2018 08:15 11,4 C 11,1 C 11,1 C 11,1 C 10,6 C 96 % 16 cb 1001,0 hPa 0,0 l/m 8,1 km/h (2 Bft) W-SW 248 0 min 0,000 mm 48 W/m 10,8 C 10,3 C 14,5 km/h (3 Bft)
25.04.2018 08:14 11,3 C 11,1 C 11,1 C 11,1 C 10,6 C 96 % 16 cb 1001,0 hPa 0,0 l/m 9,4 km/h (2 Bft) SW 234 0 min 0,000 mm 58 W/m 10,7 C 9,4 C 16,1 km/h (3 Bft)
25.04.2018 08:13 11,3 C 11,1 C 11,1 C 11,1 C 10,6 C 96 % 16 cb 1001,0 hPa 0,0 l/m 3,8 km/h (1 Bft) S-SW 210 0 min 0,000 mm 67 W/m 10,7 C 11,3 C 11,3 km/h (2 Bft)
25.04.2018 08:12 11,3 C 11,1 C 11,1 C 11,1 C 10,6 C 96 % 16 cb 1001,0 hPa 0,0 l/m 6,8 km/h (2 Bft) S-SO 159 0 min 0,000 mm 67 W/m 10,7 C 11,0 C 11,3 km/h (2 Bft)
25.04.2018 08:11 11,3 C 11,1 C 11,1 C 11,1 C 10,6 C 96 % 16 cb 1001,0 hPa 0,0 l/m 6,5 km/h (2 Bft) W-SW 244 0 min 0,000 mm 67 W/m 10,7 C 11,3 C 11,3 km/h (2 Bft)
25.04.2018 08:10 11,3 C 11,1 C 11,1 C 11,1 C 10,6 C 96 % 16 cb 1001,1 hPa 0,0 l/m 8,7 km/h (2 Bft) S-SW 201 0 min 0,000 mm 56 W/m 10,7 C 9,8 C 14,5 km/h (3 Bft)
25.04.2018 08:09 11,3 C 11,1 C 11,1 C 11,1 C 10,6 C 96 % 16 cb 1001,1 hPa 0,0 l/m 6,6 km/h (2 Bft) W-SW 252 0 min 0,000 mm 59 W/m 10,7 C 11,2 C 14,5 km/h (3 Bft)
25.04.2018 08:08 11,2 C 11,1 C 11,1 C 11,1 C 10,6 C 96 % 16 cb 1001,1 hPa 0,0 l/m 11,5 km/h (2 Bft) W-SW 251 0 min 0,000 mm 71 W/m 10,6 C 8,1 C 19,3 km/h (3 Bft)
25.04.2018 08:07 11,2 C 11,1 C 11,1 C 11,1 C 10,6 C 96 % 16 cb 1001,0 hPa 0,0 l/m 13,3 km/h (3 Bft) SW 219 0 min 0,000 mm 76 W/m 10,6 C 7,3 C 20,9 km/h (4 Bft)
25.04.2018 08:06 11,2 C 11,1 C 11,1 C 11,1 C 10,6 C 96 % 16 cb 1000,9 hPa 0,0 l/m 11,3 km/h (2 Bft) SW 222 0 min 0,000 mm 45 W/m 10,6 C 8,2 C 14,5 km/h (3 Bft)
25.04.2018 08:05 11,2 C 11,1 C 11,1 C 11,1 C 10,6 C 96 % 16 cb 1000,9 hPa 0,0 l/m 9,6 km/h (2 Bft) SW 222 0 min 0,000 mm 38 W/m 10,6 C 9,1 C 14,5 km/h (3 Bft)
25.04.2018 08:04 11,2 C 11,1 C 11,1 C 11,1 C 10,6 C 96 % 16 cb 1001,0 hPa 0,0 l/m 11,4 km/h (2 Bft) SW 226 0 min 0,000 mm 30 W/m 10,6 C 8,2 C 16,1 km/h (3 Bft)
25.04.2018 08:03 11,2 C 11,1 C 11,1 C 11,1 C 10,6 C 96 % 16 cb 1001,1 hPa 0,2 l/m 9,3 km/h (2 Bft) W-SW 248 0 min 0,000 mm 25 W/m 10,6 C 9,3 C 14,5 km/h (3 Bft)
25.04.2018 08:02 11,2 C 11,1 C 11,1 C 11,1 C 10,6 C 96 % 16 cb 1001,1 hPa 0,0 l/m 6,9 km/h (2 Bft) SW 229 0 min 0,000 mm 25 W/m 10,6 C 10,9 C 11,3 km/h (2 Bft)
25.04.2018 08:01 11,2 C 11,1 C 11,1 C 11,1 C 10,6 C 96 % 16 cb 1001,1 hPa 0,0 l/m 13,2 km/h (3 Bft) S 187 0 min 0,025 mm 24 W/m 10,6 C 7,3 C 20,9 km/h (4 Bft)
25.04.2018 08:00 11,2 C 11,1 C 11,1 C 11,1 C 10,6 C 96 % 16 cb 1001,1 hPa 0,0 l/m 7,4 km/h (2 Bft) W-SW 241 0 min 0,000 mm 15 W/m 10,6 C 10,5 C 16,1 km/h (3 Bft)
25.04.2018 07:59 11,1 C 11,1 C 11,1 C 11,1 C 10,6 C 96 % 16 cb 1001,1 hPa 0,0 l/m 5,9 km/h (2 Bft) S-SW 200 0 min 0,000 mm 10 W/m 10,5 C 11,1 C 9,7 km/h (2 Bft)
25.04.2018 07:58 11,1 C 11,1 C 11,1 C 11,1 C 10,6 C 96 % 16 cb 1001,0 hPa 0,0 l/m 5,8 km/h (2 Bft) W-NW 292 0 min 0,000 mm 7 W/m 10,5 C 11,1 C 8,0 km/h (2 Bft)
25.04.2018 07:57 11,2 C 11,1 C 11,1 C 11,1 C 10,6 C 96 % 16 cb 1001,1 hPa 0,0 l/m 4,4 km/h (1 Bft) W-NW 291 0 min 0,000 mm 9 W/m 10,6 C 11,2 C 8,0 km/h (2 Bft)
25.04.2018 07:56 11,1 C 11,1 C 11,1 C 11,1 C 10,6 C 96 % 16 cb 1001,1 hPa 0,2 l/m 8,2 km/h (2 Bft) SW 232 0 min 0,000 mm 13 W/m 10,5 C 9,9 C 12,9 km/h (3 Bft)
25.04.2018 07:55 11,1 C 11,1 C 11,1 C 11,1 C 10,6 C 96 % 16 cb 1001,0 hPa 0,0 l/m 6,6 km/h (2 Bft) SW 217 0 min 0,000 mm 21 W/m 10,5 C 11,0 C 16,1 km/h (3 Bft)
25.04.2018 07:54 11,1 C 11,1 C 11,1 C 11,1 C 10,6 C 96 % 16 cb 1001,1 hPa 0,0 l/m 8,3 km/h (2 Bft) W 259 0 min 0,000 mm 29 W/m 10,5 C 9,8 C 12,9 km/h (3 Bft)
25.04.2018 07:53 11,1 C 11,1 C 11,1 C 11,1 C 10,6 C 96 % 16 cb 1001,0 hPa 0,0 l/m 10,3 km/h (2 Bft) SW 233 0 min 0,000 mm 37 W/m 10,5 C 8,6 C 16,1 km/h (3 Bft)
25.04.2018 07:52 11,1 C 11,1 C 11,1 C 11,1 C 10,6 C 96 % 16 cb 1001,1 hPa 0,0 l/m 10,1 km/h (2 Bft) W-SW 242 0 min 0,000 mm 40 W/m 10,5 C 8,8 C 17,7 km/h (3 Bft)
25.04.2018 07:51 11,1 C 11,1 C 11,1 C 11,1 C 10,6 C 96 % 16 cb 1001,2 hPa 0,0 l/m 9,0 km/h (2 Bft) S 172 0 min 0,000 mm 34 W/m 10,5 C 9,4 C 16,1 km/h (3 Bft)
25.04.2018 07:50 11,1 C 11,1 C 11,1 C 11,1 C 10,6 C 96 % 16 cb 1001,2 hPa 0,0 l/m 8,9 km/h (2 Bft) W-SW 252 0 min 0,000 mm 22 W/m 10,5 C 9,4 C 14,5 km/h (3 Bft)
25.04.2018 07:49 11,1 C 11,1 C 11,1 C 11,1 C 10,6 C 96 % 16 cb 1001,1 hPa 0,0 l/m 9,6 km/h (2 Bft) W 260 0 min 0,000 mm 22 W/m 10,5 C 9,0 C 16,1 km/h (3 Bft)
25.04.2018 07:48 11,1 C 11,1 C 11,1 C 11,1 C 10,6 C 96 % 16 cb 1001,1 hPa 0,0 l/m 5,2 km/h (1 Bft) W-SW 240 0 min 0,000 mm 16 W/m 10,5 C 11,1 C 9,7 km/h (2 Bft)
25.04.2018 07:47 11,1 C 11,1 C 11,1 C 11,1 C 10,6 C 96 % 16 cb 1001,2 hPa 0,0 l/m 6,9 km/h (2 Bft) S 190 0 min 0,000 mm 12 W/m 10,5 C 10,8 C 17,7 km/h (3 Bft)
25.04.2018 07:46 11,1 C 11,1 C 11,1 C 11,1 C 10,6 C 96 % 16 cb 1001,1 hPa 0,0 l/m 6,5 km/h (2 Bft) SW 228 0 min 0,000 mm 12 W/m 10,5 C 11,1 C 12,9 km/h (3 Bft)
25.04.2018 07:45 11,1 C 11,1 C 11,1 C 11,1 C 10,6 C 96 % 16 cb 1001,1 hPa 0,2 l/m 9,5 km/h (2 Bft) SW 216 0 min 0,000 mm 14 W/m 10,5 C 9,1 C 17,7 km/h (3 Bft)
25.04.2018 07:44 11,1 C 11,1 C 11,1 C 11,1 C 10,6 C 96 % 16 cb 1001,1 hPa 0,0 l/m 8,7 km/h (2 Bft) SW 227 0 min 0,000 mm 20 W/m 10,5 C 9,6 C 12,9 km/h (3 Bft)
25.04.2018 07:43 11,1 C 11,1 C 11,1 C 11,1 C 10,6 C 96 % 16 cb 1001,1 hPa 0,0 l/m 8,0 km/h (2 Bft) SW 235 0 min 0,000 mm 19 W/m 10,5 C 10,0 C 11,3 km/h (2 Bft)
25.04.2018 07:42 11,1 C 11,1 C 11,1 C 11,1 C 10,6 C 96 % 16 cb 1001,1 hPa 0,0 l/m 7,0 km/h (2 Bft) W-SW 244 0 min 0,000 mm 19 W/m 10,5 C 10,7 C 12,9 km/h (3 Bft)
25.04.2018 07:41 11,1 C 11,1 C 11,1 C 11,1 C 10,6 C 96 % 16 cb 1001,1 hPa 0,0 l/m 5,5 km/h (2 Bft) W-SW 247 0 min 0,000 mm 21 W/m 10,5 C 11,1 C 9,7 km/h (2 Bft)
25.04.2018 07:40 11,1 C 11,1 C 11,1 C 11,1 C 10,6 C 96 % 16 cb 1001,1 hPa 0,0 l/m 2,1 km/h (1 Bft) S 179 0 min 0,000 mm 30 W/m 10,5 C 11,1 C 4,8 km/h (1 Bft)
25.04.2018 07:39 11,1 C 11,1 C 11,1 C 11,1 C 10,6 C 96 % 16 cb 1001,1 hPa 0,0 l/m 10,5 km/h (2 Bft) SW 230 0 min 0,000 mm 39 W/m 10,5 C 8,5 C 22,5 km/h (4 Bft)
25.04.2018 07:38 11,1 C 11,1 C 11,1 C 11,1 C 10,6 C 96 % 16 cb 1001,1 hPa 0,0 l/m 6,2 km/h (2 Bft) SO 134 0 min 0,000 mm 30 W/m 10,5 C 11,1 C 9,7 km/h (2 Bft)
25.04.2018 07:37 11,1 C 11,1 C 11,1 C 11,1 C 10,6 C 96 % 16 cb 1001,1 hPa 0,0 l/m 8,1 km/h (2 Bft) S-SW 209 0 min 0,000 mm 22 W/m 10,5 C 9,9 C 19,3 km/h (3 Bft)
25.04.2018 07:36 11,1 C 11,1 C 11,1 C 11,1 C 10,6 C 96 % 16 cb 1001,0 hPa 0,0 l/m 7,4 km/h (2 Bft) SW 221 0 min 0,000 mm 25 W/m 10,5 C 10,4 C 16,1 km/h (3 Bft)
25.04.2018 07:35 11,0 C 11,1 C 11,1 C 11,1 C 10,6 C 96 % 16 cb 1001,1 hPa 0,0 l/m 10,0 km/h (2 Bft) SW 215 0 min 0,000 mm 26 W/m 10,4 C 8,7 C 19,3 km/h (3 Bft)
25.04.2018 07:34 11,0 C 11,1 C 11,1 C 11,1 C 10,6 C 96 % 16 cb 1001,1 hPa 0,0 l/m 6,0 km/h (2 Bft) S 187 0 min 0,000 mm 28 W/m 10,4 C 11,0 C 11,3 km/h (2 Bft)
25.04.2018 07:33 11,0 C 11,1 C 11,1 C 11,1 C 10,6 C 96 % 16 cb 1001,1 hPa 0,0 l/m 5,0 km/h (1 Bft) S-SW 193 0 min 0,000 mm 28 W/m 10,4 C 11,0 C 9,7 km/h (2 Bft)
25.04.2018 07:32 11,0 C 11,1 C 11,1 C 11,1 C 10,6 C 96 % 16 cb 1001,0 hPa 0,2 l/m 6,7 km/h (2 Bft) S-SW 212 0 min 0,000 mm 22 W/m 10,4 C 10,8 C 12,9 km/h (3 Bft)
25.04.2018 07:31 11,0 C 11,1 C 11,1 C 11,1 C 10,6 C 96 % 16 cb 1001,0 hPa 0,0 l/m 14,1 km/h (3 Bft) W-SW 237 0 min 0,000 mm 15 W/m 10,4 C 6,7 C 20,9 km/h (4 Bft)
25.04.2018 07:30 11,0 C 11,1 C 11,1 C 11,1 C 10,6 C 96 % 16 cb 1001,0 hPa 0,0 l/m 10,1 km/h (2 Bft) SW 230 0 min 0,000 mm 11 W/m 10,4 C 8,6 C 19,3 km/h (3 Bft)
25.04.2018 07:29 11,0 C 11,1 C 11,1 C 11,1 C 10,6 C 96 % 16 cb 1001,0 hPa 0,0 l/m 10,3 km/h (2 Bft) W-SW 237 0 min 0,000 mm 9 W/m 10,4 C 8,5 C 17,7 km/h (3 Bft)
25.04.2018 07:28 10,9 C 11,1 C 11,1 C 11,1 C 10,6 C 96 % 16 cb 1001,0 hPa 0,0 l/m 9,6 km/h (2 Bft) S-SO 162 0 min 0,000 mm 7 W/m 10,3 C 8,8 C 14,5 km/h (3 Bft)
25.04.2018 07:27 10,9 C 11,1 C 11,1 C 11,1 C 10,6 C 96 % 16 cb 1001,0 hPa 0,0 l/m 12,0 km/h (2 Bft) SW 236 0 min 0,000 mm 8 W/m 10,3 C 7,6 C 22,5 km/h (4 Bft)
25.04.2018 07:26 10,9 C 11,1 C 11,1 C 11,1 C 10,6 C 96 % 16 cb 1001,0 hPa 0,0 l/m 12,6 km/h (3 Bft) SW 215 0 min 0,000 mm 10 W/m 10,3 C 7,3 C 24,1 km/h (4 Bft)
25.04.2018 07:25 10,9 C 11,1 C 11,1 C 11,1 C 10,6 C 96 % 16 cb 1001,1 hPa 0,0 l/m 8,0 km/h (2 Bft) W-SW 246 0 min 0,000 mm 12 W/m 10,3 C 9,8 C 16,1 km/h (3 Bft)
25.04.2018 07:24 10,9 C 11,1 C 11,1 C 11,1 C 10,6 C 96 % 16 cb 1001,1 hPa 0,0 l/m 6,6 km/h (2 Bft) SW 231 0 min 0,000 mm 16 W/m 10,3 C 10,8 C 12,9 km/h (3 Bft)
25.04.2018 07:23 10,9 C 11,1 C 11,1 C 11,1 C 10,6 C 96 % 16 cb 1001,2 hPa 0,0 l/m 8,2 km/h (2 Bft) S-SW 194 0 min 0,000 mm 16 W/m 10,3 C 9,7 C 17,7 km/h (3 Bft)
25.04.2018 07:22 10,9 C 11,1 C 11,1 C 11,1 C 10,6 C 96 % 16 cb 1001,2 hPa 0,0 l/m 10,2 km/h (2 Bft) S-SW 201 0 min 0,000 mm 18 W/m 10,3 C 8,5 C 14,5 km/h (3 Bft)
25.04.2018 07:21 10,9 C 11,1 C 11,1 C 11,1 C 10,6 C 96 % 16 cb 1001,1 hPa 0,0 l/m 4,7 km/h (1 Bft) S 173 0 min 0,000 mm 21 W/m 10,3 C 10,9 C 8,0 km/h (2 Bft)
25.04.2018 07:20 10,9 C 11,1 C 11,1 C 11,1 C 10,6 C 96 % 16 cb 1001,2 hPa 0,0 l/m 7,9 km/h (2 Bft) S-SW 208 0 min 0,000 mm 22 W/m 10,3 C 9,9 C 16,1 km/h (3 Bft)
25.04.2018 07:19 10,9 C 11,1 C 11,1 C 11,1 C 10,6 C 96 % 16 cb 1001,2 hPa 0,0 l/m 9,7 km/h (2 Bft) W-SW 240 0 min 0,000 mm 26 W/m 10,3 C 8,8 C 16,1 km/h (3 Bft)
25.04.2018 07:18 10,9 C 11,1 C 11,1 C 11,1 C 10,6 C 96 % 16 cb 1001,2 hPa 0,0 l/m 5,9 km/h (2 Bft) W-SW 248 0 min 0,000 mm 25 W/m 10,3 C 10,9 C 11,3 km/h (2 Bft)
25.04.2018 07:17 10,8 C 11,1 C 11,1 C 11,1 C 10,6 C 96 % 16 cb 1001,2 hPa 0,0 l/m 6,0 km/h (2 Bft) SW 217 0 min 0,000 mm 24 W/m 10,2 C 10,8 C 11,3 km/h (2 Bft)
25.04.2018 07:16 10,8 C 11,1 C 11,1 C 11,1 C 10,6 C 96 % 16 cb 1001,3 hPa 0,0 l/m 11,1 km/h (2 Bft) S-SW 207 0 min 0,000 mm 22 W/m 10,2 C 7,9 C 16,1 km/h (3 Bft)
25.04.2018 07:15 10,8 C 11,1 C 11,1 C 11,1 C 10,6 C 96 % 16 cb 1001,2 hPa 0,0 l/m 8,4 km/h (2 Bft) SW 215 0 min 0,000 mm 21 W/m 10,2 C 9,4 C 14,5 km/h (3 Bft)
25.04.2018 07:14 10,8 C 11,1 C 11,1 C 11,1 C 10,6 C 96 % 16 cb 1001,2 hPa 0,0 l/m 10,4 km/h (2 Bft) SW 235 0 min 0,000 mm 22 W/m 10,2 C 8,3 C 16,1 km/h (3 Bft)
25.04.2018 07:13 10,8 C 11,1 C 11,1 C 11,1 C 10,6 C 96 % 16 cb 1001,2 hPa 0,0 l/m 2,1 km/h (1 Bft) SW 228 0 min 0,000 mm 21 W/m 10,2 C 10,8 C 4,8 km/h (1 Bft)
25.04.2018 07:12 10,8 C 11,1 C 11,1 C 11,1 C 10,6 C 96 % 16 cb 1001,2 hPa 0,0 l/m 5,8 km/h (2 Bft) SW 227 0 min 0,000 mm 19 W/m 10,2 C 10,8 C 14,5 km/h (3 Bft)
25.04.2018 07:11 10,8 C 11,1 C 11,1 C 11,1 C 10,6 C 96 % 16 cb 1001,2 hPa 0,0 l/m 9,5 km/h (2 Bft) W 261 0 min 0,000 mm 21 W/m 10,2 C 8,8 C 20,9 km/h (4 Bft)
25.04.2018 07:10 10,8 C 11,1 C 11,1 C 11,1 C 10,6 C 96 % 16 cb 1001,2 hPa 0,0 l/m 10,0 km/h (2 Bft) W 265 0 min 0,000 mm 21 W/m 10,2 C 8,5 C 16,1 km/h (3 Bft)
25.04.2018 07:09 10,8 C 11,1 C 11,1 C 11,1 C 10,6 C 96 % 16 cb 1001,2 hPa 0,0 l/m 5,9 km/h (2 Bft) W-SW 241 0 min 0,000 mm 19 W/m 10,2 C 10,8 C 11,3 km/h (2 Bft)
25.04.2018 07:08 10,8 C 11,1 C 11,1 C 11,1 C 10,6 C 96 % 16 cb 1001,2 hPa 0,0 l/m 4,9 km/h (1 Bft) S-SW 213 0 min 0,000 mm 16 W/m 10,2 C 10,8 C 12,9 km/h (3 Bft)
25.04.2018 07:07 10,7 C 11,1 C 11,1 C 11,1 C 10,6 C 96 % 16 cb 1001,2 hPa 0,0 l/m 7,2 km/h (2 Bft) W 269 0 min 0,000 mm 14 W/m 10,1 C 10,1 C 11,3 km/h (2 Bft)
25.04.2018 07:06 10,7 C 11,1 C 11,1 C 11,1 C 10,6 C 96 % 16 cb 1001,2 hPa 0,0 l/m 10,5 km/h (2 Bft) SW 226 0 min 0,000 mm 14 W/m 10,1 C 8,1 C 22,5 km/h (4 Bft)
25.04.2018 07:05 10,7 C 11,1 C 11,1 C 11,1 C 10,6 C 96 % 16 cb 1001,2 hPa 0,0 l/m 8,4 km/h (2 Bft) SW 218 0 min 0,000 mm 13 W/m 10,1 C 9,3 C 12,9 km/h (3 Bft)
25.04.2018 07:04 10,7 C 11,1 C 11,1 C 11,1 C 10,6 C 96 % 16 cb 1001,2 hPa 0,0 l/m 3,2 km/h (1 Bft) W-SW 245 0 min 0,000 mm 12 W/m 10,1 C 10,7 C 11,3 km/h (2 Bft)
25.04.2018 07:03 10,7 C 11,1 C 11,1 C 11,1 C 10,6 C 96 % 16 cb 1001,2 hPa 0,0 l/m 4,4 km/h (1 Bft) W-SW 241 0 min 0,000 mm 11 W/m 10,1 C 10,7 C 9,7 km/h (2 Bft)
25.04.2018 07:02 10,7 C 11,1 C 11,1 C 11,1 C 10,6 C 96 % 16 cb 1001,2 hPa 0,0 l/m 9,7 km/h (2 Bft) S-SW 209 0 min 0,000 mm 11 W/m 10,1 C 8,5 C 20,9 km/h (4 Bft)
25.04.2018 07:01 10,7 C 11,1 C 11,1 C 11,1 C 10,6 C 96 % 16 cb 1001,2 hPa 0,0 l/m 6,8 km/h (2 Bft) SW 231 0 min 0,000 mm 11 W/m 10,1 C 10,4 C 14,5 km/h (3 Bft)
25.04.2018 07:00 10,7 C 11,1 C 11,1 C 11,1 C 10,6 C 96 % 16 cb 1001,2 hPa 0,0 l/m 8,9 km/h (2 Bft) SW 236 0 min 0,000 mm 12 W/m 10,1 C 9,0 C 14,5 km/h (3 Bft)
25.04.2018 06:59 10,7 C 11,1 C 11,1 C 11,1 C 10,6 C 96 % 16 cb 1001,3 hPa 0,0 l/m 5,3 km/h (1 Bft) SW 214 0 min 0,000 mm 16 W/m 10,1 C 10,7 C 14,5 km/h (3 Bft)
25.04.2018 06:58 10,7 C 11,1 C 11,1 C 11,1 C 10,6 C 96 % 16 cb 1001,3 hPa 0,0 l/m 5,2 km/h (1 Bft) W 273 0 min 0,000 mm 19 W/m 10,1 C 10,7 C 12,9 km/h (3 Bft)
25.04.2018 06:57 10,7 C 11,1 C 11,1 C 11,1 C 10,6 C 96 % 16 cb 1001,3 hPa 0,0 l/m 8,0 km/h (2 Bft) S-SW 203 0 min 0,000 mm 22 W/m 10,1 C 9,6 C 16,1 km/h (3 Bft)
25.04.2018 06:56 10,6 C 11,1 C 11,1 C 11,1 C 10,6 C 96 % 16 cb 1001,3 hPa 0,0 l/m 9,5 km/h (2 Bft) W-SW 242 0 min 0,000 mm 23 W/m 10,0 C 8,5 C 16,1 km/h (3 Bft)
25.04.2018 06:55 10,6 C 11,1 C 11,1 C 11,1 C 10,6 C 96 % 16 cb 1001,3 hPa 0,0 l/m 10,0 km/h (2 Bft) S-SW 205 0 min 0,000 mm 22 W/m 10,0 C 8,3 C 12,9 km/h (3 Bft)
25.04.2018 06:54 10,6 C 11,1 C 11,1 C 11,1 C 10,6 C 96 % 16 cb 1001,3 hPa 0,0 l/m 9,9 km/h (2 Bft) S 182 0 min 0,000 mm 17 W/m 10,0 C 8,3 C 19,3 km/h (3 Bft)
25.04.2018 06:53 10,6 C 11,1 C 11,1 C 11,1 C 10,6 C 96 % 16 cb 1001,3 hPa 0,0 l/m 4,7 km/h (1 Bft) N-NW 348 0 min 0,000 mm 13 W/m 10,0 C 10,6 C 8,0 km/h (2 Bft)
25.04.2018 06:52 10,6 C 11,1 C 11,1 C 11,1 C 10,6 C 96 % 16 cb 1001,3 hPa 0,0 l/m 6,6 km/h (2 Bft) S-SO 159 0 min 0,000 mm 12 W/m 10,0 C 10,5 C 14,5 km/h (3 Bft)
25.04.2018 06:51 10,6 C 11,1 C 11,1 C 11,1 C 10,6 C 96 % 16 cb 1001,2 hPa 0,0 l/m 11,5 km/h (2 Bft) SW 224 0 min 0,000 mm 11 W/m 10,0 C 7,5 C 17,7 km/h (3 Bft)
25.04.2018 06:50 10,6 C 11,1 C 11,1 C 11,1 C 10,6 C 96 % 16 cb 1001,2 hPa 0,0 l/m 9,2 km/h (2 Bft) S-SW 194 0 min 0,000 mm 11 W/m 10,0 C 8,7 C 17,7 km/h (3 Bft)
25.04.2018 06:49 10,6 C 11,1 C 11,1 C 11,1 C 10,6 C 96 % 16 cb 1001,2 hPa 0,0 l/m 8,1 km/h (2 Bft) S 190 0 min 0,000 mm 11 W/m 10,0 C 9,4 C 12,9 km/h (3 Bft)
25.04.2018 06:48 10,6 C 11,1 C 11,1 C 11,1 C 10,6 C 96 % 16 cb 1001,3 hPa 0,0 l/m 6,6 km/h (2 Bft) S 177 0 min 0,000 mm 12 W/m 10,0 C 10,5 C 11,3 km/h (2 Bft)
25.04.2018 06:47 10,6 C 11,1 C 11,1 C 11,1 C 10,6 C 96 % 16 cb 1001,3 hPa 0,0 l/m 6,0 km/h (2 Bft) SW 227 0 min 0,000 mm 12 W/m 10,0 C 10,6 C 9,7 km/h (2 Bft)
25.04.2018 06:46 10,6 C 11,1 C 11,1 C 11,1 C 10,6 C 96 % 16 cb 1001,3 hPa 0,0 l/m 8,0 km/h (2 Bft) S 188 0 min 0,000 mm 12 W/m 10,0 C 9,5 C 17,7 km/h (3 Bft)
25.04.2018 06:45 10,6 C 11,1 C 11,1 C 11,1 C 10,6 C 96 % 16 cb 1001,4 hPa 0,0 l/m 2,3 km/h (1 Bft) S-SW 202 0 min 0,000 mm 12 W/m 10,0 C 10,6 C 4,8 km/h (1 Bft)
25.04.2018 06:44 10,6 C 11,1 C 11,1 C 11,1 C 10,6 C 96 % 16 cb 1001,4 hPa 0,0 l/m 6,8 km/h (2 Bft) SW 218 0 min 0,000 mm 12 W/m 10,0 C 10,3 C 9,7 km/h (2 Bft)
25.04.2018 06:43 10,6 C 11,1 C 11,1 C 11,1 C 10,6 C 96 % 16 cb 1001,4 hPa 0,2 l/m 5,7 km/h (2 Bft) S-SW 201 0 min 0,000 mm 12 W/m 10,0 C 10,6 C 14,5 km/h (3 Bft)
25.04.2018 06:42 10,5 C 11,1 C 11,1 C 11,1 C 10,6 C 96 % 16 cb 1001,4 hPa 0,0 l/m 4,4 km/h (1 Bft) S-SO 158 0 min 0,000 mm 8 W/m 9,9 C 10,5 C 9,7 km/h (2 Bft)
25.04.2018 06:41 10,5 C 11,1 C 11,1 C 11,1 C 10,6 C 96 % 16 cb 1001,4 hPa 0,0 l/m 8,9 km/h (2 Bft) SW 222 0 min 0,000 mm 6 W/m 9,9 C 8,8 C 16,1 km/h (3 Bft)
25.04.2018 06:40 10,5 C 11,1 C 11,1 C 11,1 C 10,6 C 96 % 16 cb 1001,5 hPa 0,0 l/m 7,4 km/h (2 Bft) W-SW 246 0 min 0,000 mm 5 W/m 9,9 C 9,8 C 19,3 km/h (3 Bft)
25.04.2018 06:39 10,5 C 11,1 C 11,1 C 11,1 C 10,6 C 96 % 16 cb 1001,5 hPa 0,0 l/m 6,4 km/h (2 Bft) W-SW 251 0 min 0,000 mm 5 W/m 9,9 C 10,5 C 12,9 km/h (3 Bft)
25.04.2018 06:38 10,5 C 11,1 C 11,1 C 11,1 C 10,6 C 96 % 16 cb 1001,5 hPa 0,0 l/m 8,3 km/h (2 Bft) W-SW 251 0 min 0,000 mm 5 W/m 9,9 C 9,2 C 19,3 km/h (3 Bft)
25.04.2018 06:37 10,5 C 11,1 C 11,1 C 11,1 C 10,6 C 96 % 16 cb 1001,4 hPa 0,2 l/m 6,9 km/h (2 Bft) S 172 0 min 0,000 mm 7 W/m 9,9 C 10,2 C 16,1 km/h (3 Bft)
25.04.2018 06:36 10,5 C 11,1 C 11,1 C 11,1 C 10,6 C 96 % 16 cb 1001,5 hPa 0,0 l/m 8,7 km/h (2 Bft) S-SW 200 0 min 0,000 mm 7 W/m 9,9 C 8,9 C 22,5 km/h (4 Bft)
25.04.2018 06:35 10,4 C 11,1 C 11,1 C 11,1 C 10,6 C 96 % 16 cb 1001,6 hPa 0,0 l/m 10,1 km/h (2 Bft) S-SW 210 0 min 0,000 mm 5 W/m 9,8 C 8,0 C 22,5 km/h (4 Bft)
25.04.2018 06:34 10,4 C 11,1 C 11,1 C 11,1 C 10,6 C 96 % 16 cb 1001,6 hPa 0,0 l/m 13,6 km/h (3 Bft) W-SW 246 0 min 0,000 mm 5 W/m 9,8 C 6,2 C 27,4 km/h (5 Bft)
25.04.2018 06:33 10,4 C 11,1 C 11,1 C 11,1 C 10,6 C 96 % 16 cb 1001,5 hPa 0,0 l/m 6,0 km/h (2 Bft) S 184 0 min 0,000 mm 6 W/m 9,8 C 10,4 C 9,7 km/h (2 Bft)
25.04.2018 06:32 10,4 C 11,1 C 11,1 C 11,1 C 10,6 C 96 % 16 cb 1001,6 hPa 0,0 l/m 10,5 km/h (2 Bft) S-SW 213 0 min 0,000 mm 7 W/m 9,8 C 7,8 C 14,5 km/h (3 Bft)
25.04.2018 06:31 10,4 C 11,1 C 11,1 C 11,1 C 10,6 C 96 % 16 cb 1001,6 hPa 0,0 l/m 10,6 km/h (2 Bft) SW 235 0 min 0,000 mm 5 W/m 9,8 C 7,7 C 20,9 km/h (4 Bft)
25.04.2018 06:30 10,4 C 11,1 C 11,1 C 11,1 C 10,6 C 96 % 16 cb 1001,5 hPa 0,0 l/m 13,8 km/h (3 Bft) W-SW 252 0 min 0,000 mm 5 W/m 9,8 C 6,1 C 22,5 km/h (4 Bft)
25.04.2018 06:29 10,4 C 11,1 C 11,1 C 11,1 C 10,6 C 96 % 16 cb 1001,6 hPa 0,0 l/m 6,4 km/h (2 Bft) W-SW 239 0 min 0,000 mm 6 W/m 9,8 C 10,4 C 16,1 km/h (3 Bft)
25.04.2018 06:28 10,4 C 11,1 C 11,1 C 11,1 C 10,6 C 96 % 16 cb 1001,5 hPa 0,0 l/m 8,8 km/h (2 Bft) S 175 0 min 0,000 mm 7 W/m 9,8 C 8,8 C 16,1 km/h (3 Bft)
25.04.2018 06:27 10,4 C 11,1 C 11,1 C 11,1 C 10,6 C 97 % 16 cb 1001,6 hPa 0,0 l/m 11,3 km/h (2 Bft) W-SW 250 0 min 0,000 mm 8 W/m 9,9 C 7,3 C 20,9 km/h (4 Bft)
25.04.2018 06:26 10,4 C 11,1 C 11,1 C 11,1 C 10,6 C 97 % 16 cb 1001,6 hPa 0,0 l/m 8,2 km/h (2 Bft) SW 222 0 min 0,000 mm 9 W/m 9,9 C 9,1 C 27,4 km/h (5 Bft)
25.04.2018 06:25 10,3 C 11,1 C 11,1 C 11,1 C 10,6 C 97 % 16 cb 1001,6 hPa 0,0 l/m 9,6 km/h (2 Bft) SW 229 0 min 0,000 mm 9 W/m 9,8 C 8,2 C 16,1 km/h (3 Bft)
25.04.2018 06:24 10,4 C 11,1 C 11,1 C 11,1 C 10,6 C 97 % 16 cb 1001,6 hPa 0,0 l/m 6,3 km/h (2 Bft) W-NW 295 0 min 0,000 mm 9 W/m 9,9 C 10,4 C 9,7 km/h (2 Bft)
25.04.2018 06:23 10,3 C 11,1 C 11,1 C 11,1 C 10,6 C 97 % 16 cb 1001,6 hPa 0,0 l/m 5,0 km/h (1 Bft) SW 230 0 min 0,000 mm 9 W/m 9,8 C 10,3 C 9,7 km/h (2 Bft)
25.04.2018 06:22 10,3 C 11,1 C 11,1 C 11,1 C 10,6 C 97 % 16 cb 1001,5 hPa 0,0 l/m 8,3 km/h (2 Bft) S 179 0 min 0,000 mm 9 W/m 9,8 C 9,0 C 16,1 km/h (3 Bft)
25.04.2018 06:21 10,3 C 11,1 C 11,1 C 11,1 C 10,6 C 97 % 16 cb 1001,6 hPa 0,0 l/m 5,8 km/h (2 Bft) SW 229 0 min 0,000 mm 8 W/m 9,8 C 10,3 C 14,5 km/h (3 Bft)
25.04.2018 06:20 10,3 C 11,1 C 11,1 C 11,1 C 10,6 C 97 % 16 cb 1001,6 hPa 0,0 l/m 7,2 km/h (2 Bft) SW 221 0 min 0,000 mm 5 W/m 9,8 C 9,7 C 11,3 km/h (2 Bft)
25.04.2018 06:19 10,3 C 11,1 C 11,1 C 11,1 C 10,6 C 97 % 16 cb 1001,7 hPa 0,0 l/m 9,2 km/h (2 Bft) SW 230 0 min 0,000 mm 4 W/m 9,8 C 8,4 C 19,3 km/h (3 Bft)
25.04.2018 06:18 10,3 C 11,1 C 11,1 C 11,1 C 10,6 C 97 % 16 cb 1001,7 hPa 0,0 l/m 4,7 km/h (1 Bft) S-SW 197 0 min 0,000 mm 2 W/m 9,8 C 10,3 C 12,9 km/h (3 Bft)
25.04.2018 06:17 10,2 C 11,1 C 11,1 C 11,1 C 10,6 C 97 % 16 cb 1001,6 hPa 0,0 l/m 4,3 km/h (1 Bft) W 272 0 min 0,000 mm 5 W/m 9,7 C 10,2 C 9,7 km/h (2 Bft)
25.04.2018 06:16 10,2 C 11,1 C 11,1 C 11,1 C 10,6 C 96 % 16 cb 1001,7 hPa 0,0 l/m 5,8 km/h (2 Bft) S 176 0 min 0,000 mm 5 W/m 9,6 C 10,2 C 14,5 km/h (3 Bft)
25.04.2018 06:15 10,2 C 11,1 C 11,1 C 11,1 C 10,6 C 96 % 16 cb 1001,7 hPa 0,0 l/m 6,6 km/h (2 Bft) W-SW 242 0 min 0,000 mm 5 W/m 9,6 C 10,1 C 12,9 km/h (3 Bft)
25.04.2018 06:14 10,2 C 11,1 C 11,1 C 11,1 C 10,6 C 96 % 16 cb 1001,7 hPa 0,0 l/m 6,2 km/h (2 Bft) SW 223 0 min 0,000 mm 4 W/m 9,6 C 10,2 C 12,9 km/h (3 Bft)
25.04.2018 06:13 10,2 C 11,1 C 11,1 C 11,1 C 10,6 C 96 % 16 cb 1001,7 hPa 0,0 l/m 4,3 km/h (1 Bft) S-SW 211 0 min 0,000 mm 0 W/m 9,6 C 10,2 C 8,0 km/h (2 Bft)
25.04.2018 06:12 10,1 C 11,1 C 11,1 C 11,1 C 10,6 C 96 % 16 cb 1001,7 hPa 0,0 l/m 11,5 km/h (2 Bft) W-SW 248 0 min 0,000 mm 0 W/m 9,5 C 6,9 C 20,9 km/h (4 Bft)
25.04.2018 06:11 10,1 C 11,1 C 11,1 C 11,1 C 10,6 C 96 % 16 cb 1001,7 hPa 0,0 l/m 5,6 km/h (2 Bft) W-SW 240 0 min 0,000 mm 0 W/m 9,5 C 10,1 C 12,9 km/h (3 Bft)
25.04.2018 06:10 10,1 C 11,1 C 11,1 C 11,1 C 10,6 C 96 % 16 cb 1001,7 hPa 0,0 l/m 10,9 km/h (2 Bft) S-SW 211 0 min 0,000 mm 0 W/m 9,5 C 7,2 C 14,5 km/h (3 Bft)
25.04.2018 06:09 10,1 C 11,1 C 11,1 C 11,1 C 10,6 C 96 % 16 cb 1001,8 hPa 0,0 l/m 4,4 km/h (1 Bft) S-SO 166 0 min 0,000 mm 0 W/m 9,5 C 10,1 C 16,1 km/h (3 Bft)
25.04.2018 06:08 10,1 C 11,1 C 11,1 C 11,1 C 10,6 C 96 % 16 cb 1001,8 hPa 0,0 l/m 4,2 km/h (1 Bft) S-SW 211 0 min 0,000 mm 0 W/m 9,5 C 10,1 C 9,7 km/h (2 Bft)
25.04.2018 06:07 10,0 C 11,1 C 11,1 C 11,1 C 10,6 C 96 % 16 cb 1001,8 hPa 0,0 l/m 4,6 km/h (1 Bft) SW 217 0 min 0,000 mm 0 W/m 9,4 C 10,0 C 9,7 km/h (2 Bft)
25.04.2018 06:06 10,0 C 11,1 C 11,1 C 11,1 C 10,6 C 97 % 16 cb 1001,9 hPa 0,0 l/m 4,9 km/h (1 Bft) SW 215 0 min 0,000 mm 0 W/m 9,5 C 10,0 C 9,7 km/h (2 Bft)
25.04.2018 06:05 9,9 C 11,1 C 11,1 C 11,1 C 10,6 C 97 % 16 cb 1001,9 hPa 0,0 l/m 2,1 km/h (1 Bft) S-SW 199 0 min 0,000 mm 0 W/m 9,4 C 9,9 C 8,0 km/h (2 Bft)
25.04.2018 06:04 9,9 C 11,1 C 11,1 C 11,1 C 10,6 C 97 % 16 cb 1001,8 hPa 0,0 l/m 10,5 km/h (2 Bft) SW 223 0 min 0,000 mm 0 W/m 9,4 C 7,2 C 14,5 km/h (3 Bft)
25.04.2018 06:03 9,9 C 11,1 C 11,1 C 11,1 C 10,6 C 97 % 16 cb 1001,8 hPa 0,0 l/m 1,1 km/h (1 Bft) S 179 0 min 0,000 mm 0 W/m 9,4 C 9,9 C 6,4 km/h (2 Bft)
25.04.2018 06:02 9,9 C 11,1 C 11,1 C 11,1 C 10,6 C 97 % 16 cb 1001,9 hPa 0,0 l/m 2,9 km/h (1 Bft) S-SW 209 0 min 0,000 mm 0 W/m 9,4 C 9,9 C 6,4 km/h (2 Bft)
25.04.2018 06:01 9,9 C 11,1 C 11,1 C 11,1 C 10,6 C 96 % 16 cb 1001,9 hPa 0,0 l/m 4,7 km/h (1 Bft) SO 139 0 min 0,000 mm 0 W/m 9,3 C 9,9 C 9,7 km/h (2 Bft)
25.04.2018 06:00 9,8 C 11,1 C 11,1 C 11,1 C 10,6 C 96 % 16 cb 1001,9 hPa 0,0 l/m 5,3 km/h (1 Bft) S-SW 194 0 min 0,000 mm 0 W/m 9,2 C 9,8 C 12,9 km/h (3 Bft)
25.04.2018 05:59 9,8 C 11,1 C 11,1 C 11,1 C 10,6 C 96 % 16 cb 1001,9 hPa 0,0 l/m 5,1 km/h (1 Bft) SW 219 0 min 0,000 mm 0 W/m 9,2 C 9,8 C 14,5 km/h (3 Bft)
25.04.2018 05:58 9,8 C 11,1 C 11,1 C 11,1 C 10,6 C 96 % 16 cb 1002,0 hPa 0,0 l/m 4,0 km/h (1 Bft) S-SW 192 0 min 0,000 mm 0 W/m 9,2 C 9,8 C 9,7 km/h (2 Bft)
25.04.2018 05:57 9,8 C 11,1 C 11,1 C 11,1 C 10,6 C 96 % 16 cb 1002,0 hPa 0,0 l/m 6,3 km/h (2 Bft) S-SW 202 0 min 0,000 mm 0 W/m 9,2 C 9,8 C 11,3 km/h (2 Bft)
25.04.2018 05:56 9,8 C 11,1 C 11,1 C 11,1 C 10,6 C 96 % 16 cb 1002,0 hPa 0,0 l/m 0,9 km/h (0 Bft) SW 215 0 min 0,000 mm 0 W/m 9,2 C 9,8 C 3,2 km/h (1 Bft)
25.04.2018 05:55 9,7 C 11,1 C 11,1 C 11,1 C 10,6 C 96 % 16 cb 1002,0 hPa 0,0 l/m 3,7 km/h (1 Bft) S-SO 159 0 min 0,000 mm 0 W/m 9,1 C 9,7 C 8,0 km/h (2 Bft)
25.04.2018 05:54 9,7 C 11,1 C 11,1 C 11,1 C 10,6 C 96 % 16 cb 1002,1 hPa 0,0 l/m 2,8 km/h (1 Bft) S 178 0 min 0,000 mm 0 W/m 9,1 C 9,7 C 8,0 km/h (2 Bft)
25.04.2018 05:53 9,7 C 11,1 C 11,1 C 11,1 C 10,6 C 96 % 16 cb 1002,1 hPa 0,0 l/m 5,5 km/h (2 Bft) S-SW 211 0 min 0,000 mm 0 W/m 9,1 C 9,7 C 8,0 km/h (2 Bft)
25.04.2018 05:52 9,7 C 11,1 C 11,1 C 11,1 C 10,6 C 96 % 16 cb 1002,1 hPa 0,0 l/m 3,6 km/h (1 Bft) S 180 0 min 0,000 mm 0 W/m 9,1 C 9,7 C 9,7 km/h (2 Bft)
25.04.2018 05:51 9,7 C 11,1 C 11,1 C 11,1 C 10,6 C 96 % 16 cb 1002,2 hPa 0,0 l/m 6,2 km/h (2 Bft) SW 229 0 min 0,000 mm 0 W/m 9,1 C 9,7 C 12,9 km/h (3 Bft)
25.04.2018 05:50 9,7 C 11,1 C 11,1 C 11,1 C 10,6 C 96 % 16 cb 1002,2 hPa 0,0 l/m 4,1 km/h (1 Bft) S 173 0 min 0,000 mm 0 W/m 9,1 C 9,7 C 6,4 km/h (2 Bft)
25.04.2018 05:49 9,7 C 11,1 C 11,1 C 11,1 C 10,6 C 96 % 16 cb 1002,2 hPa 0,0 l/m 3,3 km/h (1 Bft) S-SW 211 0 min 0,000 mm 0 W/m 9,1 C 9,7 C 6,4 km/h (2 Bft)
25.04.2018 05:48 9,7 C 11,1 C 11,1 C 11,1 C 10,6 C 96 % 16 cb 1002,2 hPa 0,0 l/m 4,4 km/h (1 Bft) SO 140 0 min 0,000 mm 0 W/m 9,1 C 9,7 C 9,7 km/h (2 Bft)
25.04.2018 05:47 9,7 C 11,1 C 11,1 C 11,1 C 10,6 C 96 % 16 cb 1002,2 hPa 0,0 l/m 6,2 km/h (2 Bft) SO 136 0 min 0,000 mm 0 W/m 9,1 C 9,7 C 17,7 km/h (3 Bft)
25.04.2018 05:46 9,6 C 11,1 C 11,1 C 11,1 C 10,6 C 96 % 16 cb 1002,2 hPa 0,0 l/m 4,1 km/h (1 Bft) SO 134 0 min 0,000 mm 0 W/m 9,0 C 9,6 C 6,4 km/h (2 Bft)
25.04.2018 05:45 9,6 C 11,1 C 11,1 C 11,1 C 10,6 C 96 % 16 cb 1002,3 hPa 0,0 l/m 3,6 km/h (1 Bft) S-SO 148 0 min 0,000 mm 0 W/m 9,0 C 9,6 C 9,7 km/h (2 Bft)
25.04.2018 05:44 9,6 C 11,1 C 11,1 C 11,1 C 10,6 C 96 % 16 cb 1002,3 hPa 0,0 l/m 5,6 km/h (2 Bft) W-SW 244 0 min 0,000 mm 0 W/m 9,0 C 9,6 C 11,3 km/h (2 Bft)
25.04.2018 05:43 9,6 C 11,1 C 11,1 C 11,1 C 10,6 C 96 % 16 cb 1002,3 hPa 0,0 l/m 4,5 km/h (1 Bft) SO 134 0 min 0,000 mm 0 W/m 9,0 C 9,6 C 11,3 km/h (2 Bft)
25.04.2018 05:42 9,6 C 11,1 C 11,1 C 11,1 C 10,6 C 96 % 16 cb 1002,3 hPa 0,0 l/m 4,2 km/h (1 Bft) S-SW 196 0 min 0,000 mm 0 W/m 9,0 C 9,6 C 9,7 km/h (2 Bft)
25.04.2018 05:41 9,6 C 11,1 C 11,1 C 11,1 C 10,6 C 96 % 16 cb 1002,4 hPa 0,0 l/m 5,0 km/h (1 Bft) S 186 0 min 0,000 mm 0 W/m 9,0 C 9,6 C 8,0 km/h (2 Bft)
25.04.2018 05:40 9,6 C 11,1 C 11,1 C 11,1 C 10,6 C 96 % 16 cb 1002,4 hPa 0,0 l/m 4,2 km/h (1 Bft) S-SO 155 0 min 0,000 mm 0 W/m 9,0 C 9,6 C 9,7 km/h (2 Bft)
25.04.2018 05:39 9,6 C 11,1 C 11,1 C 11,1 C 10,6 C 96 % 16 cb 1002,3 hPa 0,0 l/m 3,8 km/h (1 Bft) S-SO 155 0 min 0,000 mm 0 W/m 9,0 C 9,6 C 6,4 km/h (2 Bft)
25.04.2018 05:38 9,5 C 11,1 C 11,1 C 11,1 C 10,6 C 96 % 16 cb 1002,4 hPa 0,0 l/m 4,8 km/h (1 Bft) O 101 0 min 0,000 mm 0 W/m 8,9 C 9,5 C 11,3 km/h (2 Bft)
25.04.2018 05:37 9,5 C 11,1 C 11,1 C 11,1 C 10,6 C 96 % 16 cb 1002,4 hPa 0,0 l/m 5,6 km/h (2 Bft) S-SW 199 0 min 0,000 mm 0 W/m 8,9 C 9,5 C 9,7 km/h (2 Bft)
25.04.2018 05:36 9,5 C 11,1 C 11,1 C 11,1 C 10,6 C 96 % 16 cb 1002,4 hPa 0,2 l/m 3,8 km/h (1 Bft) S 169 0 min 0,000 mm 0 W/m 8,9 C 9,5 C 6,4 km/h (2 Bft)
25.04.2018 05:35 9,5 C 11,1 C 11,1 C 11,1 C 10,6 C 96 % 16 cb 1002,5 hPa 0,0 l/m 2,8 km/h (1 Bft) SW 225 0 min 0,000 mm 0 W/m 8,9 C 9,5 C 4,8 km/h (1 Bft)
25.04.2018 05:34 9,5 C 11,1 C 11,1 C 11,1 C 10,6 C 96 % 16 cb 1002,4 hPa 0,0 l/m 4,8 km/h (1 Bft) S-SO 155 0 min 0,000 mm 0 W/m 8,9 C 9,5 C 12,9 km/h (3 Bft)
25.04.2018 05:33 9,5 C 11,1 C 11,1 C 11,1 C 10,6 C 96 % 16 cb 1002,5 hPa 0,0 l/m 2,9 km/h (1 Bft) SO 146 0 min 0,000 mm 0 W/m 8,9 C 9,5 C 4,8 km/h (1 Bft)
25.04.2018 05:32 9,4 C 11,1 C 11,1 C 11,1 C 10,6 C 96 % 16 cb 1002,5 hPa 0,0 l/m 4,4 km/h (1 Bft) S-SW 192 0 min 0,000 mm 0 W/m 8,8 C 9,4 C 8,0 km/h (2 Bft)
25.04.2018 05:31 9,4 C 11,1 C 11,1 C 11,1 C 10,6 C 96 % 16 cb 1002,5 hPa 0,0 l/m 6,0 km/h (2 Bft) O-SO 123 0 min 0,000 mm 0 W/m 8,8 C 9,4 C 8,0 km/h (2 Bft)
25.04.2018 05:30 9,4 C 11,1 C 11,1 C 11,1 C 10,6 C 96 % 16 cb 1002,5 hPa 0,0 l/m 8,6 km/h (2 Bft) S-SO 157 0 min 0,000 mm 0 W/m 8,8 C 7,8 C 11,3 km/h (2 Bft)
25.04.2018 05:29 9,4 C 11,1 C 11,1 C 11,1 C 10,6 C 96 % 16 cb 1002,5 hPa 0,0 l/m 6,8 km/h (2 Bft) SO 140 0 min 0,000 mm 0 W/m 8,8 C 9,1 C 9,7 km/h (2 Bft)
25.04.2018 05:28 9,4 C 11,1 C 11,1 C 11,1 C 10,6 C 96 % 16 cb 1002,5 hPa 0,0 l/m 6,9 km/h (2 Bft) S-SO 151 0 min 0,000 mm 0 W/m 8,8 C 9,0 C 11,3 km/h (2 Bft)
25.04.2018 05:27 9,4 C 11,1 C 11,1 C 11,1 C 10,6 C 96 % 16 cb 1002,6 hPa 0,0 l/m 5,4 km/h (2 Bft) S 177 0 min 0,000 mm 0 W/m 8,8 C 9,4 C 9,7 km/h (2 Bft)
25.04.2018 05:26 9,3 C 11,1 C 11,1 C 11,1 C 10,6 C 96 % 16 cb 1002,5 hPa 0,0 l/m 5,0 km/h (1 Bft) S 180 0 min 0,000 mm 0 W/m 8,7 C 9,3 C 11,3 km/h (2 Bft)
25.04.2018 05:25 9,3 C 11,1 C 11,1 C 11,1 C 10,6 C 96 % 16 cb 1002,5 hPa 0,0 l/m 9,3 km/h (2 Bft) S-SO 159 0 min 0,000 mm 0 W/m 8,7 C 7,3 C 12,9 km/h (3 Bft)
25.04.2018 05:24 9,3 C 11,1 C 11,1 C 11,1 C 10,6 C 96 % 16 cb 1002,7 hPa 0,0 l/m 6,3 km/h (2 Bft) S-SO 168 0 min 0,000 mm 0 W/m 8,7 C 9,3 C 14,5 km/h (3 Bft)
25.04.2018 05:23 9,3 C 11,1 C 11,1 C 11,1 C 10,6 C 96 % 16 cb 1002,6 hPa 0,0 l/m 7,3 km/h (2 Bft) S-SO 154 0 min 0,000 mm 0 W/m 8,7 C 8,6 C 11,3 km/h (2 Bft)
25.04.2018 05:22 9,3 C 11,1 C 11,1 C 11,1 C 10,6 C 96 % 16 cb 1002,6 hPa 0,0 l/m 5,5 km/h (2 Bft) S 181 0 min 0,000 mm 0 W/m 8,7 C 9,3 C 8,0 km/h (2 Bft)
25.04.2018 05:21 9,2 C 11,1 C 11,1 C 11,1 C 10,6 C 96 % 16 cb 1002,7 hPa 0,0 l/m 5,4 km/h (2 Bft) O-SO 122 0 min 0,000 mm 0 W/m 8,6 C 9,2 C 11,3 km/h (2 Bft)
25.04.2018 05:20 9,2 C 11,1 C 11,1 C 11,1 C 10,6 C 96 % 16 cb 1002,6 hPa 0,0 l/m 1,1 km/h (1 Bft) S 188 0 min 0,000 mm 0 W/m 8,6 C 9,2 C 3,2 km/h (1 Bft)
25.04.2018 05:19 9,2 C 11,1 C 11,1 C 11,1 C 10,6 C 96 % 16 cb 1002,6 hPa 0,0 l/m 3,4 km/h (1 Bft) S-SW 194 0 min 0,000 mm 0 W/m 8,6 C 9,2 C 6,4 km/h (2 Bft)
25.04.2018 05:18 9,1 C 11,1 C 11,1 C 11,1 C 10,6 C 96 % 16 cb 1002,6 hPa 0,0 l/m 2,0 km/h (1 Bft) S 178 0 min 0,000 mm 0 W/m 8,5 C 9,1 C 4,8 km/h (1 Bft)
25.04.2018 05:17 9,1 C 11,1 C 11,1 C 11,1 C 10,6 C 96 % 16 cb 1002,7 hPa 0,0 l/m 2,6 km/h (1 Bft) S-SO 153 0 min 0,000 mm 0 W/m 8,5 C 9,1 C 4,8 km/h (1 Bft)
25.04.2018 05:16 9,1 C 11,1 C 11,1 C 11,1 C 10,6 C 96 % 16 cb 1002,7 hPa 0,0 l/m 0,9 km/h (0 Bft) S-SW 196 0 min 0,000 mm 0 W/m 8,5 C 9,1 C 3,2 km/h (1 Bft)
25.04.2018 05:15 9,1 C 11,1 C 11,1 C 11,1 C 10,6 C 96 % 16 cb 1002,7 hPa 0,0 l/m 1,3 km/h (1 Bft) S-SO 155 0 min 0,000 mm 0 W/m 8,5 C 9,1 C 3,2 km/h (1 Bft)
25.04.2018 05:14 9,0 C 11,1 C 11,1 C 11,1 C 10,6 C 96 % 16 cb 1002,7 hPa 0,0 l/m 2,5 km/h (1 Bft) S 190 0 min 0,000 mm 0 W/m 8,4 C 9,0 C 4,8 km/h (1 Bft)
25.04.2018 05:13 9,0 C 11,1 C 11,1 C 11,1 C 10,6 C 96 % 16 cb 1002,7 hPa 0,0 l/m 4,5 km/h (1 Bft) S-SO 161 0 min 0,000 mm 0 W/m 8,4 C 9,0 C 8,0 km/h (2 Bft)
25.04.2018 05:12 8,9 C 11,1 C 11,1 C 11,1 C 10,6 C 96 % 16 cb 1002,8 hPa 0,0 l/m 7,6 km/h (2 Bft) SO 145 0 min 0,000 mm 0 W/m 8,3 C 8,0 C 9,7 km/h (2 Bft)
25.04.2018 05:11 8,9 C 11,1 C 11,1 C 11,1 C 10,6 C 96 % 16 cb 1002,8 hPa 0,0 l/m 6,1 km/h (2 Bft) S-SO 148 0 min 0,000 mm 0 W/m 8,3 C 8,9 C 12,9 km/h (3 Bft)
25.04.2018 05:10 8,9 C 11,1 C 11,1 C 11,1 C 10,6 C 96 % 16 cb 1002,9 hPa 0,0 l/m 6,7 km/h (2 Bft) S-SO 149 0 min 0,000 mm 0 W/m 8,3 C 8,7 C 9,7 km/h (2 Bft)
25.04.2018 05:09 8,8 C 11,1 C 11,1 C 11,1 C 10,6 C 96 % 16 cb 1002,9 hPa 0,0 l/m 5,8 km/h (2 Bft) SO 128 0 min 0,000 mm 0 W/m 8,2 C 8,8 C 12,9 km/h (3 Bft)
25.04.2018 05:08 8,8 C 11,1 C 11,1 C 11,1 C 10,6 C 96 % 16 cb 1003,0 hPa 0,0 l/m 4,4 km/h (1 Bft) SW 221 0 min 0,000 mm 0 W/m 8,2 C 8,8 C 9,7 km/h (2 Bft)
25.04.2018 05:07 8,8 C 11,1 C 11,1 C 11,1 C 10,6 C 96 % 16 cb 1003,0 hPa 0,0 l/m 1,5 km/h (1 Bft) W-SW 244 0 min 0,000 mm 0 W/m 8,2 C 8,8 C 3,2 km/h (1 Bft)
25.04.2018 05:06 8,8 C 11,1 C 11,1 C 11,1 C 10,6 C 96 % 16 cb 1003,0 hPa 0,0 l/m 3,0 km/h (1 Bft) S-SW 207 0 min 0,000 mm 0 W/m 8,2 C 8,8 C 4,8 km/h (1 Bft)
25.04.2018 05:05 8,8 C 11,1 C 11,1 C 11,1 C 10,6 C 96 % 16 cb 1002,9 hPa 0,0 l/m 4,1 km/h (1 Bft) SW 221 0 min 0,000 mm 0 W/m 8,2 C 8,8 C 9,7 km/h (2 Bft)
25.04.2018 05:04 8,7 C 11,1 C 11,1 C 11,1 C 10,6 C 96 % 16 cb 1002,9 hPa 0,0 l/m 4,6 km/h (1 Bft) W 278 0 min 0,000 mm 0 W/m 8,1 C 8,7 C 9,7 km/h (2 Bft)
25.04.2018 05:03 8,7 C 11,1 C 11,1 C 11,1 C 10,6 C 96 % 16 cb 1002,9 hPa 0,0 l/m 10,5 km/h (2 Bft) SO 146 0 min 0,000 mm 0 W/m 8,1 C 5,9 C 19,3 km/h (3 Bft)
25.04.2018 05:01 8,7 C 11,1 C 11,1 C 11,1 C 10,6 C 96 % 16 cb 1003,1 hPa 0,0 l/m 7,5 km/h (2 Bft) S-SO 153 0 min 0,000 mm 0 W/m 8,1 C 7,9 C 11,3 km/h (2 Bft)
25.04.2018 05:00 8,7 C 11,1 C 11,1 C 11,1 C 10,6 C 96 % 16 cb 1003,2 hPa 0,0 l/m 6,9 km/h (2 Bft) SO 132 0 min 0,000 mm 0 W/m 8,1 C 8,3 C 9,7 km/h (2 Bft)
25.04.2018 04:59 8,6 C 11,1 C 11,1 C 11,1 C 10,6 C 96 % 16 cb 1003,2 hPa 0,0 l/m 8,9 km/h (2 Bft) S-SO 155 0 min 0,000 mm 0 W/m 8,0 C 6,8 C 12,9 km/h (3 Bft)
25.04.2018 04:58 8,6 C 11,1 C 11,1 C 11,1 C 10,6 C 96 % 16 cb 1003,1 hPa 0,0 l/m 12,3 km/h (2 Bft) S-SO 162 0 min 0,000 mm 0 W/m 8,0 C 4,7 C 16,1 km/h (3 Bft)
25.04.2018 04:57 8,6 C 11,1 C 11,1 C 11,1 C 10,6 C 96 % 16 cb 1003,1 hPa 0,0 l/m 10,5 km/h (2 Bft) S-SO 150 0 min 0,000 mm 0 W/m 8,0 C 5,7 C 16,1 km/h (3 Bft)
25.04.2018 04:56 8,6 C 11,1 C 11,1 C 11,1 C 10,6 C 96 % 16 cb 1003,2 hPa 0,0 l/m 7,0 km/h (2 Bft) S-SO 161 0 min 0,000 mm 0 W/m 8,0 C 8,1 C 11,3 km/h (2 Bft)
25.04.2018 04:55 8,6 C 11,1 C 11,1 C 11,1 C 10,6 C 96 % 16 cb 1003,1 hPa 0,0 l/m 6,8 km/h (2 Bft) S-SO 160 0 min 0,000 mm 0 W/m 8,0 C 8,3 C 11,3 km/h (2 Bft)
25.04.2018 04:54 8,5 C 11,1 C 11,1 C 11,1 C 10,6 C 96 % 16 cb 1003,2 hPa 0,0 l/m 8,4 km/h (2 Bft) SO 137 0 min 0,000 mm 0 W/m 7,9 C 7,0 C 12,9 km/h (3 Bft)
25.04.2018 04:53 8,5 C 11,1 C 11,1 C 11,1 C 10,6 C 96 % 16 cb 1003,3 hPa 0,0 l/m 10,1 km/h (2 Bft) SO 134 0 min 0,000 mm 0 W/m 7,9 C 5,9 C 16,1 km/h (3 Bft)
25.04.2018 04:52 8,5 C 11,1 C 11,1 C 11,1 C 10,6 C 96 % 16 cb 1003,3 hPa 0,0 l/m 11,2 km/h (2 Bft) S-SO 151 0 min 0,000 mm 0 W/m 7,9 C 5,2 C 16,1 km/h (3 Bft)
25.04.2018 04:51 8,4 C 11,1 C 11,1 C 11,1 C 10,6 C 96 % 16 cb 1003,3 hPa 0,0 l/m 10,6 km/h (2 Bft) S-SO 148 0 min 0,000 mm 0 W/m 7,8 C 5,5 C 16,1 km/h (3 Bft)
25.04.2018 04:50 8,4 C 11,1 C 11,1 C 11,1 C 10,6 C 96 % 16 cb 1003,2 hPa 0,0 l/m 9,8 km/h (2 Bft) S-SO 150 0 min 0,000 mm 0 W/m 7,8 C 6,0 C 16,1 km/h (3 Bft)
25.04.2018 04:49 8,4 C 11,1 C 11,1 C 11,1 C 10,6 C 96 % 16 cb 1003,2 hPa 0,2 l/m 8,4 km/h (2 Bft) S-SO 162 0 min 0,000 mm 0 W/m 7,8 C 6,9 C 14,5 km/h (3 Bft)
25.04.2018 04:48 8,4 C 11,1 C 11,1 C 11,1 C 10,6 C 96 % 16 cb 1003,3 hPa 0,0 l/m 7,5 km/h (2 Bft) SO 138 0 min 0,000 mm 0 W/m 7,8 C 7,5 C 14,5 km/h (3 Bft)
25.04.2018 04:47 8,4 C 11,1 C 11,1 C 11,1 C 10,6 C 96 % 16 cb 1003,4 hPa 0,0 l/m 7,8 km/h (2 Bft) S 184 0 min 0,000 mm 0 W/m 7,8 C 7,3 C 9,7 km/h (2 Bft)
25.04.2018 04:46 8,4 C 11,1 C 11,1 C 11,1 C 10,6 C 96 % 16 cb 1003,4 hPa 0,0 l/m 5,6 km/h (2 Bft) SO 136 0 min 0,000 mm 0 W/m 7,8 C 8,4 C 8,0 km/h (2 Bft)
25.04.2018 04:45 8,4 C 11,1 C 11,1 C 11,1 C 10,6 C 96 % 16 cb 1003,5 hPa 0,0 l/m 7,1 km/h (2 Bft) S-SO 160 0 min 0,000 mm 0 W/m 7,8 C 7,9 C 9,7 km/h (2 Bft)
25.04.2018 04:44 8,4 C 11,1 C 11,1 C 11,1 C 10,6 C 96 % 16 cb 1003,6 hPa 0,0 l/m 10,2 km/h (2 Bft) S 171 0 min 0,000 mm 0 W/m 7,8 C 5,7 C 16,1 km/h (3 Bft)
25.04.2018 04:43 8,4 C 11,1 C 11,1 C 11,1 C 10,6 C 96 % 16 cb 1003,6 hPa 0,2 l/m 11,9 km/h (2 Bft) S-SO 153 0 min 0,000 mm 0 W/m 7,8 C 4,7 C 14,5 km/h (3 Bft)
25.04.2018 04:42 8,4 C 11,1 C 11,1 C 11,1 C 10,6 C 96 % 16 cb 1003,6 hPa 0,0 l/m 7,2 km/h (2 Bft) S-SO 149 0 min 0,000 mm 0 W/m 7,8 C 7,8 C 9,7 km/h (2 Bft)
25.04.2018 04:41 8,3 C 11,1 C 11,1 C 11,1 C 10,6 C 96 % 16 cb 1003,6 hPa 0,0 l/m 8,2 km/h (2 Bft) S-SO 148 0 min 0,000 mm 0 W/m 7,7 C 6,9 C 12,9 km/h (3 Bft)
25.04.2018 04:40 8,3 C 11,1 C 11,1 C 11,1 C 10,6 C 96 % 16 cb 1003,7 hPa 0,0 l/m 9,0 km/h (2 Bft) S 169 0 min 0,000 mm 0 W/m 7,7 C 6,4 C 14,5 km/h (3 Bft)
25.04.2018 04:39 8,3 C 11,1 C 11,1 C 11,1 C 10,6 C 96 % 16 cb 1003,7 hPa 0,0 l/m 10,1 km/h (2 Bft) S-SO 164 0 min 0,000 mm 0 W/m 7,7 C 5,7 C 16,1 km/h (3 Bft)
25.04.2018 04:38 8,3 C 11,1 C 11,1 C 11,1 C 10,6 C 96 % 16 cb 1003,6 hPa 0,0 l/m 5,3 km/h (1 Bft) SO 140 0 min 0,000 mm 0 W/m 7,7 C 8,3 C 9,7 km/h (2 Bft)
25.04.2018 04:37 8,3 C 11,1 C 11,1 C 11,1 C 10,6 C 96 % 16 cb 1003,7 hPa 0,0 l/m 4,7 km/h (1 Bft) SO 138 0 min 0,000 mm 0 W/m 7,7 C 8,3 C 8,0 km/h (2 Bft)
25.04.2018 04:36 8,3 C 11,1 C 11,1 C 11,1 C 10,6 C 96 % 16 cb 1003,7 hPa 0,2 l/m 5,8 km/h (2 Bft) S-SO 148 0 min 0,000 mm 0 W/m 7,7 C 8,3 C 11,3 km/h (2 Bft)
25.04.2018 04:35 8,2 C 11,1 C 11,1 C 11,1 C 10,6 C 96 % 16 cb 1003,7 hPa 0,0 l/m 4,2 km/h (1 Bft) S-SO 163 0 min 0,000 mm 0 W/m 7,6 C 8,2 C 9,7 km/h (2 Bft)
25.04.2018 04:34 8,2 C 11,1 C 11,1 C 11,1 C 10,6 C 96 % 16 cb 1003,8 hPa 0,0 l/m 8,3 km/h (2 Bft) S-SO 150 0 min 0,000 mm 0 W/m 7,6 C 6,7 C 14,5 km/h (3 Bft)
25.04.2018 04:33 8,2 C 11,1 C 11,1 C 11,1 C 10,6 C 96 % 16 cb 1003,8 hPa 0,0 l/m 8,6 km/h (2 Bft) S-SO 162 0 min 0,000 mm 0 W/m 7,6 C 6,5 C 12,9 km/h (3 Bft)
25.04.2018 04:32 8,2 C 11,1 C 11,1 C 11,1 C 10,6 C 96 % 16 cb 1003,8 hPa 0,0 l/m 9,1 km/h (2 Bft) S-SO 147 0 min 0,000 mm 0 W/m 7,6 C 6,2 C 16,1 km/h (3 Bft)
25.04.2018 04:31 8,2 C 11,1 C 11,1 C 11,1 C 10,6 C 96 % 16 cb 1003,8 hPa 0,0 l/m 7,8 km/h (2 Bft) O-SO 117 0 min 0,000 mm 0 W/m 7,6 C 7,1 C 11,3 km/h (2 Bft)
25.04.2018 04:30 8,2 C 11,1 C 11,1 C 11,1 C 10,6 C 96 % 16 cb 1003,8 hPa 0,0 l/m 5,0 km/h (1 Bft) SO 144 0 min 0,000 mm 0 W/m 7,6 C 8,2 C 8,0 km/h (2 Bft)
25.04.2018 04:29 8,1 C 11,1 C 11,1 C 11,1 C 10,6 C 96 % 16 cb 1003,8 hPa 0,0 l/m 1,9 km/h (1 Bft) S-SO 148 0 min 0,000 mm 0 W/m 7,5 C 8,1 C 4,8 km/h (1 Bft)
25.04.2018 04:28 8,1 C 11,1 C 11,1 C 11,1 C 10,6 C 96 % 16 cb 1003,9 hPa 0,0 l/m 3,5 km/h (1 Bft) O 94 0 min 0,000 mm 0 W/m 7,5 C 8,1 C 6,4 km/h (2 Bft)
25.04.2018 04:27 8,1 C 11,1 C 11,1 C 11,1 C 10,6 C 96 % 16 cb 1003,9 hPa 0,0 l/m 4,3 km/h (1 Bft) S-SO 164 0 min 0,000 mm 0 W/m 7,5 C 8,1 C 9,7 km/h (2 Bft)
25.04.2018 04:26 8,1 C 11,1 C 11,1 C 11,1 C 10,6 C 96 % 16 cb 1004,0 hPa 0,0 l/m 3,6 km/h (1 Bft) O-SO 102 0 min 0,000 mm 0 W/m 7,5 C 8,1 C 6,4 km/h (2 Bft)
25.04.2018 04:25 8,1 C 11,1 C 11,1 C 11,1 C 10,6 C 96 % 16 cb 1004,0 hPa 0,0 l/m 7,2 km/h (2 Bft) S-SO 162 0 min 0,000 mm 0 W/m 7,5 C 7,5 C 12,9 km/h (3 Bft)
25.04.2018 04:24 8,1 C 11,1 C 11,1 C 11,1 C 10,6 C 96 % 16 cb 1004,1 hPa 0,0 l/m 7,7 km/h (2 Bft) S-SO 165 0 min 0,000 mm 0 W/m 7,5 C 7,1 C 12,9 km/h (3 Bft)
25.04.2018 04:23 8,1 C 11,1 C 11,1 C 11,1 C 10,6 C 96 % 16 cb 1004,1 hPa 0,0 l/m 4,4 km/h (1 Bft) S-SO 168 0 min 0,000 mm 0 W/m 7,5 C 8,1 C 9,7 km/h (2 Bft)
25.04.2018 04:22 8,1 C 11,1 C 11,1 C 11,1 C 10,6 C 96 % 16 cb 1004,1 hPa 0,0 l/m 8,6 km/h (2 Bft) O-SO 114 0 min 0,000 mm 0 W/m 7,5 C 6,4 C 14,5 km/h (3 Bft)
25.04.2018 04:21 8,1 C 11,1 C 11,1 C 11,1 C 10,6 C 96 % 16 cb 1004,2 hPa 0,0 l/m 5,9 km/h (2 Bft) S-SO 150 0 min 0,000 mm 0 W/m 7,5 C 8,1 C 12,9 km/h (3 Bft)
25.04.2018 04:20 8,1 C 11,1 C 11,1 C 11,1 C 10,6 C 96 % 16 cb 1004,2 hPa 0,0 l/m 4,3 km/h (1 Bft) S-SO 148 0 min 0,000 mm 0 W/m 7,5 C 8,1 C 6,4 km/h (2 Bft)
25.04.2018 04:19 8,1 C 11,1 C 11,1 C 11,1 C 10,6 C 96 % 16 cb 1004,2 hPa 0,0 l/m 5,4 km/h (2 Bft) S-SO 149 0 min 0,000 mm 0 W/m 7,5 C 8,1 C 12,9 km/h (3 Bft)
25.04.2018 04:18 8,1 C 11,1 C 11,1 C 11,1 C 10,6 C 96 % 16 cb 1004,3 hPa 0,0 l/m 5,4 km/h (2 Bft) S-SO 158 0 min 0,000 mm 0 W/m 7,5 C 8,1 C 12,9 km/h (3 Bft)
25.04.2018 04:17 8,0 C 11,1 C 11,1 C 11,1 C 10,6 C 96 % 16 cb 1004,3 hPa 0,0 l/m 9,1 km/h (2 Bft) S-SO 150 0 min 0,000 mm 0 W/m 7,4 C 6,0 C 12,9 km/h (3 Bft)
25.04.2018 04:16 8,0 C 11,1 C 11,1 C 11,1 C 10,6 C 96 % 16 cb 1004,3 hPa 0,0 l/m 8,7 km/h (2 Bft) S-SO 159 0 min 0,000 mm 0 W/m 7,4 C 6,2 C 14,5 km/h (3 Bft)
25.04.2018 04:15 8,1 C 11,1 C 11,1 C 11,1 C 10,6 C 96 % 16 cb 1004,3 hPa 0,0 l/m 9,7 km/h (2 Bft) S-SO 163 0 min 0,000 mm 0 W/m 7,5 C 5,7 C 14,5 km/h (3 Bft)
25.04.2018 04:14 8,0 C 11,1 C 11,1 C 11,1 C 10,6 C 96 % 16 cb 1004,4 hPa 0,0 l/m 7,0 km/h (2 Bft) S-SO 150 0 min 0,000 mm 0 W/m 7,4 C 7,5 C 12,9 km/h (3 Bft)
25.04.2018 04:13 8,0 C 11,1 C 11,1 C 11,1 C 10,6 C 96 % 16 cb 1004,4 hPa 0,0 l/m 5,8 km/h (2 Bft) S-SO 167 0 min 0,000 mm 0 W/m 7,4 C 8,0 C 9,7 km/h (2 Bft)
25.04.2018 04:12 8,0 C 11,1 C 11,1 C 11,1 C 10,6 C 96 % 16 cb 1004,4 hPa 0,0 l/m 7,8 km/h (2 Bft) O-SO 107 0 min 0,000 mm 0 W/m 7,4 C 6,9 C 11,3 km/h (2 Bft)
25.04.2018 04:11 8,0 C 11,1 C 11,1 C 11,1 C 10,6 C 96 % 16 cb 1004,4 hPa 0,0 l/m 6,0 km/h (2 Bft) S-SO 149 0 min 0,000 mm 0 W/m 7,4 C 8,0 C 12,9 km/h (3 Bft)
25.04.2018 04:10 8,0 C 11,1 C 11,1 C 11,1 C 10,6 C 96 % 16 cb 1004,5 hPa 0,0 l/m 6,2 km/h (2 Bft) SO 133 0 min 0,000 mm 0 W/m 7,4 C 8,0 C 14,5 km/h (3 Bft)
25.04.2018 04:09 8,0 C 11,1 C 11,1 C 11,1 C 10,6 C 96 % 16 cb 1004,5 hPa 0,0 l/m 9,3 km/h (2 Bft) S-SO 150 0 min 0,000 mm 0 W/m 7,4 C 5,8 C 12,9 km/h (3 Bft)
25.04.2018 04:08 8,0 C 11,1 C 11,1 C 11,1 C 10,6 C 96 % 16 cb 1004,6 hPa 0,0 l/m 8,1 km/h (2 Bft) S-SO 167 0 min 0,000 mm 0 W/m 7,4 C 6,7 C 12,9 km/h (3 Bft)
25.04.2018 04:07 7,9 C 11,1 C 11,1 C 11,1 C 10,6 C 96 % 16 cb 1004,6 hPa 0,0 l/m 3,7 km/h (1 Bft) S 178 0 min 0,000 mm 0 W/m 7,3 C 7,9 C 8,0 km/h (2 Bft)
25.04.2018 04:06 7,9 C 11,1 C 11,1 C 11,1 C 10,6 C 96 % 16 cb 1004,5 hPa 0,0 l/m 3,8 km/h (1 Bft) S 182 0 min 0,000 mm 0 W/m 7,3 C 7,9 C 8,0 km/h (2 Bft)
25.04.2018 04:05 7,9 C 11,1 C 11,1 C 11,1 C 10,6 C 96 % 16 cb 1004,4 hPa 0,0 l/m 8,4 km/h (2 Bft) S-SO 163 0 min 0,000 mm 0 W/m 7,3 C 6,4 C 12,9 km/h (3 Bft)
25.04.2018 04:04 7,8 C 11,1 C 11,1 C 11,1 C 10,6 C 96 % 16 cb 1004,4 hPa 0,0 l/m 8,0 km/h (2 Bft) SO 130 0 min 0,000 mm 0 W/m 7,2 C 6,5 C 14,5 km/h (3 Bft)
25.04.2018 04:03 7,8 C 11,1 C 11,1 C 11,1 C 10,6 C 96 % 16 cb 1004,5 hPa 0,0 l/m 4,0 km/h (1 Bft) S-SO 147 0 min 0,000 mm 0 W/m 7,2 C 7,8 C 8,0 km/h (2 Bft)
25.04.2018 04:02 7,8 C 11,1 C 11,1 C 11,1 C 10,6 C 96 % 16 cb 1004,6 hPa 0,0 l/m 4,4 km/h (1 Bft) S-SO 149 0 min 0,000 mm 0 W/m 7,2 C 7,8 C 8,0 km/h (2 Bft)
25.04.2018 04:01 7,8 C 11,1 C 11,1 C 11,1 C 10,6 C 96 % 16 cb 1004,6 hPa 0,0 l/m 8,1 km/h (2 Bft) S 178 0 min 0,000 mm 0 W/m 7,2 C 6,5 C 11,3 km/h (2 Bft)
25.04.2018 04:00 7,8 C 11,1 C 11,1 C 11,1 C 10,6 C 96 % 16 cb 1004,7 hPa 0,0 l/m 6,8 km/h (2 Bft) S-SO 167 0 min 0,000 mm 0 W/m 7,2 C 7,5 C 9,7 km/h (2 Bft)
25.04.2018 03:59 7,8 C 11,1 C 11,1 C 11,1 C 10,6 C 96 % 16 cb 1004,7 hPa 0,0 l/m 6,4 km/h (2 Bft) S-SO 151 0 min 0,000 mm 0 W/m 7,2 C 7,8 C 11,3 km/h (2 Bft)
25.04.2018 03:58 7,8 C 11,1 C 11,1 C 11,1 C 10,6 C 96 % 16 cb 1004,8 hPa 0,0 l/m 8,4 km/h (2 Bft) SO 137 0 min 0,000 mm 0 W/m 7,2 C 6,2 C 12,9 km/h (3 Bft)
25.04.2018 03:57 7,8 C 11,1 C 11,1 C 11,1 C 10,6 C 96 % 16 cb 1004,8 hPa 0,0 l/m 6,0 km/h (2 Bft) S-SO 163 0 min 0,000 mm 0 W/m 7,2 C 7,8 C 8,0 km/h (2 Bft)
25.04.2018 03:56 7,8 C 11,1 C 11,1 C 11,1 C 10,6 C 96 % 16 cb 1004,8 hPa 0,0 l/m 6,7 km/h (2 Bft) S 172 0 min 0,000 mm 0 W/m 7,2 C 7,6 C 11,3 km/h (2 Bft)
25.04.2018 03:55 7,8 C 11,1 C 11,1 C 11,1 C 10,6 C 96 % 16 cb 1004,8 hPa 0,0 l/m 5,7 km/h (2 Bft) S-SO 151 0 min 0,000 mm 0 W/m 7,2 C 7,8 C 12,9 km/h (3 Bft)
25.04.2018 03:54 7,8 C 11,1 C 11,1 C 11,1 C 10,6 C 96 % 16 cb 1004,9 hPa 0,2 l/m 5,2 km/h (1 Bft) S 173 0 min 0,000 mm 0 W/m 7,2 C 7,8 C 11,3 km/h (2 Bft)
25.04.2018 03:53 7,8 C 11,1 C 11,1 C 11,1 C 10,6 C 96 % 16 cb 1004,8 hPa 0,0 l/m 3,6 km/h (1 Bft) O-SO 110 0 min 0,000 mm 0 W/m 7,2 C 7,8 C 8,0 km/h (2 Bft)
25.04.2018 03:52 7,8 C 11,1 C 11,1 C 11,1 C 10,6 C 96 % 16 cb 1004,9 hPa 0,0 l/m 6,4 km/h (2 Bft) O 97 0 min 0,000 mm 0 W/m 7,2 C 7,8 C 11,3 km/h (2 Bft)
25.04.2018 03:51 7,7 C 11,1 C 11,1 C 11,1 C 10,6 C 96 % 16 cb 1004,9 hPa 0,0 l/m 7,4 km/h (2 Bft) O-SO 108 0 min 0,000 mm 0 W/m 7,1 C 6,9 C 14,5 km/h (3 Bft)
25.04.2018 03:50 7,7 C 11,1 C 11,1 C 11,1 C 10,6 C 96 % 16 cb 1004,9 hPa 0,0 l/m 3,0 km/h (1 Bft) O-SO 113 0 min 0,000 mm 0 W/m 7,1 C 7,7 C 4,8 km/h (1 Bft)
25.04.2018 03:49 7,7 C 11,1 C 11,1 C 11,1 C 10,6 C 96 % 16 cb 1005,0 hPa 0,0 l/m 4,2 km/h (1 Bft) O-SO 122 0 min 0,000 mm 0 W/m 7,1 C 7,7 C 9,7 km/h (2 Bft)
25.04.2018 03:48 7,7 C 11,1 C 11,1 C 11,1 C 10,6 C 96 % 16 cb 1005,0 hPa 0,0 l/m 3,8 km/h (1 Bft) S 178 0 min 0,000 mm 0 W/m 7,1 C 7,7 C 8,0 km/h (2 Bft)
25.04.2018 03:47 7,7 C 11,1 C 11,1 C 11,1 C 10,6 C 96 % 16 cb 1005,0 hPa 0,0 l/m 1,9 km/h (1 Bft) O-SO 105 0 min 0,000 mm 0 W/m 7,1 C 7,7 C 6,4 km/h (2 Bft)
25.04.2018 03:46 7,7 C 11,1 C 11,1 C 11,1 C 10,6 C 96 % 16 cb 1005,0 hPa 0,0 l/m 10,1 km/h (2 Bft) O 92 0 min 0,000 mm 0 W/m 7,1 C 5,0 C 12,9 km/h (3 Bft)
25.04.2018 03:45 7,7 C 11,1 C 11,1 C 11,1 C 10,6 C 96 % 16 cb 1005,0 hPa 0,0 l/m 6,0 km/h (2 Bft) S-SO 165 0 min 0,000 mm 0 W/m 7,1 C 7,7 C 9,7 km/h (2 Bft)
25.04.2018 03:44 7,7 C 11,1 C 11,1 C 11,1 C 10,6 C 96 % 16 cb 1005,1 hPa 0,0 l/m 13,4 km/h (3 Bft) S-SO 159 0 min 0,000 mm 0 W/m 7,1 C 3,1 C 17,7 km/h (3 Bft)
25.04.2018 03:43 7,7 C 11,1 C 11,1 C 11,1 C 10,6 C 96 % 16 cb 1005,1 hPa 0,2 l/m 9,7 km/h (2 Bft) S-SO 153 0 min 0,000 mm 0 W/m 7,1 C 5,2 C 12,9 km/h (3 Bft)
25.04.2018 03:42 7,7 C 11,1 C 11,1 C 11,1 C 10,6 C 96 % 16 cb 1005,1 hPa 0,0 l/m 4,0 km/h (1 Bft) S-SO 163 0 min 0,000 mm 0 W/m 7,1 C 7,7 C 8,0 km/h (2 Bft)
25.04.2018 03:41 7,7 C 11,1 C 11,1 C 11,1 C 10,6 C 96 % 16 cb 1005,2 hPa 0,0 l/m 4,4 km/h (1 Bft) O 84 0 min 0,000 mm 0 W/m 7,1 C 7,7 C 8,0 km/h (2 Bft)
25.04.2018 03:40 7,7 C 11,1 C 11,1 C 11,1 C 10,6 C 96 % 16 cb 1005,1 hPa 0,0 l/m 2,5 km/h (1 Bft) O 88 0 min 0,000 mm 0 W/m 7,1 C 7,7 C 3,2 km/h (1 Bft)
25.04.2018 03:39 7,7 C 11,1 C 11,1 C 11,1 C 10,6 C 96 % 16 cb 1005,2 hPa 0,0 l/m 2,4 km/h (1 Bft) O 86 0 min 0,000 mm 0 W/m 7,1 C 7,7 C 4,8 km/h (1 Bft)
25.04.2018 03:38 7,7 C 11,1 C 11,1 C 11,1 C 10,6 C 96 % 16 cb 1005,2 hPa 0,0 l/m 5,1 km/h (1 Bft) O 90 0 min 0,000 mm 0 W/m 7,1 C 7,7 C 9,7 km/h (2 Bft)
25.04.2018 03:37 7,7 C 11,1 C 11,1 C 11,1 C 10,6 C 96 % 16 cb 1005,3 hPa 0,2 l/m 4,5 km/h (1 Bft) SO 125 0 min 0,000 mm 0 W/m 7,1 C 7,7 C 9,7 km/h (2 Bft)
25.04.2018 03:36 7,7 C 11,1 C 11,1 C 11,1 C 10,6 C 96 % 16 cb 1005,3 hPa 0,0 l/m 5,1 km/h (1 Bft) O-SO 109 0 min 0,000 mm 0 W/m 7,1 C 7,7 C 11,3 km/h (2 Bft)
25.04.2018 03:35 7,7 C 11,1 C 11,1 C 11,1 C 10,6 C 96 % 16 cb 1005,4 hPa 0,0 l/m 7,9 km/h (2 Bft) O-SO 119 0 min 0,000 mm 0 W/m 7,1 C 6,5 C 12,9 km/h (3 Bft)
25.04.2018 03:34 7,7 C 11,1 C 11,1 C 11,1 C 10,6 C 96 % 16 cb 1005,4 hPa 0,0 l/m 7,9 km/h (2 Bft) SO 140 0 min 0,000 mm 0 W/m 7,1 C 6,5 C 12,9 km/h (3 Bft)
25.04.2018 03:33 7,6 C 11,1 C 11,1 C 11,1 C 10,6 C 96 % 16 cb 1005,5 hPa 0,0 l/m 3,8 km/h (1 Bft) O-SO 111 0 min 0,000 mm 0 W/m 7,0 C 7,6 C 12,9 km/h (3 Bft)
25.04.2018 03:32 7,6 C 11,1 C 11,1 C 11,1 C 10,6 C 96 % 16 cb 1005,5 hPa 0,2 l/m 4,0 km/h (1 Bft) O 84 0 min 0,000 mm 0 W/m 7,0 C 7,6 C 6,4 km/h (2 Bft)
25.04.2018 03:31 7,6 C 11,1 C 11,1 C 11,1 C 10,6 C 96 % 16 cb 1005,5 hPa 0,0 l/m 4,6 km/h (1 Bft) S-SO 159 0 min 0,000 mm 0 W/m 7,0 C 7,6 C 9,7 km/h (2 Bft)
25.04.2018 03:30 7,6 C 11,1 C 11,1 C 11,1 C 10,6 C 96 % 16 cb 1005,5 hPa 0,0 l/m 4,6 km/h (1 Bft) O-SO 114 0 min 0,000 mm 0 W/m 7,0 C 7,6 C 9,7 km/h (2 Bft)
25.04.2018 03:29 7,6 C 11,1 C 11,1 C 11,1 C 10,6 C 96 % 16 cb 1005,6 hPa 0,0 l/m 3,8 km/h (1 Bft) O-SO 111 0 min 0,000 mm 0 W/m 7,0 C 7,6 C 6,4 km/h (2 Bft)
25.04.2018 03:28 7,6 C 11,1 C 11,1 C 11,1 C 10,6 C 96 % 16 cb 1005,6 hPa 0,0 l/m 3,7 km/h (1 Bft) O 94 0 min 0,000 mm 0 W/m 7,0 C 7,6 C 6,4 km/h (2 Bft)
25.04.2018 03:27 7,6 C 11,1 C 11,1 C 11,1 C 10,6 C 96 % 16 cb 1005,6 hPa 0,0 l/m 4,0 km/h (1 Bft) O-NO 70 0 min 0,000 mm 0 W/m 7,0 C 7,6 C 11,3 km/h (2 Bft)
25.04.2018 03:26 7,6 C 11,1 C 11,1 C 11,1 C 10,6 C 96 % 16 cb 1005,7 hPa 0,0 l/m 1,5 km/h (1 Bft) O-SO 111 0 min 0,000 mm 0 W/m 7,0 C 7,6 C 3,2 km/h (1 Bft)
25.04.2018 03:25 7,6 C 11,1 C 11,1 C 11,1 C 10,6 C 96 % 16 cb 1005,7 hPa 0,0 l/m 0,0 km/h (0 Bft) O 96 0 min 0,000 mm 0 W/m 7,0 C 7,6 C 0,0 km/h (0 Bft)
25.04.2018 03:24 7,6 C 11,1 C 11,1 C 11,1 C 10,6 C 96 % 16 cb 1005,7 hPa 0,2 l/m 3,5 km/h (1 Bft) S-SO 148 0 min 0,000 mm 0 W/m 7,0 C 7,6 C 6,4 km/h (2 Bft)
25.04.2018 03:23 7,6 C 11,1 C 11,1 C 11,1 C 10,6 C 96 % 16 cb 1005,8 hPa 0,0 l/m 4,6 km/h (1 Bft) O-SO 123 0 min 0,000 mm 0 W/m 7,0 C 7,6 C 8,0 km/h (2 Bft)
25.04.2018 03:22 7,5 C 11,1 C 11,1 C 11,1 C 10,6 C 96 % 16 cb 1005,8 hPa 0,0 l/m 2,5 km/h (1 Bft) S-SO 168 0 min 0,000 mm 0 W/m 6,9 C 7,5 C 6,4 km/h (2 Bft)
25.04.2018 03:21 7,5 C 11,1 C 11,1 C 11,1 C 10,6 C 96 % 16 cb 1005,8 hPa 0,0 l/m 3,2 km/h (1 Bft) SO 130 0 min 0,000 mm 0 W/m 6,9 C 7,5 C 6,4 km/h (2 Bft)
25.04.2018 03:20 7,5 C 11,1 C 11,1 C 11,1 C 10,6 C 96 % 16 cb 1005,8 hPa 0,2 l/m 4,5 km/h (1 Bft) SO 129 0 min 0,000 mm 0 W/m 6,9 C 7,5 C 9,7 km/h (2 Bft)
25.04.2018 03:19 7,5 C 11,1 C 11,1 C 11,1 C 10,6 C 96 % 16 cb 1005,9 hPa 0,0 l/m 2,9 km/h (1 Bft) O 101 0 min 0,000 mm 0 W/m 6,9 C 7,5 C 4,8 km/h (1 Bft)
25.04.2018 03:18 7,5 C 11,1 C 11,1 C 11,1 C 10,6 C 96 % 16 cb 1005,9 hPa 0,0 l/m 4,3 km/h (1 Bft) O-SO 123 0 min 0,000 mm 0 W/m 6,9 C 7,5 C 9,7 km/h (2 Bft)
25.04.2018 03:17 7,5 C 11,1 C 11,1 C 11,1 C 10,6 C 96 % 16 cb 1006,0 hPa 0,0 l/m 5,1 km/h (1 Bft) SO 127 0 min 0,000 mm 0 W/m 6,9 C 7,5 C 9,7 km/h (2 Bft)
25.04.2018 03:16 7,5 C 11,1 C 11,1 C 11,1 C 10,6 C 96 % 16 cb 1006,0 hPa 0,0 l/m 3,8 km/h (1 Bft) O-SO 121 0 min 0,000 mm 0 W/m 6,9 C 7,5 C 9,7 km/h (2 Bft)
25.04.2018 03:15 7,5 C 11,1 C 11,1 C 11,1 C 10,6 C 96 % 16 cb 1006,1 hPa 0,0 l/m 6,3 km/h (2 Bft) O-SO 107 0 min 0,000 mm 0 W/m 6,9 C 7,5 C 11,3 km/h (2 Bft)
25.04.2018 03:14 7,5 C 11,1 C 11,1 C 11,1 C 10,6 C 96 % 16 cb 1006,1 hPa 0,0 l/m 3,8 km/h (1 Bft) S-SO 166 0 min 0,000 mm 0 W/m 6,9 C 7,5 C 9,7 km/h (2 Bft)
25.04.2018 03:13 7,5 C 11,1 C 11,1 C 11,1 C 10,6 C 96 % 16 cb 1006,2 hPa 0,0 l/m 1,8 km/h (1 Bft) O-SO 113 0 min 0,000 mm 0 W/m 6,9 C 7,5 C 3,2 km/h (1 Bft)
25.04.2018 03:12 7,5 C 11,1 C 11,1 C 11,1 C 10,6 C 96 % 16 cb 1006,2 hPa 0,2 l/m 2,3 km/h (1 Bft) O-SO 110 0 min 0,000 mm 0 W/m 6,9 C 7,5 C 4,8 km/h (1 Bft)
25.04.2018 03:11 7,6 C 11,1 C 11,1 C 11,1 C 10,6 C 96 % 16 cb 1006,2 hPa 0,0 l/m 5,5 km/h (2 Bft) O 99 0 min 0,000 mm 0 W/m 7,0 C 7,6 C 9,7 km/h (2 Bft)
25.04.2018 03:10 7,6 C 11,1 C 11,1 C 11,1 C 10,6 C 96 % 16 cb 1006,3 hPa 0,0 l/m 2,7 km/h (1 Bft) SO 131 0 min 0,000 mm 0 W/m 7,0 C 7,6 C 6,4 km/h (2 Bft)
25.04.2018 03:09 7,6 C 11,1 C 11,1 C 11,1 C 10,6 C 96 % 16 cb 1006,2 hPa 0,0 l/m 7,2 km/h (2 Bft) SO 129 0 min 0,000 mm 0 W/m 7,0 C 7,0 C 14,5 km/h (3 Bft)
25.04.2018 03:08 7,6 C 11,1 C 11,1 C 11,1 C 10,6 C 96 % 16 cb 1006,3 hPa 0,0 l/m 7,1 km/h (2 Bft) O-SO 116 0 min 0,000 mm 0 W/m 7,0 C 7,0 C 12,9 km/h (3 Bft)
25.04.2018 03:07 7,6 C 11,1 C 11,1 C 11,1 C 10,6 C 96 % 16 cb 1006,3 hPa 0,0 l/m 6,8 km/h (2 Bft) O-SO 121 0 min 0,000 mm 0 W/m 7,0 C 7,3 C 12,9 km/h (3 Bft)
25.04.2018 03:06 7,6 C 11,1 C 11,1 C 11,1 C 10,6 C 96 % 16 cb 1006,3 hPa 0,2 l/m 6,0 km/h (2 Bft) SO 140 0 min 0,000 mm 0 W/m 7,0 C 7,6 C 12,9 km/h (3 Bft)
25.04.2018 03:05 7,6 C 11,1 C 11,1 C 11,1 C 10,6 C 96 % 16 cb 1006,3 hPa 0,0 l/m 3,2 km/h (1 Bft) O-SO 111 0 min 0,000 mm 0 W/m 7,0 C 7,6 C 6,4 km/h (2 Bft)
25.04.2018 03:04 7,6 C 11,1 C 11,1 C 11,1 C 10,6 C 96 % 16 cb 1006,4 hPa 0,0 l/m 3,7 km/h (1 Bft) O 101 0 min 0,000 mm 0 W/m 7,0 C 7,6 C 8,0 km/h (2 Bft)
25.04.2018 03:03 7,6 C 11,1 C 11,1 C 11,1 C 10,6 C 96 % 16 cb 1006,3 hPa 0,0 l/m 5,0 km/h (1 Bft) SO 133 0 min 0,000 mm 0 W/m 7,0 C 7,6 C 8,0 km/h (2 Bft)
25.04.2018 03:02 7,6 C 11,1 C 11,1 C 11,1 C 10,6 C 96 % 16 cb 1006,3 hPa 0,0 l/m 7,5 km/h (2 Bft) SO 126 0 min 0,000 mm 0 W/m 7,0 C 6,7 C 11,3 km/h (2 Bft)
25.04.2018 03:01 7,6 C 11,1 C 11,1 C 11,1 C 10,6 C 96 % 16 cb 1006,4 hPa 0,0 l/m 5,1 km/h (1 Bft) O 81 0 min 0,000 mm 0 W/m 7,0 C 7,6 C 8,0 km/h (2 Bft)
25.04.2018 03:00 7,6 C 11,1 C 11,1 C 11,1 C 10,6 C 96 % 16 cb 1006,4 hPa 0,0 l/m 4,6 km/h (1 Bft) O 88 0 min 0,000 mm 0 W/m 7,0 C 7,6 C 9,7 km/h (2 Bft)
25.04.2018 02:59 7,6 C 11,1 C 11,1 C 11,1 C 10,6 C 96 % 16 cb 1006,4 hPa 0,0 l/m 8,3 km/h (2 Bft) S-SO 161 0 min 0,000 mm 0 W/m 7,0 C 6,1 C 11,3 km/h (2 Bft)
25.04.2018 02:58 7,6 C 11,1 C 11,1 C 11,1 C 10,6 C 96 % 16 cb 1006,4 hPa 0,0 l/m 7,0 km/h (2 Bft) S-SO 157 0 min 0,000 mm 0 W/m 7,0 C 7,1 C 11,3 km/h (2 Bft)
25.04.2018 02:57 7,6 C 11,1 C 11,1 C 11,1 C 10,6 C 96 % 16 cb 1006,5 hPa 0,0 l/m 3,4 km/h (1 Bft) S-SO 160 0 min 0,000 mm 0 W/m 7,0 C 7,6 C 8,0 km/h (2 Bft)
25.04.2018 02:56 7,6 C 11,1 C 11,1 C 11,1 C 10,6 C 96 % 16 cb 1006,5 hPa 0,0 l/m 1,5 km/h (1 Bft) SO 137 0 min 0,000 mm 0 W/m 7,0 C 7,6 C 4,8 km/h (1 Bft)
25.04.2018 02:55 7,6 C 11,1 C 11,1 C 11,1 C 10,6 C 96 % 16 cb 1006,4 hPa 0,0 l/m 0,4 km/h (0 Bft) O 84 0 min 0,000 mm 0 W/m 7,0 C 7,6 C 3,2 km/h (1 Bft)
25.04.2018 02:54 7,6 C 11,1 C 11,1 C 11,1 C 10,6 C 96 % 16 cb 1006,5 hPa 0,2 l/m 1,7 km/h (1 Bft) O-SO 111 0 min 0,000 mm 0 W/m 7,0 C 7,6 C 4,8 km/h (1 Bft)
25.04.2018 02:53 7,6 C 11,1 C 11,1 C 11,1 C 10,6 C 96 % 16 cb 1006,5 hPa 0,0 l/m 2,7 km/h (1 Bft) O-SO 106 0 min 0,000 mm 0 W/m 7,0 C 7,6 C 4,8 km/h (1 Bft)
25.04.2018 02:52 7,6 C 11,1 C 11,1 C 11,1 C 10,6 C 96 % 16 cb 1006,7 hPa 0,0 l/m 7,8 km/h (2 Bft) S-SO 163 0 min 0,000 mm 0 W/m 7,0 C 6,5 C 11,3 km/h (2 Bft)
25.04.2018 02:51 7,6 C 11,1 C 11,1 C 11,1 C 10,6 C 96 % 16 cb 1006,6 hPa 0,2 l/m 2,9 km/h (1 Bft) S-SO 163 0 min 0,000 mm 0 W/m 7,0 C 7,6 C 6,4 km/h (2 Bft)
25.04.2018 02:50 7,6 C 11,1 C 11,1 C 11,1 C 10,6 C 96 % 16 cb 1006,7 hPa 0,0 l/m 6,4 km/h (2 Bft) O-SO 120 0 min 0,000 mm 0 W/m 7,0 C 7,6 C 9,7 km/h (2 Bft)
25.04.2018 02:49 7,7 C 11,1 C 11,1 C 11,1 C 10,6 C 96 % 16 cb 1006,7 hPa 0,0 l/m 11,4 km/h (2 Bft) SO 146 0 min 0,000 mm 0 W/m 7,1 C 4,2 C 16,1 km/h (3 Bft)
25.04.2018 02:48 7,7 C 11,1 C 11,1 C 11,1 C 10,6 C 96 % 16 cb 1006,7 hPa 0,0 l/m 4,4 km/h (1 Bft) SO 136 0 min 0,000 mm 0 W/m 7,1 C 7,7 C 9,7 km/h (2 Bft)
25.04.2018 02:47 7,7 C 11,1 C 11,1 C 11,1 C 10,6 C 96 % 16 cb 1006,6 hPa 0,0 l/m 3,1 km/h (1 Bft) S-SO 148 0 min 0,000 mm 0 W/m 7,1 C 7,7 C 4,8 km/h (1 Bft)
25.04.2018 02:46 7,7 C 11,1 C 11,1 C 11,1 C 10,6 C 96 % 16 cb 1006,7 hPa 0,0 l/m 2,1 km/h (1 Bft) SO 143 0 min 0,000 mm 0 W/m 7,1 C 7,7 C 4,8 km/h (1 Bft)
25.04.2018 02:45 7,7 C 11,1 C 11,1 C 11,1 C 10,6 C 96 % 16 cb 1006,7 hPa 0,0 l/m 4,3 km/h (1 Bft) O-SO 116 0 min 0,000 mm 0 W/m 7,1 C 7,7 C 11,3 km/h (2 Bft)
25.04.2018 02:44 7,7 C 11,1 C 11,1 C 11,1 C 10,6 C 96 % 16 cb 1006,7 hPa 0,0 l/m 3,6 km/h (1 Bft) O 90 0 min 0,000 mm 0 W/m 7,1 C 7,7 C 11,3 km/h (2 Bft)
25.04.2018 02:43 7,7 C 11,1 C 11,1 C 11,1 C 10,6 C 96 % 16 cb 1006,8 hPa 0,2 l/m 3,2 km/h (1 Bft) O 88 0 min 0,000 mm 0 W/m 7,1 C 7,7 C 9,7 km/h (2 Bft)
25.04.2018 02:42 7,7 C 11,1 C 11,1 C 11,1 C 10,6 C 96 % 16 cb 1006,9 hPa 0,0 l/m 1,6 km/h (1 Bft) S-SO 159 0 min 0,000 mm 0 W/m 7,1 C 7,7 C 3,2 km/h (1 Bft)
25.04.2018 02:41 7,7 C 11,1 C 11,1 C 11,1 C 10,6 C 96 % 16 cb 1006,9 hPa 0,0 l/m 4,4 km/h (1 Bft) O 101 0 min 0,000 mm 0 W/m 7,1 C 7,7 C 8,0 km/h (2 Bft)
25.04.2018 02:40 7,7 C 11,1 C 11,1 C 11,1 C 10,6 C 96 % 16 cb 1006,9 hPa 0,0 l/m 5,4 km/h (2 Bft) S-SO 161 0 min 0,000 mm 0 W/m 7,1 C 7,7 C 8,0 km/h (2 Bft)
25.04.2018 02:39 7,7 C 11,1 C 11,1 C 11,1 C 10,6 C 96 % 16 cb 1006,9 hPa 0,0 l/m 2,7 km/h (1 Bft) S-SO 155 0 min 0,000 mm 0 W/m 7,1 C 7,7 C 6,4 km/h (2 Bft)
25.04.2018 02:38 7,7 C 11,1 C 11,1 C 11,1 C 10,6 C 96 % 16 cb 1007,0 hPa 0,0 l/m 5,7 km/h (2 Bft) S-SO 155 0 min 0,000 mm 0 W/m 7,1 C 7,7 C 8,0 km/h (2 Bft)
25.04.2018 02:37 7,7 C 11,1 C 11,1 C 11,1 C 10,6 C 96 % 16 cb 1006,9 hPa 0,2 l/m 7,0 km/h (2 Bft) O-SO 109 0 min 0,000 mm 0 W/m 7,1 C 7,2 C 11,3 km/h (2 Bft)
25.04.2018 02:36 7,7 C 11,1 C 11,1 C 11,1 C 10,6 C 96 % 16 cb 1007,0 hPa 0,0 l/m 5,8 km/h (2 Bft) S-SO 159 0 min 0,000 mm 0 W/m 7,1 C 7,7 C 8,0 km/h (2 Bft)
25.04.2018 02:35 7,7 C 11,1 C 11,1 C 11,1 C 10,6 C 96 % 16 cb 1007,0 hPa 0,0 l/m 7,8 km/h (2 Bft) S-SO 156 0 min 0,000 mm 0 W/m 7,1 C 6,6 C 12,9 km/h (3 Bft)
25.04.2018 02:34 7,7 C 11,1 C 11,1 C 11,1 C 10,6 C 96 % 16 cb 1007,0 hPa 0,0 l/m 7,1 km/h (2 Bft) S 169 0 min 0,000 mm 0 W/m 7,1 C 7,1 C 14,5 km/h (3 Bft)
25.04.2018 02:33 7,7 C 11,1 C 11,1 C 11,1 C 10,6 C 96 % 16 cb 1007,1 hPa 0,0 l/m 7,5 km/h (2 Bft) S-SO 158 0 min 0,000 mm 0 W/m 7,1 C 6,8 C 11,3 km/h (2 Bft)
25.04.2018 02:32 7,7 C 11,1 C 11,1 C 11,1 C 10,6 C 96 % 16 cb 1007,1 hPa 0,0 l/m 4,6 km/h (1 Bft) S-SO 150 0 min 0,000 mm 0 W/m 7,1 C 7,7 C 8,0 km/h (2 Bft)
25.04.2018 02:31 7,7 C 11,1 C 11,1 C 11,1 C 10,6 C 96 % 16 cb 1007,1 hPa 0,0 l/m 3,7 km/h (1 Bft) S-SO 152 0 min 0,000 mm 0 W/m 7,1 C 7,7 C 11,3 km/h (2 Bft)
25.04.2018 02:30 7,6 C 11,1 C 11,1 C 11,1 C 10,6 C 96 % 16 cb 1007,0 hPa 0,0 l/m 2,0 km/h (1 Bft) S-SW 205 0 min 0,000 mm 0 W/m 7,0 C 7,6 C 8,0 km/h (2 Bft)
25.04.2018 02:29 7,7 C 11,1 C 11,1 C 11,1 C 10,6 C 96 % 16 cb 1007,0 hPa 0,0 l/m 3,0 km/h (1 Bft) SO 127 0 min 0,000 mm 0 W/m 7,1 C 7,7 C 4,8 km/h (1 Bft)
25.04.2018 02:28 7,6 C 11,1 C 11,1 C 11,1 C 10,6 C 96 % 16 cb 1007,0 hPa 0,0 l/m 3,3 km/h (1 Bft) O-SO 110 0 min 0,000 mm 0 W/m 7,0 C 7,6 C 4,8 km/h (1 Bft)
25.04.2018 02:27 7,7 C 11,1 C 11,1 C 11,1 C 10,6 C 96 % 16 cb 1007,1 hPa 0,0 l/m 3,4 km/h (1 Bft) SO 146 0 min 0,000 mm 0 W/m 7,1 C 7,7 C 6,4 km/h (2 Bft)
25.04.2018 02:26 7,7 C 11,1 C 11,1 C 11,1 C 10,6 C 96 % 16 cb 1007,1 hPa 0,2 l/m 2,7 km/h (1 Bft) O 88 0 min 0,000 mm 0 W/m 7,1 C 7,7 C 6,4 km/h (2 Bft)
25.04.2018 02:25 7,7 C 11,1 C 11,1 C 11,1 C 10,6 C 96 % 16 cb 1007,1 hPa 0,0 l/m 4,2 km/h (1 Bft) S-SO 148 0 min 0,000 mm 0 W/m 7,1 C 7,7 C 6,4 km/h (2 Bft)
25.04.2018 02:24 7,7 C 11,1 C 11,1 C 11,1 C 10,6 C 96 % 16 cb 1007,1 hPa 0,0 l/m 7,0 km/h (2 Bft) SO 131 0 min 0,000 mm 0 W/m 7,1 C 7,2 C 9,7 km/h (2 Bft)
25.04.2018 02:23 7,7 C 11,1 C 11,1 C 11,1 C 10,6 C 96 % 16 cb 1007,2 hPa 0,0 l/m 2,7 km/h (1 Bft) SO 136 0 min 0,000 mm 0 W/m 7,1 C 7,7 C 9,7 km/h (2 Bft)
25.04.2018 02:22 7,7 C 11,1 C 11,1 C 11,1 C 10,6 C 96 % 16 cb 1007,3 hPa 0,0 l/m 2,8 km/h (1 Bft) S 178 0 min 0,000 mm 0 W/m 7,1 C 7,7 C 6,4 km/h (2 Bft)
25.04.2018 02:21 7,7 C 11,1 C 11,1 C 11,1 C 10,6 C 96 % 16 cb 1007,3 hPa 0,0 l/m 6,2 km/h (2 Bft) S-SO 147 0 min 0,000 mm 0 W/m 7,1 C 7,7 C 9,7 km/h (2 Bft)
25.04.2018 02:20 7,7 C 11,1 C 11,1 C 11,1 C 10,6 C 96 % 16 cb 1007,2 hPa 0,2 l/m 3,5 km/h (1 Bft) S-SO 167 0 min 0,000 mm 0 W/m 7,1 C 7,7 C 6,4 km/h (2 Bft)
25.04.2018 02:19 7,7 C 11,1 C 11,1 C 11,1 C 10,6 C 96 % 16 cb 1007,2 hPa 0,0 l/m 2,2 km/h (1 Bft) S-SO 162 0 min 0,000 mm 0 W/m 7,1 C 7,7 C 4,8 km/h (1 Bft)
25.04.2018 02:18 7,7 C 11,1 C 11,1 C 11,1 C 10,6 C 96 % 16 cb 1007,2 hPa 0,0 l/m 3,9 km/h (1 Bft) O-SO 114 0 min 0,000 mm 0 W/m 7,1 C 7,7 C 6,4 km/h (2 Bft)
25.04.2018 02:17 7,7 C 11,1 C 11,1 C 11,1 C 10,6 C 96 % 16 cb 1007,3 hPa 0,0 l/m 3,3 km/h (1 Bft) S-SO 157 0 min 0,000 mm 0 W/m 7,1 C 7,7 C 6,4 km/h (2 Bft)
25.04.2018 02:16 7,7 C 11,1 C 11,1 C 11,1 C 10,6 C 96 % 16 cb 1007,3 hPa 0,0 l/m 3,6 km/h (1 Bft) O-SO 107 0 min 0,000 mm 0 W/m 7,1 C 7,7 C 9,7 km/h (2 Bft)
25.04.2018 02:15 7,7 C 11,1 C 11,1 C 11,1 C 10,6 C 96 % 16 cb 1007,3 hPa 0,0 l/m 5,4 km/h (2 Bft) S-SO 164 0 min 0,000 mm 0 W/m 7,1 C 7,7 C 11,3 km/h (2 Bft)
25.04.2018 02:14 7,7 C 11,1 C 11,1 C 11,1 C 10,6 C 96 % 16 cb 1007,3 hPa 0,0 l/m 7,2 km/h (2 Bft) S-SO 159 0 min 0,000 mm 0 W/m 7,1 C 7,1 C 9,7 km/h (2 Bft)
25.04.2018 02:13 7,7 C 11,1 C 11,1 C 11,1 C 10,6 C 96 % 16 cb 1007,3 hPa 0,0 l/m 9,9 km/h (2 Bft) S-SO 152 0 min 0,000 mm 0 W/m 7,1 C 5,1 C 12,9 km/h (3 Bft)
25.04.2018 02:12 7,7 C 11,1 C 11,1 C 11,1 C 10,6 C 96 % 16 cb 1007,3 hPa 0,0 l/m 7,8 km/h (2 Bft) S-SO 158 0 min 0,000 mm 0 W/m 7,1 C 6,6 C 11,3 km/h (2 Bft)
25.04.2018 02:11 7,7 C 11,1 C 11,1 C 11,1 C 10,6 C 96 % 16 cb 1007,4 hPa 0,2 l/m 3,6 km/h (1 Bft) SO 141 0 min 0,000 mm 0 W/m 7,1 C 7,7 C 8,0 km/h (2 Bft)
25.04.2018 02:10 7,7 C 11,1 C 11,1 C 11,1 C 10,6 C 96 % 16 cb 1007,3 hPa 0,0 l/m 5,0 km/h (1 Bft) S 172 0 min 0,000 mm 0 W/m 7,1 C 7,7 C 9,7 km/h (2 Bft)
25.04.2018 02:09 7,7 C 11,1 C 11,1 C 11,1 C 10,6 C 96 % 16 cb 1007,4 hPa 0,0 l/m 3,5 km/h (1 Bft) O 94 0 min 0,000 mm 0 W/m 7,1 C 7,7 C 8,0 km/h (2 Bft)
25.04.2018 02:08 7,7 C 11,1 C 11,1 C 11,1 C 10,6 C 96 % 16 cb 1007,4 hPa 0,2 l/m 4,0 km/h (1 Bft) O-SO 109 0 min 0,000 mm 0 W/m 7,1 C 7,7 C 4,8 km/h (1 Bft)
25.04.2018 02:07 7,8 C 11,1 C 11,1 C 11,1 C 10,6 C 96 % 16 cb 1007,5 hPa 0,0 l/m 5,8 km/h (2 Bft) SO 126 0 min 0,000 mm 0 W/m 7,2 C 7,8 C 8,0 km/h (2 Bft)
25.04.2018 02:06 7,8 C 11,1 C 11,1 C 11,1 C 10,6 C 96 % 16 cb 1007,6 hPa 0,0 l/m 4,0 km/h (1 Bft) S-SO 155 0 min 0,000 mm 0 W/m 7,2 C 7,8 C 6,4 km/h (2 Bft)
25.04.2018 02:05 7,8 C 11,1 C 11,1 C 11,1 C 10,6 C 96 % 16 cb 1007,6 hPa 0,0 l/m 3,0 km/h (1 Bft) S-SW 205 0 min 0,000 mm 0 W/m 7,2 C 7,8 C 8,0 km/h (2 Bft)
25.04.2018 02:04 7,8 C 11,1 C 11,1 C 11,1 C 10,6 C 96 % 16 cb 1007,6 hPa 0,0 l/m 3,3 km/h (1 Bft) S-SW 202 0 min 0,000 mm 0 W/m 7,2 C 7,8 C 4,8 km/h (1 Bft)
25.04.2018 02:03 7,7 C 11,1 C 11,1 C 11,1 C 10,6 C 96 % 16 cb 1007,6 hPa 0,0 l/m 3,0 km/h (1 Bft) S-SO 155 0 min 0,000 mm 0 W/m 7,1 C 7,7 C 6,4 km/h (2 Bft)
25.04.2018 02:02 7,7 C 11,1 C 11,1 C 11,1 C 10,6 C 96 % 16 cb 1007,6 hPa 0,0 l/m 3,5 km/h (1 Bft) SO 144 0 min 0,000 mm 0 W/m 7,1 C 7,7 C 4,8 km/h (1 Bft)
25.04.2018 02:01 7,7 C 11,1 C 11,1 C 11,1 C 10,6 C 96 % 16 cb 1007,6 hPa 0,0 l/m 4,3 km/h (1 Bft) S-SO 155 0 min 0,000 mm 0 W/m 7,1 C 7,7 C 6,4 km/h (2 Bft)
25.04.2018 02:00 7,7 C 11,1 C 11,1 C 11,1 C 10,6 C 96 % 16 cb 1007,6 hPa 0,0 l/m 5,2 km/h (1 Bft) S-SO 160 0 min 0,000 mm 0 W/m 7,1 C 7,7 C 8,0 km/h (2 Bft)
25.04.2018 01:59 7,7 C 11,1 C 11,1 C 11,1 C 10,6 C 96 % 16 cb 1007,6 hPa 0,0 l/m 4,5 km/h (1 Bft) S 170 0 min 0,000 mm 0 W/m 7,1 C 7,7 C 8,0 km/h (2 Bft)
25.04.2018 01:58 7,7 C 11,1 C 11,1 C 11,1 C 10,6 C 96 % 16 cb 1007,7 hPa 0,2 l/m 4,8 km/h (1 Bft) S-SO 153 0 min 0,000 mm 0 W/m 7,1 C 7,7 C 8,0 km/h (2 Bft)
25.04.2018 01:57 7,7 C 11,1 C 11,1 C 11,1 C 10,6 C 96 % 16 cb 1007,7 hPa 0,0 l/m 4,2 km/h (1 Bft) S-SO 150 0 min 0,000 mm 0 W/m 7,1 C 7,7 C 8,0 km/h (2 Bft)
25.04.2018 01:56 7,7 C 11,1 C 11,1 C 11,1 C 10,6 C 96 % 16 cb 1007,7 hPa 0,0 l/m 7,7 km/h (2 Bft) SO 131 0 min 0,000 mm 0 W/m 7,1 C 6,7 C 11,3 km/h (2 Bft)
25.04.2018 01:55 7,7 C 11,1 C 11,1 C 11,1 C 10,6 C 96 % 16 cb 1007,7 hPa 0,0 l/m 4,4 km/h (1 Bft) S-SO 148 0 min 0,000 mm 0 W/m 7,1 C 7,7 C 8,0 km/h (2 Bft)
25.04.2018 01:54 7,7 C 11,1 C 11,1 C 11,1 C 10,6 C 96 % 16 cb 1007,7 hPa 0,0 l/m 6,2 km/h (2 Bft) S-SO 150 0 min 0,000 mm 0 W/m 7,1 C 7,7 C 11,3 km/h (2 Bft)
25.04.2018 01:53 7,7 C 11,1 C 11,1 C 11,1 C 10,6 C 96 % 16 cb 1007,7 hPa 0,0 l/m 4,6 km/h (1 Bft) S-SO 150 0 min 0,000 mm 0 W/m 7,1 C 7,7 C 8,0 km/h (2 Bft)
25.04.2018 01:52 7,7 C 11,1 C 11,1 C 11,1 C 10,6 C 96 % 16 cb 1007,7 hPa 0,0 l/m 7,8 km/h (2 Bft) SO 137 0 min 0,000 mm 0 W/m 7,1 C 6,6 C 12,9 km/h (3 Bft)
25.04.2018 01:51 7,7 C 11,1 C 11,1 C 11,1 C 10,6 C 96 % 16 cb 1007,7 hPa 0,0 l/m 4,6 km/h (1 Bft) SO 124 0 min 0,000 mm 0 W/m 7,1 C 7,7 C 8,0 km/h (2 Bft)
25.04.2018 01:50 7,7 C 11,1 C 11,1 C 11,1 C 10,6 C 96 % 16 cb 1007,8 hPa 0,2 l/m 5,2 km/h (1 Bft) S-SO 159 0 min 0,000 mm 0 W/m 7,1 C 7,7 C 9,7 km/h (2 Bft)
25.04.2018 01:49 7,7 C 11,1 C 11,1 C 11,1 C 10,6 C 96 % 16 cb 1007,9 hPa 0,0 l/m 2,2 km/h (1 Bft) S-SO 153 0 min 0,000 mm 0 W/m 7,1 C 7,7 C 3,2 km/h (1 Bft)
25.04.2018 01:48 7,8 C 11,1 C 11,1 C 11,1 C 10,6 C 96 % 16 cb 1007,9 hPa 0,0 l/m 5,4 km/h (2 Bft) S-SO 158 0 min 0,000 mm 0 W/m 7,2 C 7,8 C 9,7 km/h (2 Bft)
25.04.2018 01:47 7,8 C 11,1 C 11,1 C 11,1 C 10,6 C 96 % 16 cb 1007,9 hPa 0,0 l/m 5,5 km/h (2 Bft) S-SO 164 0 min 0,000 mm 0 W/m 7,2 C 7,8 C 8,0 km/h (2 Bft)
25.04.2018 01:46 7,8 C 11,1 C 11,1 C 11,1 C 10,6 C 96 % 16 cb 1008,0 hPa 0,0 l/m 6,0 km/h (2 Bft) S-SO 153 0 min 0,000 mm 0 W/m 7,2 C 7,8 C 9,7 km/h (2 Bft)
25.04.2018 01:45 7,8 C 11,1 C 11,1 C 11,1 C 10,6 C 96 % 16 cb 1008,0 hPa 0,0 l/m 5,1 km/h (1 Bft) S-SO 163 0 min 0,000 mm 0 W/m 7,2 C 7,8 C 12,9 km/h (3 Bft)
25.04.2018 01:44 7,7 C 11,1 C 11,1 C 11,1 C 10,6 C 96 % 16 cb 1008,0 hPa 0,0 l/m 4,8 km/h (1 Bft) S 172 0 min 0,000 mm 0 W/m 7,1 C 7,7 C 8,0 km/h (2 Bft)
25.04.2018 01:43 7,7 C 11,1 C 11,1 C 11,1 C 10,6 C 96 % 16 cb 1008,0 hPa 0,0 l/m 6,7 km/h (2 Bft) S-SO 161 0 min 0,000 mm 0 W/m 7,1 C 7,5 C 9,7 km/h (2 Bft)
25.04.2018 01:42 7,7 C 11,1 C 11,1 C 11,1 C 10,6 C 96 % 16 cb 1008,0 hPa 0,0 l/m 7,8 km/h (2 Bft) S 170 0 min 0,000 mm 0 W/m 7,1 C 6,6 C 9,7 km/h (2 Bft)
25.04.2018 01:41 7,7 C 11,1 C 11,1 C 11,1 C 10,6 C 96 % 16 cb 1008,1 hPa 0,0 l/m 4,4 km/h (1 Bft) S-SO 156 0 min 0,000 mm 0 W/m 7,1 C 7,7 C 8,0 km/h (2 Bft)
25.04.2018 01:40 7,7 C 11,1 C 11,1 C 11,1 C 10,6 C 95 % 16 cb 1008,1 hPa 0,0 l/m 3,5 km/h (1 Bft) S-SO 167 0 min 0,000 mm 0 W/m 7,0 C 7,7 C 6,4 km/h (2 Bft)
25.04.2018 01:39 7,7 C 11,1 C 11,1 C 11,1 C 10,6 C 95 % 16 cb 1008,0 hPa 0,0 l/m 6,3 km/h (2 Bft) SO 145 0 min 0,000 mm 0 W/m 7,0 C 7,7 C 9,7 km/h (2 Bft)
25.04.2018 01:38 7,7 C 11,1 C 11,1 C 11,1 C 10,6 C 95 % 16 cb 1008,1 hPa 0,0 l/m 6,9 km/h (2 Bft) S-SO 156 0 min 0,000 mm 0 W/m 7,0 C 7,3 C 9,7 km/h (2 Bft)
25.04.2018 01:37 7,7 C 11,1 C 11,1 C 11,1 C 10,6 C 95 % 16 cb 1008,0 hPa 0,0 l/m 5,6 km/h (2 Bft) S-SO 153 0 min 0,000 mm 0 W/m 7,0 C 7,7 C 9,7 km/h (2 Bft)
25.04.2018 01:36 7,7 C 11,1 C 11,1 C 11,1 C 10,6 C 95 % 16 cb 1008,0 hPa 0,0 l/m 7,7 km/h (2 Bft) S-SO 156 0 min 0,000 mm 0 W/m 7,0 C 6,7 C 12,9 km/h (3 Bft)
25.04.2018 01:35 7,7 C 11,1 C 11,1 C 11,1 C 10,6 C 95 % 16 cb 1008,0 hPa 0,0 l/m 6,8 km/h (2 Bft) S-SO 156 0 min 0,000 mm 0 W/m 7,0 C 7,4 C 12,9 km/h (3 Bft)
25.04.2018 01:34 7,7 C 11,1 C 11,1 C 11,1 C 10,6 C 95 % 16 cb 1008,1 hPa 0,0 l/m 3,4 km/h (1 Bft) SO 142 0 min 0,000 mm 0 W/m 7,0 C 7,7 C 8,0 km/h (2 Bft)
25.04.2018 01:33 7,7 C 11,1 C 11,1 C 11,1 C 10,6 C 95 % 16 cb 1008,1 hPa 0,2 l/m 8,0 km/h (2 Bft) SO 146 0 min 0,000 mm 0 W/m 7,0 C 6,4 C 9,7 km/h (2 Bft)
25.04.2018 01:32 7,7 C 11,1 C 11,1 C 11,1 C 10,6 C 95 % 16 cb 1008,1 hPa 0,0 l/m 8,2 km/h (2 Bft) S-SO 159 0 min 0,000 mm 0 W/m 7,0 C 6,3 C 11,3 km/h (2 Bft)
25.04.2018 01:31 7,7 C 11,1 C 11,1 C 11,1 C 10,6 C 95 % 16 cb 1008,2 hPa 0,0 l/m 0,2 km/h (0 Bft) S-SO 153 0 min 0,000 mm 0 W/m 7,0 C 7,7 C 1,6 km/h (1 Bft)
25.04.2018 01:30 7,7 C 11,1 C 11,1 C 11,1 C 10,6 C 95 % 16 cb 1008,2 hPa 0,0 l/m 6,7 km/h (2 Bft) SO 131 0 min 0,000 mm 0 W/m 7,0 C 7,5 C 12,9 km/h (3 Bft)
25.04.2018 01:29 7,7 C 11,1 C 11,1 C 11,1 C 10,6 C 95 % 16 cb 1008,2 hPa 0,0 l/m 4,0 km/h (1 Bft) S-SO 167 0 min 0,000 mm 0 W/m 7,0 C 7,7 C 8,0 km/h (2 Bft)
25.04.2018 01:28 7,7 C 11,1 C 11,1 C 11,1 C 10,6 C 95 % 16 cb 1008,2 hPa 0,0 l/m 3,3 km/h (1 Bft) SO 134 0 min 0,000 mm 0 W/m 7,0 C 7,7 C 4,8 km/h (1 Bft)
25.04.2018 01:27 7,7 C 11,1 C 11,1 C 11,1 C 10,6 C 95 % 16 cb 1008,3 hPa 0,0 l/m 2,3 km/h (1 Bft) S-SO 148 0 min 0,000 mm 0 W/m 7,0 C 7,7 C 6,4 km/h (2 Bft)
25.04.2018 01:26 7,7 C 11,1 C 11,1 C 11,1 C 10,6 C 95 % 16 cb 1008,3 hPa 0,2 l/m 0,2 km/h (0 Bft) S-SO 164 0 min 0,000 mm 0 W/m 7,0 C 7,7 C 3,2 km/h (1 Bft)
25.04.2018 01:25 7,7 C 11,1 C 11,1 C 11,1 C 10,6 C 95 % 16 cb 1008,3 hPa 0,0 l/m 3,1 km/h (1 Bft) O 86 0 min 0,000 mm 0 W/m 7,0 C 7,7 C 6,4 km/h (2 Bft)
25.04.2018 01:24 7,7 C 11,1 C 11,1 C 11,1 C 10,6 C 95 % 16 cb 1008,3 hPa 0,0 l/m 4,9 km/h (1 Bft) SO 134 0 min 0,000 mm 0 W/m 7,0 C 7,7 C 9,7 km/h (2 Bft)
25.04.2018 01:23 7,6 C 11,1 C 11,1 C 11,1 C 10,6 C 95 % 16 cb 1008,4 hPa 0,0 l/m 5,2 km/h (1 Bft) S-SO 150 0 min 0,000 mm 0 W/m 6,9 C 7,6 C 8,0 km/h (2 Bft)
25.04.2018 01:22 7,6 C 11,1 C 11,1 C 11,1 C 10,6 C 95 % 16 cb 1008,5 hPa 0,0 l/m 8,9 km/h (2 Bft) S 169 0 min 0,000 mm 0 W/m 6,9 C 5,7 C 11,3 km/h (2 Bft)
25.04.2018 01:21 7,6 C 11,1 C 11,1 C 11,1 C 10,6 C 95 % 16 cb 1008,5 hPa 0,0 l/m 7,5 km/h (2 Bft) S-SO 166 0 min 0,000 mm 0 W/m 6,9 C 6,7 C 9,7 km/h (2 Bft)
25.04.2018 01:20 7,6 C 11,1 C 11,1 C 11,1 C 10,6 C 95 % 16 cb 1008,4 hPa 0,0 l/m 7,6 km/h (2 Bft) S-SO 147 0 min 0,000 mm 0 W/m 6,9 C 6,6 C 9,7 km/h (2 Bft)
25.04.2018 01:19 7,6 C 11,1 C 11,1 C 11,1 C 10,6 C 95 % 16 cb 1008,5 hPa 0,2 l/m 6,8 km/h (2 Bft) S-SO 162 0 min 0,000 mm 0 W/m 6,9 C 7,3 C 9,7 km/h (2 Bft)
25.04.2018 01:18 7,6 C 11,1 C 11,1 C 11,1 C 10,6 C 95 % 16 cb 1008,5 hPa 0,0 l/m 4,9 km/h (1 Bft) S-SO 157 0 min 0,000 mm 0 W/m 6,9 C 7,6 C 8,0 km/h (2 Bft)
25.04.2018 01:17 7,6 C 11,1 C 11,1 C 11,1 C 10,6 C 95 % 16 cb 1008,5 hPa 0,0 l/m 5,5 km/h (2 Bft) S-SO 162 0 min 0,000 mm 0 W/m 6,9 C 7,6 C 8,0 km/h (2 Bft)
25.04.2018 01:16 7,6 C 11,1 C 11,1 C 11,1 C 10,6 C 95 % 16 cb 1008,5 hPa 0,0 l/m 3,2 km/h (1 Bft) S-SO 153 0 min 0,000 mm 0 W/m 6,9 C 7,6 C 6,4 km/h (2 Bft)
25.04.2018 01:15 7,6 C 11,1 C 11,1 C 11,1 C 10,6 C 95 % 16 cb 1008,5 hPa 0,0 l/m 6,0 km/h (2 Bft) SO 144 0 min 0,000 mm 0 W/m 6,9 C 7,6 C 8,0 km/h (2 Bft)
25.04.2018 01:14 7,6 C 11,1 C 11,1 C 11,1 C 10,6 C 95 % 16 cb 1008,6 hPa 0,0 l/m 6,0 km/h (2 Bft) S-SO 156 0 min 0,000 mm 0 W/m 6,9 C 7,6 C 9,7 km/h (2 Bft)
25.04.2018 01:13 7,6 C 11,1 C 11,1 C 11,1 C 10,6 C 95 % 16 cb 1008,6 hPa 0,2 l/m 7,8 km/h (2 Bft) SO 136 0 min 0,000 mm 0 W/m 6,9 C 6,5 C 9,7 km/h (2 Bft)
25.04.2018 01:12 7,6 C 11,1 C 11,1 C 11,1 C 10,6 C 95 % 16 cb 1008,6 hPa 0,0 l/m 5,9 km/h (2 Bft) S-SO 158 0 min 0,000 mm 0 W/m 6,9 C 7,6 C 11,3 km/h (2 Bft)
25.04.2018 01:11 7,6 C 11,1 C 11,1 C 11,1 C 10,6 C 95 % 16 cb 1008,6 hPa 0,0 l/m 3,1 km/h (1 Bft) S-SW 192 0 min 0,000 mm 0 W/m 6,9 C 7,6 C 6,4 km/h (2 Bft)
25.04.2018 01:10 7,6 C 11,1 C 11,1 C 11,1 C 10,6 C 95 % 16 cb 1008,6 hPa 0,0 l/m 5,4 km/h (2 Bft) SO 146 0 min 0,000 mm 0 W/m 6,9 C 7,6 C 8,0 km/h (2 Bft)
25.04.2018 01:09 7,6 C 11,1 C 11,1 C 11,1 C 10,6 C 95 % 16 cb 1008,6 hPa 0,0 l/m 6,2 km/h (2 Bft) S-SO 149 0 min 0,000 mm 0 W/m 6,9 C 7,6 C 8,0 km/h (2 Bft)
25.04.2018 01:08 7,6 C 11,1 C 11,1 C 11,1 C 10,6 C 95 % 16 cb 1008,7 hPa 0,0 l/m 5,9 km/h (2 Bft) SO 145 0 min 0,000 mm 0 W/m 6,9 C 7,6 C 8,0 km/h (2 Bft)
25.04.2018 01:07 7,6 C 11,1 C 11,1 C 11,1 C 10,6 C 95 % 16 cb 1008,7 hPa 0,0 l/m 4,8 km/h (1 Bft) SO 146 0 min 0,000 mm 0 W/m 6,9 C 7,6 C 8,0 km/h (2 Bft)
25.04.2018 01:06 7,6 C 11,1 C 11,1 C 11,1 C 10,6 C 95 % 16 cb 1008,7 hPa 0,0 l/m 1,9 km/h (1 Bft) SO 146 0 min 0,000 mm 0 W/m 6,9 C 7,6 C 4,8 km/h (1 Bft)
25.04.2018 01:05 7,7 C 11,1 C 11,1 C 11,1 C 10,6 C 95 % 16 cb 1008,8 hPa 0,0 l/m 2,3 km/h (1 Bft) SO 142 0 min 0,000 mm 0 W/m 7,0 C 7,7 C 4,8 km/h (1 Bft)
25.04.2018 01:04 7,7 C 11,1 C 11,1 C 11,1 C 10,6 C 95 % 16 cb 1008,8 hPa 0,0 l/m 3,4 km/h (1 Bft) S-SO 153 0 min 0,000 mm 0 W/m 7,0 C 7,7 C 4,8 km/h (1 Bft)
25.04.2018 01:03 7,7 C 11,1 C 11,1 C 11,1 C 10,6 C 95 % 16 cb 1008,8 hPa 0,0 l/m 4,3 km/h (1 Bft) SO 146 0 min 0,000 mm 0 W/m 7,0 C 7,7 C 6,4 km/h (2 Bft)
25.04.2018 01:02 7,7 C 11,1 C 11,1 C 11,1 C 10,6 C 95 % 16 cb 1008,9 hPa 0,2 l/m 3,0 km/h (1 Bft) S-SO 165 0 min 0,000 mm 0 W/m 7,0 C 7,7 C 4,8 km/h (1 Bft)
25.04.2018 01:01 7,7 C 11,1 C 11,1 C 11,1 C 10,6 C 95 % 16 cb 1008,9 hPa 0,0 l/m 3,8 km/h (1 Bft) S-SO 158 0 min 0,000 mm 0 W/m 7,0 C 7,7 C 6,4 km/h (2 Bft)
25.04.2018 01:00 7,7 C 11,1 C 11,1 C 11,1 C 10,6 C 95 % 16 cb 1008,9 hPa 0,0 l/m 3,2 km/h (1 Bft) S-SO 151 0 min 0,000 mm 0 W/m 7,0 C 7,7 C 6,4 km/h (2 Bft)
25.04.2018 00:59 7,7 C 11,1 C 11,1 C 11,1 C 10,6 C 95 % 16 cb 1008,9 hPa 0,0 l/m 3,2 km/h (1 Bft) S 171 0 min 0,000 mm 0 W/m 7,0 C 7,7 C 6,4 km/h (2 Bft)
25.04.2018 00:58 7,7 C 11,1 C 11,1 C 11,1 C 10,6 C 95 % 16 cb 1008,9 hPa 0,0 l/m 4,1 km/h (1 Bft) S-SO 157 0 min 0,000 mm 0 W/m 7,0 C 7,7 C 6,4 km/h (2 Bft)
25.04.2018 00:57 7,7 C 11,1 C 11,1 C 11,1 C 10,6 C 95 % 16 cb 1008,9 hPa 0,0 l/m 4,2 km/h (1 Bft) S-SO 157 0 min 0,000 mm 0 W/m 7,0 C 7,7 C 6,4 km/h (2 Bft)
25.04.2018 00:56 7,7 C 11,1 C 11,1 C 11,1 C 10,6 C 95 % 16 cb 1009,0 hPa 0,0 l/m 1,9 km/h (1 Bft) S-SO 148 0 min 0,000 mm 0 W/m 7,0 C 7,7 C 4,8 km/h (1 Bft)
25.04.2018 00:55 7,7 C 11,1 C 11,1 C 11,1 C 10,6 C 95 % 16 cb 1009,0 hPa 0,0 l/m 3,1 km/h (1 Bft) S-SO 148 0 min 0,000 mm 0 W/m 7,0 C 7,7 C 4,8 km/h (1 Bft)
25.04.2018 00:54 7,7 C 11,1 C 11,1 C 11,1 C 10,6 C 95 % 16 cb 1009,0 hPa 0,0 l/m 3,4 km/h (1 Bft) S-SO 150 0 min 0,000 mm 0 W/m 7,0 C 7,7 C 6,4 km/h (2 Bft)
25.04.2018 00:53 7,7 C 11,1 C 11,1 C 11,1 C 10,6 C 95 % 16 cb 1009,0 hPa 0,0 l/m 0,4 km/h (0 Bft) S-SO 153 0 min 0,000 mm 0 W/m 7,0 C 7,7 C 3,2 km/h (1 Bft)
25.04.2018 00:52 7,7 C 11,1 C 11,1 C 11,1 C 10,6 C 95 % 16 cb 1009,1 hPa 0,0 l/m 0,9 km/h (0 Bft) S-SO 161 0 min 0,000 mm 0 W/m 7,0 C 7,7 C 3,2 km/h (1 Bft)
25.04.2018 00:51 7,7 C 11,1 C 11,1 C 11,1 C 10,6 C 95 % 16 cb 1009,1 hPa 0,0 l/m 0,0 km/h (0 Bft) S-SO 151 0 min 0,000 mm 0 W/m 7,0 C 7,7 C 0,0 km/h (0 Bft)
25.04.2018 00:50 7,6 C 11,1 C 11,1 C 11,1 C 10,6 C 95 % 16 cb 1009,1 hPa 0,0 l/m 0,0 km/h (0 Bft) S-SO 156 0 min 0,000 mm 0 W/m 6,9 C 7,6 C 0,0 km/h (0 Bft)
25.04.2018 00:49 7,7 C 11,1 C 11,1 C 11,1 C 10,6 C 95 % 16 cb 1009,1 hPa 0,0 l/m 0,0 km/h (0 Bft) S-SO 156 0 min 0,000 mm 0 W/m 7,0 C 7,7 C 0,0 km/h (0 Bft)
25.04.2018 00:48 7,7 C 11,1 C 11,1 C 11,1 C 10,6 C 95 % 16 cb 1009,1 hPa 0,0 l/m 1,2 km/h (1 Bft) S-SO 155 0 min 0,000 mm 0 W/m 7,0 C 7,7 C 3,2 km/h (1 Bft)
25.04.2018 00:47 7,7 C 11,1 C 11,1 C 11,1 C 10,6 C 95 % 16 cb 1009,1 hPa 0,0 l/m 1,2 km/h (1 Bft) S-SO 165 0 min 0,000 mm 0 W/m 7,0 C 7,7 C 4,8 km/h (1 Bft)
25.04.2018 00:46 7,7 C 11,1 C 11,1 C 11,1 C 10,6 C 95 % 16 cb 1009,1 hPa 0,0 l/m 0,0 km/h (0 Bft) S-SO 163 0 min 0,000 mm 0 W/m 7,0 C 7,7 C 0,0 km/h (0 Bft)
25.04.2018 00:45 7,7 C 11,1 C 11,1 C 11,1 C 10,6 C 95 % 16 cb 1009,2 hPa 0,0 l/m 0,1 km/h (0 Bft) S 185 0 min 0,000 mm 0 W/m 7,0 C 7,7 C 1,6 km/h (1 Bft)
25.04.2018 00:44 7,7 C 11,1 C 11,1 C 11,1 C 10,6 C 95 % 16 cb 1009,2 hPa 0,0 l/m 0,1 km/h (0 Bft) S-SO 161 0 min 0,000 mm 0 W/m 7,0 C 7,7 C 1,6 km/h (1 Bft)
25.04.2018 00:43 7,7 C 11,1 C 11,1 C 11,1 C 10,6 C 95 % 16 cb 1009,2 hPa 0,2 l/m 0,1 km/h (0 Bft) S-SO 161 0 min 0,000 mm 0 W/m 7,0 C 7,7 C 1,6 km/h (1 Bft)
25.04.2018 00:42 7,7 C 11,1 C 11,1 C 11,1 C 10,6 C 94 % 16 cb 1009,3 hPa 0,0 l/m 0,0 km/h (0 Bft) S 169 0 min 0,000 mm 0 W/m 6,8 C 7,7 C 0,0 km/h (0 Bft)
25.04.2018 00:41 7,7 C 11,1 C 11,1 C 11,1 C 10,6 C 94 % 16 cb 1009,3 hPa 0,0 l/m 0,0 km/h (0 Bft) S-SO 150 0 min 0,000 mm 0 W/m 6,8 C 7,7 C 0,0 km/h (0 Bft)
25.04.2018 00:40 7,7 C 11,1 C 11,1 C 11,1 C 10,6 C 94 % 16 cb 1009,3 hPa 0,0 l/m 0,0 km/h (0 Bft) S-SO 150 0 min 0,000 mm 0 W/m 6,8 C 7,7 C 0,0 km/h (0 Bft)
25.04.2018 00:39 7,7 C 11,1 C 11,1 C 11,1 C 10,6 C 95 % 16 cb 1009,3 hPa 0,0 l/m 0,0 km/h (0 Bft) S-SO 165 0 min 0,000 mm 0 W/m 7,0 C 7,7 C 0,0 km/h (0 Bft)
25.04.2018 00:38 7,7 C 11,1 C 11,1 C 11,1 C 10,6 C 95 % 16 cb 1009,4 hPa 0,0 l/m 0,0 km/h (0 Bft) S-SO 158 0 min 0,000 mm 0 W/m 7,0 C 7,7 C 0,0 km/h (0 Bft)
25.04.2018 00:37 7,7 C 11,1 C 11,1 C 11,1 C 10,6 C 95 % 16 cb 1009,4 hPa 0,0 l/m 0,0 km/h (0 Bft) S 173 0 min 0,000 mm 0 W/m 7,0 C 7,7 C 0,0 km/h (0 Bft)
25.04.2018 00:36 7,7 C 11,1 C 11,1 C 11,1 C 10,6 C 94 % 16 cb 1009,5 hPa 0,0 l/m 0,0 km/h (0 Bft) S 180 0 min 0,000 mm 0 W/m 6,8 C 7,7 C 0,0 km/h (0 Bft)
25.04.2018 00:35 7,7 C 11,1 C 11,1 C 11,1 C 10,6 C 94 % 16 cb 1009,5 hPa 0,0 l/m 0,0 km/h (0 Bft) SW 218 0 min 0,000 mm 0 W/m 6,8 C 7,7 C 0,0 km/h (0 Bft)
25.04.2018 00:34 7,7 C 11,1 C 11,1 C 11,1 C 10,6 C 94 % 16 cb 1009,5 hPa 0,0 l/m 0,0 km/h (0 Bft) SW 218 0 min 0,000 mm 0 W/m 6,8 C 7,7 C 0,0 km/h (0 Bft)
25.04.2018 00:33 7,7 C 11,1 C 11,1 C 11,1 C 10,6 C 94 % 16 cb 1009,6 hPa 0,0 l/m 0,0 km/h (0 Bft) SW 232 0 min 0,000 mm 0 W/m 6,8 C 7,7 C 0,0 km/h (0 Bft)
25.04.2018 00:32 7,7 C 11,1 C 11,1 C 11,1 C 10,6 C 94 % 16 cb 1009,6 hPa 0,0 l/m 0,0 km/h (0 Bft) SW 231 0 min 0,000 mm 0 W/m 6,8 C 7,7 C 0,0 km/h (0 Bft)
25.04.2018 00:31 7,7 C 11,1 C 11,1 C 11,1 C 10,6 C 94 % 16 cb 1009,7 hPa 0,0 l/m 0,0 km/h (0 Bft) SW 216 0 min 0,000 mm 0 W/m 6,8 C 7,7 C 0,0 km/h (0 Bft)
25.04.2018 00:30 7,7 C 11,1 C 11,1 C 11,1 C 10,6 C 94 % 16 cb 1009,7 hPa 0,0 l/m 0,0 km/h (0 Bft) S-SW 202 0 min 0,000 mm 0 W/m 6,8 C 7,7 C 0,0 km/h (0 Bft)
25.04.2018 00:29 7,8 C 11,1 C 11,1 C 11,1 C 10,6 C 94 % 16 cb 1009,7 hPa 0,0 l/m 0,0 km/h (0 Bft) S-SW 203 0 min 0,000 mm 0 W/m 6,9 C 7,8 C 0,0 km/h (0 Bft)
25.04.2018 00:28 7,8 C 11,1 C 11,1 C 11,1 C 10,6 C 94 % 16 cb 1009,7 hPa 0,0 l/m 0,0 km/h (0 Bft) S-SW 203 0 min 0,000 mm 0 W/m 6,9 C 7,8 C 0,0 km/h (0 Bft)
25.04.2018 00:27 7,8 C 11,1 C 11,1 C 11,1 C 10,6 C 94 % 16 cb 1009,7 hPa 0,0 l/m 0,0 km/h (0 Bft) S-SW 203 0 min 0,000 mm 0 W/m 6,9 C 7,8 C 0,0 km/h (0 Bft)
25.04.2018 00:26 7,8 C 11,1 C 11,1 C 11,1 C 10,6 C 94 % 16 cb 1009,7 hPa 0,0 l/m 0,0 km/h (0 Bft) S 187 0 min 0,000 mm 0 W/m 6,9 C 7,8 C 0,0 km/h (0 Bft)
25.04.2018 00:25 7,8 C 11,1 C 11,1 C 11,1 C 10,6 C 94 % 16 cb 1009,8 hPa 0,0 l/m 0,0 km/h (0 Bft) S 176 0 min 0,000 mm 0 W/m 6,9 C 7,8 C 0,0 km/h (0 Bft)
25.04.2018 00:24 7,8 C 11,1 C 11,1 C 11,1 C 10,6 C 94 % 16 cb 1009,8 hPa 0,0 l/m 0,0 km/h (0 Bft) S 186 0 min 0,000 mm 0 W/m 6,9 C 7,8 C 0,0 km/h (0 Bft)
25.04.2018 00:23 7,8 C 11,1 C 11,1 C 11,1 C 10,6 C 94 % 16 cb 1009,8 hPa 0,0 l/m 0,0 km/h (0 Bft) S-SW 212 0 min 0,000 mm 0 W/m 6,9 C 7,8 C 0,0 km/h (0 Bft)
25.04.2018 00:22 7,8 C 11,1 C 11,1 C 11,1 C 10,6 C 94 % 16 cb 1009,8 hPa 0,0 l/m 0,0 km/h (0 Bft) S-SW 194 0 min 0,000 mm 0 W/m 6,9 C 7,8 C 0,0 km/h (0 Bft)
25.04.2018 00:21 7,8 C 11,1 C 11,1 C 11,1 C 10,6 C 94 % 16 cb 1009,8 hPa 0,0 l/m 0,0 km/h (0 Bft) S-SW 194 0 min 0,000 mm 0 W/m 6,9 C 7,8 C 0,0 km/h (0 Bft)
25.04.2018 00:20 7,8 C 11,1 C 11,1 C 11,1 C 10,6 C 94 % 16 cb 1009,9 hPa 0,0 l/m 0,0 km/h (0 Bft) SW 228 0 min 0,000 mm 0 W/m 6,9 C 7,8 C 0,0 km/h (0 Bft)
25.04.2018 00:19 7,8 C 11,1 C 11,1 C 11,1 C 10,6 C 94 % 16 cb 1009,9 hPa 0,0 l/m 0,0 km/h (0 Bft) SW 235 0 min 0,000 mm 0 W/m 6,9 C 7,8 C 0,0 km/h (0 Bft)
25.04.2018 00:18 7,8 C 11,1 C 11,1 C 11,1 C 10,6 C 94 % 16 cb 1009,9 hPa 0,0 l/m 0,0 km/h (0 Bft) SW 235 0 min 0,000 mm 0 W/m 6,9 C 7,8 C 0,0 km/h (0 Bft)
25.04.2018 00:17 7,8 C 11,1 C 11,1 C 11,1 C 10,6 C 94 % 16 cb 1009,9 hPa 0,0 l/m 0,0 km/h (0 Bft) S-SW 193 0 min 0,000 mm 0 W/m 6,9 C 7,8 C 0,0 km/h (0 Bft)
25.04.2018 00:16 7,8 C 11,1 C 11,1 C 11,1 C 10,6 C 94 % 16 cb 1009,9 hPa 0,2 l/m 0,0 km/h (0 Bft) S 177 0 min 0,000 mm 0 W/m 6,9 C 7,8 C 0,0 km/h (0 Bft)
25.04.2018 00:15 7,8 C 11,1 C 11,1 C 11,1 C 10,6 C 94 % 16 cb 1009,8 hPa 0,0 l/m 0,0 km/h (0 Bft) SW 215 0 min 0,000 mm 0 W/m 6,9 C 7,8 C 0,0 km/h (0 Bft)
25.04.2018 00:14 7,8 C 11,1 C 11,1 C 11,1 C 10,6 C 94 % 16 cb 1009,9 hPa 0,0 l/m 0,0 km/h (0 Bft) S 169 0 min 0,000 mm 0 W/m 6,9 C 7,8 C 0,0 km/h (0 Bft)
25.04.2018 00:13 7,8 C 11,1 C 11,1 C 11,1 C 10,6 C 94 % 16 cb 1009,9 hPa 0,0 l/m 0,0 km/h (0 Bft) S 169 0 min 0,000 mm 0 W/m 6,9 C 7,8 C 0,0 km/h (0 Bft)
25.04.2018 00:12 7,8 C 11,1 C 11,1 C 11,1 C 10,6 C 94 % 16 cb 1009,9 hPa 0,0 l/m 0,0 km/h (0 Bft) S-SW 202 0 min 0,000 mm 0 W/m 6,9 C 7,8 C 0,0 km/h (0 Bft)
25.04.2018 00:11 7,8 C 11,1 C 11,1 C 11,1 C 10,6 C 94 % 16 cb 1009,9 hPa 0,0 l/m 0,1 km/h (0 Bft) S-SO 157 0 min 0,000 mm 0 W/m 6,9 C 7,8 C 1,6 km/h (1 Bft)
25.04.2018 00:10 7,8 C 11,1 C 11,1 C 11,1 C 10,6 C 94 % 16 cb 1009,9 hPa 0,0 l/m 0,0 km/h (0 Bft) S-SO 153 0 min 0,000 mm 0 W/m 6,9 C 7,8 C 0,0 km/h (0 Bft)
25.04.2018 00:09 7,8 C 11,1 C 11,1 C 11,1 C 10,6 C 94 % 16 cb 1010,0 hPa 0,0 l/m 0,0 km/h (0 Bft) S 176 0 min 0,000 mm 0 W/m 6,9 C 7,8 C 0,0 km/h (0 Bft)
25.04.2018 00:08 7,8 C 11,1 C 11,1 C 11,1 C 10,6 C 94 % 16 cb 1010,1 hPa 0,0 l/m 0,0 km/h (0 Bft) S 175 0 min 0,000 mm 0 W/m 6,9 C 7,8 C 0,0 km/h (0 Bft)
25.04.2018 00:07 7,8 C 11,1 C 11,1 C 11,1 C 10,6 C 94 % 16 cb 1010,1 hPa 0,0 l/m 0,0 km/h (0 Bft) SW 219 0 min 0,000 mm 0 W/m 6,9 C 7,8 C 0,0 km/h (0 Bft)
25.04.2018 00:06 7,9 C 11,1 C 11,1 C 11,1 C 10,6 C 94 % 16 cb 1010,0 hPa 0,0 l/m 0,0 km/h (0 Bft) S 179 0 min 0,000 mm 0 W/m 7,0 C 7,9 C 0,0 km/h (0 Bft)
25.04.2018 00:05 7,9 C 11,1 C 11,1 C 11,1 C 10,6 C 94 % 16 cb 1010,0 hPa 0,0 l/m 1,0 km/h (0 Bft) S-SW 202 0 min 0,000 mm 0 W/m 7,0 C 7,9 C 3,2 km/h (1 Bft)
25.04.2018 00:04 7,9 C 11,1 C 11,1 C 11,1 C 10,6 C 94 % 16 cb 1010,1 hPa 0,0 l/m 0,5 km/h (0 Bft) S 180 0 min 0,000 mm 0 W/m 7,0 C 7,9 C 1,6 km/h (1 Bft)
25.04.2018 00:03 7,9 C 11,1 C 11,1 C 11,1 C 10,6 C 94 % 16 cb 1010,1 hPa 0,0 l/m 0,6 km/h (0 Bft) S 179 0 min 0,000 mm 0 W/m 7,0 C 7,9 C 3,2 km/h (1 Bft)
25.04.2018 00:02 7,9 C 11,1 C 11,1 C 11,1 C 10,6 C 94 % 16 cb 1010,1 hPa 0,0 l/m 1,1 km/h (1 Bft) SW 219 0 min 0,000 mm 0 W/m 7,0 C 7,9 C 3,2 km/h (1 Bft)
25.04.2018 00:00 7,9 C 11,1 C 11,1 C 11,1 C 10,6 C 94 % 16 cb 1010,1 hPa 0,0 l/m 0,0 km/h (0 Bft) S-SW 197 0 min 0,000 mm 0 W/m 7,0 C 7,9 C 0,0 km/h (0 Bft)
_ Min-Zeit 03:12 00:00 10:06 10:06 10:06 10:41 00:00 08:57 - 00:00 - - - - - 13:23 13:11 00:00
Minimum _ 7,5 C 11,1 C 10,6 C 10,6 C 10,0 C 84 % 16 cb 1000,2 hPa - 0,0 km/h (0 Bft) - - - - - 6,7 C -0,3 C 0,0 km/h (0 Bft)
_ Max-Zeit 10:30 10:11 00:00 00:00 00:00 06:02 10:06 00:00 00:16 11:57 - - 00:00 13:01 10:26 09:11 09:39 11:57
Maximum _ 12,6 C 12,2 C 11,1 C 11,1 C 10,6 C 97 % 17 cb 1010,1 hPa 0,2 l/m 28,7 km/h
N-NW (5 Bft)
- - 0 min 0,077 mm 256 W/m 11,3 C 11,9 C 53,1 km/h
SW (7 Bft)
Durchschnitt _ 9,7 C 11,1 C 11,0 C 11,0 C 10,4 C 94 % 16 cb 1003,6 hPa #7,0 l/m 9,0 km/h (2 Bft) S-SO - #0 min. #0,356 mm 87 W/m 8,7 C 7,7 C 15,7 km/h (3 Bft)